<?xml version="1.0" encoding="UTF-8" standalone="no" ?>
<gpx xmlns="http://www.topografix.com/GPX/1/1" xmlns:xsi="http://www.w3.org/2001/XMLSchema-instance" xsi:schemaLocation="http://www.topografix.com/GPX/1/1 http://www.topografix.com/GPX/1/1/gpx.xsd" version="1.1" creator="VisuGPX - https://www.visugpx.com">
  <metadata>
    <name>Sortie_cyclo_13_05_2013 (Lannion  - Loguivy - Plouaret)</name>
    <desc><![CDATA[Circuit de 72 kms.
Passage intéressant après Loguivy.]]></desc>
  </metadata>
  <trk>
    <name><![CDATA[13-MAI-13 18:13:16]]></name>
    <trkseg>
      <trkpt lat="48.74688" lon="-3.45501">
        <ele>3.98</ele>
        <time>2013-05-13T13:15:10Z</time>
      </trkpt>
      <trkpt lat="48.74682" lon="-3.45501">
        <ele>3.98</ele>
        <time>2013-05-13T13:15:27Z</time>
      </trkpt>
      <trkpt lat="48.74677" lon="-3.45498">
        <ele>4.46</ele>
        <time>2013-05-13T13:15:46Z</time>
      </trkpt>
      <trkpt lat="48.74674" lon="-3.45496">
        <ele>3.98</ele>
        <time>2013-05-13T13:16:04Z</time>
      </trkpt>
      <trkpt lat="48.74674" lon="-3.45497">
        <ele>2.54</ele>
        <time>2013-05-13T13:16:15Z</time>
      </trkpt>
      <trkpt lat="48.74665" lon="-3.45517">
        <ele>3.98</ele>
        <time>2013-05-13T13:16:23Z</time>
      </trkpt>
      <trkpt lat="48.74661" lon="-3.45515">
        <ele>5.91</ele>
        <time>2013-05-13T13:16:24Z</time>
      </trkpt>
      <trkpt lat="48.74657" lon="-3.45511">
        <ele>3.98</ele>
        <time>2013-05-13T13:16:25Z</time>
      </trkpt>
      <trkpt lat="48.74653" lon="-3.45507">
        <ele>3.98</ele>
        <time>2013-05-13T13:16:26Z</time>
      </trkpt>
      <trkpt lat="48.74618" lon="-3.45461">
        <ele>7.35</ele>
        <time>2013-05-13T13:16:35Z</time>
      </trkpt>
      <trkpt lat="48.74613" lon="-3.45458">
        <ele>8.31</ele>
        <time>2013-05-13T13:16:36Z</time>
      </trkpt>
      <trkpt lat="48.74607" lon="-3.4546">
        <ele>9.27</ele>
        <time>2013-05-13T13:16:37Z</time>
      </trkpt>
      <trkpt lat="48.74603" lon="-3.45465">
        <ele>10.71</ele>
        <time>2013-05-13T13:16:38Z</time>
      </trkpt>
      <trkpt lat="48.74599" lon="-3.45473">
        <ele>12.15</ele>
        <time>2013-05-13T13:16:39Z</time>
      </trkpt>
      <trkpt lat="48.74595" lon="-3.45482">
        <ele>12.63</ele>
        <time>2013-05-13T13:16:40Z</time>
      </trkpt>
      <trkpt lat="48.74588" lon="-3.45499">
        <ele>15.52</ele>
        <time>2013-05-13T13:16:44Z</time>
      </trkpt>
      <trkpt lat="48.74587" lon="-3.455">
        <ele>16.48</ele>
        <time>2013-05-13T13:16:45Z</time>
      </trkpt>
      <trkpt lat="48.74585" lon="-3.455">
        <ele>17.44</ele>
        <time>2013-05-13T13:16:46Z</time>
      </trkpt>
      <trkpt lat="48.74582" lon="-3.455">
        <ele>18.4</ele>
        <time>2013-05-13T13:16:47Z</time>
      </trkpt>
      <trkpt lat="48.74578" lon="-3.455">
        <ele>19.36</ele>
        <time>2013-05-13T13:16:48Z</time>
      </trkpt>
      <trkpt lat="48.74574" lon="-3.45497">
        <ele>20.32</ele>
        <time>2013-05-13T13:16:49Z</time>
      </trkpt>
      <trkpt lat="48.7457" lon="-3.45493">
        <ele>21.29</ele>
        <time>2013-05-13T13:16:50Z</time>
      </trkpt>
      <trkpt lat="48.74565" lon="-3.45486">
        <ele>21.77</ele>
        <time>2013-05-13T13:16:51Z</time>
      </trkpt>
      <trkpt lat="48.74561" lon="-3.45479">
        <ele>22.73</ele>
        <time>2013-05-13T13:16:52Z</time>
      </trkpt>
      <trkpt lat="48.74541" lon="-3.45444">
        <ele>24.65</ele>
        <time>2013-05-13T13:16:56Z</time>
      </trkpt>
      <trkpt lat="48.74526" lon="-3.45411">
        <ele>26.09</ele>
        <time>2013-05-13T13:16:59Z</time>
      </trkpt>
      <trkpt lat="48.74492" lon="-3.45361">
        <ele>29.46</ele>
        <time>2013-05-13T13:17:05Z</time>
      </trkpt>
      <trkpt lat="48.74483" lon="-3.4535">
        <ele>32.34</ele>
        <time>2013-05-13T13:17:07Z</time>
      </trkpt>
      <trkpt lat="48.74469" lon="-3.45332">
        <ele>36.19</ele>
        <time>2013-05-13T13:17:11Z</time>
      </trkpt>
      <trkpt lat="48.74462" lon="-3.45323">
        <ele>38.11</ele>
        <time>2013-05-13T13:17:13Z</time>
      </trkpt>
      <trkpt lat="48.74447" lon="-3.45305">
        <ele>41.47</ele>
        <time>2013-05-13T13:17:17Z</time>
      </trkpt>
      <trkpt lat="48.7444" lon="-3.45296">
        <ele>42.44</ele>
        <time>2013-05-13T13:17:19Z</time>
      </trkpt>
      <trkpt lat="48.74418" lon="-3.45276">
        <ele>45.8</ele>
        <time>2013-05-13T13:17:26Z</time>
      </trkpt>
      <trkpt lat="48.74412" lon="-3.45268">
        <ele>46.76</ele>
        <time>2013-05-13T13:17:28Z</time>
      </trkpt>
      <trkpt lat="48.74402" lon="-3.45256">
        <ele>50.13</ele>
        <time>2013-05-13T13:17:31Z</time>
      </trkpt>
      <trkpt lat="48.74398" lon="-3.45252">
        <ele>50.13</ele>
        <time>2013-05-13T13:17:32Z</time>
      </trkpt>
      <trkpt lat="48.74379" lon="-3.45236">
        <ele>53.49</ele>
        <time>2013-05-13T13:17:37Z</time>
      </trkpt>
      <trkpt lat="48.74374" lon="-3.45233">
        <ele>53.01</ele>
        <time>2013-05-13T13:17:38Z</time>
      </trkpt>
      <trkpt lat="48.74369" lon="-3.45231">
        <ele>53.49</ele>
        <time>2013-05-13T13:17:39Z</time>
      </trkpt>
      <trkpt lat="48.74301" lon="-3.4518">
        <ele>54.45</ele>
        <time>2013-05-13T13:17:51Z</time>
      </trkpt>
      <trkpt lat="48.74289" lon="-3.45162">
        <ele>53.97</ele>
        <time>2013-05-13T13:17:53Z</time>
      </trkpt>
      <trkpt lat="48.74284" lon="-3.45152">
        <ele>53.01</ele>
        <time>2013-05-13T13:17:54Z</time>
      </trkpt>
      <trkpt lat="48.74279" lon="-3.45141">
        <ele>52.53</ele>
        <time>2013-05-13T13:17:55Z</time>
      </trkpt>
      <trkpt lat="48.74275" lon="-3.45128">
        <ele>52.05</ele>
        <time>2013-05-13T13:17:56Z</time>
      </trkpt>
      <trkpt lat="48.74271" lon="-3.45115">
        <ele>52.53</ele>
        <time>2013-05-13T13:17:57Z</time>
      </trkpt>
      <trkpt lat="48.74268" lon="-3.45102">
        <ele>53.01</ele>
        <time>2013-05-13T13:17:58Z</time>
      </trkpt>
      <trkpt lat="48.74266" lon="-3.45087">
        <ele>52.53</ele>
        <time>2013-05-13T13:17:59Z</time>
      </trkpt>
      <trkpt lat="48.74264" lon="-3.45072">
        <ele>52.05</ele>
        <time>2013-05-13T13:18:00Z</time>
      </trkpt>
      <trkpt lat="48.74263" lon="-3.45057">
        <ele>51.09</ele>
        <time>2013-05-13T13:18:01Z</time>
      </trkpt>
      <trkpt lat="48.74263" lon="-3.45041">
        <ele>49.16</ele>
        <time>2013-05-13T13:18:02Z</time>
      </trkpt>
      <trkpt lat="48.74264" lon="-3.45024">
        <ele>49.16</ele>
        <time>2013-05-13T13:18:03Z</time>
      </trkpt>
      <trkpt lat="48.74268" lon="-3.44808">
        <ele>45.8</ele>
        <time>2013-05-13T13:18:15Z</time>
      </trkpt>
      <trkpt lat="48.74264" lon="-3.44688">
        <ele>42.44</ele>
        <time>2013-05-13T13:18:22Z</time>
      </trkpt>
      <trkpt lat="48.74257" lon="-3.4465">
        <ele>41.47</ele>
        <time>2013-05-13T13:18:25Z</time>
      </trkpt>
      <trkpt lat="48.74253" lon="-3.4464">
        <ele>40.51</ele>
        <time>2013-05-13T13:18:26Z</time>
      </trkpt>
      <trkpt lat="48.74248" lon="-3.4463">
        <ele>40.51</ele>
        <time>2013-05-13T13:18:27Z</time>
      </trkpt>
      <trkpt lat="48.74243" lon="-3.44622">
        <ele>40.99</ele>
        <time>2013-05-13T13:18:28Z</time>
      </trkpt>
      <trkpt lat="48.74238" lon="-3.44612">
        <ele>40.51</ele>
        <time>2013-05-13T13:18:29Z</time>
      </trkpt>
      <trkpt lat="48.74233" lon="-3.44603">
        <ele>40.03</ele>
        <time>2013-05-13T13:18:30Z</time>
      </trkpt>
      <trkpt lat="48.74226" lon="-3.44596">
        <ele>40.03</ele>
        <time>2013-05-13T13:18:31Z</time>
      </trkpt>
      <trkpt lat="48.74219" lon="-3.4459">
        <ele>40.03</ele>
        <time>2013-05-13T13:18:32Z</time>
      </trkpt>
      <trkpt lat="48.74211" lon="-3.44585">
        <ele>39.55</ele>
        <time>2013-05-13T13:18:33Z</time>
      </trkpt>
      <trkpt lat="48.74204" lon="-3.44581">
        <ele>39.07</ele>
        <time>2013-05-13T13:18:34Z</time>
      </trkpt>
      <trkpt lat="48.74196" lon="-3.44577">
        <ele>38.11</ele>
        <time>2013-05-13T13:18:35Z</time>
      </trkpt>
      <trkpt lat="48.74172" lon="-3.44566">
        <ele>36.67</ele>
        <time>2013-05-13T13:18:38Z</time>
      </trkpt>
      <trkpt lat="48.74104" lon="-3.44535">
        <ele>34.74</ele>
        <time>2013-05-13T13:18:46Z</time>
      </trkpt>
      <trkpt lat="48.73991" lon="-3.4449">
        <ele>32.34</ele>
        <time>2013-05-13T13:18:59Z</time>
      </trkpt>
      <trkpt lat="48.73986" lon="-3.44492">
        <ele>32.34</ele>
        <time>2013-05-13T13:19:00Z</time>
      </trkpt>
      <trkpt lat="48.73981" lon="-3.44496">
        <ele>31.86</ele>
        <time>2013-05-13T13:19:01Z</time>
      </trkpt>
      <trkpt lat="48.73975" lon="-3.44501">
        <ele>31.38</ele>
        <time>2013-05-13T13:19:02Z</time>
      </trkpt>
      <trkpt lat="48.7397" lon="-3.44504">
        <ele>30.9</ele>
        <time>2013-05-13T13:19:03Z</time>
      </trkpt>
      <trkpt lat="48.73963" lon="-3.44504">
        <ele>30.9</ele>
        <time>2013-05-13T13:19:04Z</time>
      </trkpt>
      <trkpt lat="48.73956" lon="-3.44501">
        <ele>30.9</ele>
        <time>2013-05-13T13:19:05Z</time>
      </trkpt>
      <trkpt lat="48.7395" lon="-3.44496">
        <ele>31.38</ele>
        <time>2013-05-13T13:19:06Z</time>
      </trkpt>
      <trkpt lat="48.73944" lon="-3.44491">
        <ele>31.38</ele>
        <time>2013-05-13T13:19:07Z</time>
      </trkpt>
      <trkpt lat="48.73939" lon="-3.44484">
        <ele>31.38</ele>
        <time>2013-05-13T13:19:08Z</time>
      </trkpt>
      <trkpt lat="48.73933" lon="-3.44479">
        <ele>31.38</ele>
        <time>2013-05-13T13:19:09Z</time>
      </trkpt>
      <trkpt lat="48.73926" lon="-3.44474">
        <ele>31.38</ele>
        <time>2013-05-13T13:19:10Z</time>
      </trkpt>
      <trkpt lat="48.73919" lon="-3.44471">
        <ele>31.86</ele>
        <time>2013-05-13T13:19:11Z</time>
      </trkpt>
      <trkpt lat="48.73912" lon="-3.44468">
        <ele>31.38</ele>
        <time>2013-05-13T13:19:12Z</time>
      </trkpt>
      <trkpt lat="48.73838" lon="-3.44442">
        <ele>28.5</ele>
        <time>2013-05-13T13:19:21Z</time>
      </trkpt>
      <trkpt lat="48.73829" lon="-3.44442">
        <ele>28.5</ele>
        <time>2013-05-13T13:19:22Z</time>
      </trkpt>
      <trkpt lat="48.7382" lon="-3.44443">
        <ele>28.02</ele>
        <time>2013-05-13T13:19:23Z</time>
      </trkpt>
      <trkpt lat="48.73811" lon="-3.44445">
        <ele>27.05</ele>
        <time>2013-05-13T13:19:24Z</time>
      </trkpt>
      <trkpt lat="48.73803" lon="-3.44448">
        <ele>26.57</ele>
        <time>2013-05-13T13:19:25Z</time>
      </trkpt>
      <trkpt lat="48.73794" lon="-3.44454">
        <ele>25.61</ele>
        <time>2013-05-13T13:19:26Z</time>
      </trkpt>
      <trkpt lat="48.73786" lon="-3.44462">
        <ele>25.13</ele>
        <time>2013-05-13T13:19:27Z</time>
      </trkpt>
      <trkpt lat="48.73778" lon="-3.4447">
        <ele>24.65</ele>
        <time>2013-05-13T13:19:28Z</time>
      </trkpt>
      <trkpt lat="48.7377" lon="-3.44478">
        <ele>24.65</ele>
        <time>2013-05-13T13:19:29Z</time>
      </trkpt>
      <trkpt lat="48.7376" lon="-3.44484">
        <ele>24.17</ele>
        <time>2013-05-13T13:19:30Z</time>
      </trkpt>
      <trkpt lat="48.7375" lon="-3.44488">
        <ele>23.69</ele>
        <time>2013-05-13T13:19:31Z</time>
      </trkpt>
      <trkpt lat="48.7374" lon="-3.4449">
        <ele>22.73</ele>
        <time>2013-05-13T13:19:32Z</time>
      </trkpt>
      <trkpt lat="48.7373" lon="-3.44489">
        <ele>22.25</ele>
        <time>2013-05-13T13:19:33Z</time>
      </trkpt>
      <trkpt lat="48.73721" lon="-3.44485">
        <ele>21.77</ele>
        <time>2013-05-13T13:19:34Z</time>
      </trkpt>
      <trkpt lat="48.73712" lon="-3.4448">
        <ele>20.81</ele>
        <time>2013-05-13T13:19:35Z</time>
      </trkpt>
      <trkpt lat="48.73703" lon="-3.44474">
        <ele>20.32</ele>
        <time>2013-05-13T13:19:36Z</time>
      </trkpt>
      <trkpt lat="48.73695" lon="-3.44468">
        <ele>20.32</ele>
        <time>2013-05-13T13:19:37Z</time>
      </trkpt>
      <trkpt lat="48.73658" lon="-3.44436">
        <ele>20.81</ele>
        <time>2013-05-13T13:19:42Z</time>
      </trkpt>
      <trkpt lat="48.73608" lon="-3.44409">
        <ele>23.21</ele>
        <time>2013-05-13T13:19:51Z</time>
      </trkpt>
      <trkpt lat="48.73558" lon="-3.44403">
        <ele>26.09</ele>
        <time>2013-05-13T13:20:01Z</time>
      </trkpt>
      <trkpt lat="48.73504" lon="-3.44414">
        <ele>29.46</ele>
        <time>2013-05-13T13:20:12Z</time>
      </trkpt>
      <trkpt lat="48.73482" lon="-3.44426">
        <ele>30.42</ele>
        <time>2013-05-13T13:20:17Z</time>
      </trkpt>
      <trkpt lat="48.73465" lon="-3.4444">
        <ele>31.86</ele>
        <time>2013-05-13T13:20:22Z</time>
      </trkpt>
      <trkpt lat="48.73462" lon="-3.44444">
        <ele>31.86</ele>
        <time>2013-05-13T13:20:23Z</time>
      </trkpt>
      <trkpt lat="48.73459" lon="-3.44449">
        <ele>31.86</ele>
        <time>2013-05-13T13:20:24Z</time>
      </trkpt>
      <trkpt lat="48.73458" lon="-3.44454">
        <ele>33.3</ele>
        <time>2013-05-13T13:20:25Z</time>
      </trkpt>
      <trkpt lat="48.73456" lon="-3.4446">
        <ele>32.34</ele>
        <time>2013-05-13T13:20:26Z</time>
      </trkpt>
      <trkpt lat="48.73454" lon="-3.44466">
        <ele>32.34</ele>
        <time>2013-05-13T13:20:27Z</time>
      </trkpt>
      <trkpt lat="48.73452" lon="-3.44472">
        <ele>32.34</ele>
        <time>2013-05-13T13:20:28Z</time>
      </trkpt>
      <trkpt lat="48.73449" lon="-3.44477">
        <ele>32.82</ele>
        <time>2013-05-13T13:20:29Z</time>
      </trkpt>
      <trkpt lat="48.73445" lon="-3.44482">
        <ele>32.82</ele>
        <time>2013-05-13T13:20:30Z</time>
      </trkpt>
      <trkpt lat="48.73441" lon="-3.44486">
        <ele>32.82</ele>
        <time>2013-05-13T13:20:31Z</time>
      </trkpt>
      <trkpt lat="48.73437" lon="-3.44488">
        <ele>33.3</ele>
        <time>2013-05-13T13:20:32Z</time>
      </trkpt>
      <trkpt lat="48.73432" lon="-3.4449">
        <ele>32.82</ele>
        <time>2013-05-13T13:20:33Z</time>
      </trkpt>
      <trkpt lat="48.73427" lon="-3.4449">
        <ele>33.3</ele>
        <time>2013-05-13T13:20:34Z</time>
      </trkpt>
      <trkpt lat="48.73422" lon="-3.4449">
        <ele>33.3</ele>
        <time>2013-05-13T13:20:35Z</time>
      </trkpt>
      <trkpt lat="48.73418" lon="-3.44491">
        <ele>33.78</ele>
        <time>2013-05-13T13:20:36Z</time>
      </trkpt>
      <trkpt lat="48.73413" lon="-3.44494">
        <ele>33.78</ele>
        <time>2013-05-13T13:20:37Z</time>
      </trkpt>
      <trkpt lat="48.73382" lon="-3.44515">
        <ele>34.74</ele>
        <time>2013-05-13T13:20:44Z</time>
      </trkpt>
      <trkpt lat="48.73377" lon="-3.44517">
        <ele>34.74</ele>
        <time>2013-05-13T13:20:45Z</time>
      </trkpt>
      <trkpt lat="48.73372" lon="-3.44519">
        <ele>34.74</ele>
        <time>2013-05-13T13:20:46Z</time>
      </trkpt>
      <trkpt lat="48.73357" lon="-3.44521">
        <ele>34.74</ele>
        <time>2013-05-13T13:20:49Z</time>
      </trkpt>
      <trkpt lat="48.73352" lon="-3.4452">
        <ele>34.74</ele>
        <time>2013-05-13T13:20:50Z</time>
      </trkpt>
      <trkpt lat="48.73347" lon="-3.44518">
        <ele>34.74</ele>
        <time>2013-05-13T13:20:51Z</time>
      </trkpt>
      <trkpt lat="48.73328" lon="-3.44508">
        <ele>35.23</ele>
        <time>2013-05-13T13:20:55Z</time>
      </trkpt>
      <trkpt lat="48.73307" lon="-3.44486">
        <ele>36.19</ele>
        <time>2013-05-13T13:21:00Z</time>
      </trkpt>
      <trkpt lat="48.73261" lon="-3.44417">
        <ele>37.63</ele>
        <time>2013-05-13T13:21:13Z</time>
      </trkpt>
      <trkpt lat="48.73257" lon="-3.44414">
        <ele>38.11</ele>
        <time>2013-05-13T13:21:14Z</time>
      </trkpt>
      <trkpt lat="48.73243" lon="-3.44403">
        <ele>39.55</ele>
        <time>2013-05-13T13:21:17Z</time>
      </trkpt>
      <trkpt lat="48.73212" lon="-3.44381">
        <ele>40.03</ele>
        <time>2013-05-13T13:21:24Z</time>
      </trkpt>
      <trkpt lat="48.73207" lon="-3.44381">
        <ele>40.03</ele>
        <time>2013-05-13T13:21:25Z</time>
      </trkpt>
      <trkpt lat="48.73193" lon="-3.44387">
        <ele>40.51</ele>
        <time>2013-05-13T13:21:28Z</time>
      </trkpt>
      <trkpt lat="48.73188" lon="-3.44391">
        <ele>40.99</ele>
        <time>2013-05-13T13:21:29Z</time>
      </trkpt>
      <trkpt lat="48.73185" lon="-3.44396">
        <ele>40.99</ele>
        <time>2013-05-13T13:21:30Z</time>
      </trkpt>
      <trkpt lat="48.73182" lon="-3.44402">
        <ele>40.99</ele>
        <time>2013-05-13T13:21:31Z</time>
      </trkpt>
      <trkpt lat="48.73179" lon="-3.44409">
        <ele>41.95</ele>
        <time>2013-05-13T13:21:32Z</time>
      </trkpt>
      <trkpt lat="48.73176" lon="-3.44416">
        <ele>42.44</ele>
        <time>2013-05-13T13:21:33Z</time>
      </trkpt>
      <trkpt lat="48.73174" lon="-3.44423">
        <ele>41.95</ele>
        <time>2013-05-13T13:21:34Z</time>
      </trkpt>
      <trkpt lat="48.73172" lon="-3.4443">
        <ele>43.4</ele>
        <time>2013-05-13T13:21:35Z</time>
      </trkpt>
      <trkpt lat="48.73161" lon="-3.44475">
        <ele>41.47</ele>
        <time>2013-05-13T13:21:41Z</time>
      </trkpt>
      <trkpt lat="48.73135" lon="-3.44598">
        <ele>41.95</ele>
        <time>2013-05-13T13:21:57Z</time>
      </trkpt>
      <trkpt lat="48.73119" lon="-3.44649">
        <ele>41.95</ele>
        <time>2013-05-13T13:22:04Z</time>
      </trkpt>
      <trkpt lat="48.73111" lon="-3.44679">
        <ele>42.44</ele>
        <time>2013-05-13T13:22:08Z</time>
      </trkpt>
      <trkpt lat="48.73104" lon="-3.44701">
        <ele>42.44</ele>
        <time>2013-05-13T13:22:11Z</time>
      </trkpt>
      <trkpt lat="48.73102" lon="-3.44708">
        <ele>42.92</ele>
        <time>2013-05-13T13:22:12Z</time>
      </trkpt>
      <trkpt lat="48.731" lon="-3.44723">
        <ele>42.44</ele>
        <time>2013-05-13T13:22:14Z</time>
      </trkpt>
      <trkpt lat="48.73098" lon="-3.4473">
        <ele>41.95</ele>
        <time>2013-05-13T13:22:15Z</time>
      </trkpt>
      <trkpt lat="48.73096" lon="-3.44738">
        <ele>41.95</ele>
        <time>2013-05-13T13:22:16Z</time>
      </trkpt>
      <trkpt lat="48.73086" lon="-3.44768">
        <ele>41.47</ele>
        <time>2013-05-13T13:22:20Z</time>
      </trkpt>
      <trkpt lat="48.73043" lon="-3.44902">
        <ele>39.55</ele>
        <time>2013-05-13T13:22:35Z</time>
      </trkpt>
      <trkpt lat="48.73027" lon="-3.44952">
        <ele>38.11</ele>
        <time>2013-05-13T13:22:40Z</time>
      </trkpt>
      <trkpt lat="48.72994" lon="-3.45058">
        <ele>35.23</ele>
        <time>2013-05-13T13:22:51Z</time>
      </trkpt>
      <trkpt lat="48.72959" lon="-3.45148">
        <ele>33.3</ele>
        <time>2013-05-13T13:23:02Z</time>
      </trkpt>
      <trkpt lat="48.72957" lon="-3.45161">
        <ele>33.3</ele>
        <time>2013-05-13T13:23:04Z</time>
      </trkpt>
      <trkpt lat="48.72954" lon="-3.45184">
        <ele>33.3</ele>
        <time>2013-05-13T13:23:07Z</time>
      </trkpt>
      <trkpt lat="48.72953" lon="-3.45207">
        <ele>33.78</ele>
        <time>2013-05-13T13:23:10Z</time>
      </trkpt>
      <trkpt lat="48.72925" lon="-3.45348">
        <ele>30.42</ele>
        <time>2013-05-13T13:23:26Z</time>
      </trkpt>
      <trkpt lat="48.72902" lon="-3.45451">
        <ele>26.09</ele>
        <time>2013-05-13T13:23:36Z</time>
      </trkpt>
      <trkpt lat="48.729" lon="-3.45459">
        <ele>25.13</ele>
        <time>2013-05-13T13:23:37Z</time>
      </trkpt>
      <trkpt lat="48.72895" lon="-3.45476">
        <ele>24.17</ele>
        <time>2013-05-13T13:23:39Z</time>
      </trkpt>
      <trkpt lat="48.72894" lon="-3.45484">
        <ele>24.17</ele>
        <time>2013-05-13T13:23:40Z</time>
      </trkpt>
      <trkpt lat="48.7289" lon="-3.45524">
        <ele>22.25</ele>
        <time>2013-05-13T13:23:44Z</time>
      </trkpt>
      <trkpt lat="48.72883" lon="-3.4556">
        <ele>20.81</ele>
        <time>2013-05-13T13:23:47Z</time>
      </trkpt>
      <trkpt lat="48.72882" lon="-3.45574">
        <ele>19.84</ele>
        <time>2013-05-13T13:23:48Z</time>
      </trkpt>
      <trkpt lat="48.72878" lon="-3.45615">
        <ele>16</ele>
        <time>2013-05-13T13:23:51Z</time>
      </trkpt>
      <trkpt lat="48.72873" lon="-3.4565">
        <ele>12.63</ele>
        <time>2013-05-13T13:23:54Z</time>
      </trkpt>
      <trkpt lat="48.7287" lon="-3.4566">
        <ele>11.19</ele>
        <time>2013-05-13T13:23:55Z</time>
      </trkpt>
      <trkpt lat="48.72866" lon="-3.45669">
        <ele>10.71</ele>
        <time>2013-05-13T13:23:56Z</time>
      </trkpt>
      <trkpt lat="48.72861" lon="-3.45675">
        <ele>9.75</ele>
        <time>2013-05-13T13:23:57Z</time>
      </trkpt>
      <trkpt lat="48.72854" lon="-3.45681">
        <ele>9.75</ele>
        <time>2013-05-13T13:23:58Z</time>
      </trkpt>
      <trkpt lat="48.72842" lon="-3.45693">
        <ele>9.27</ele>
        <time>2013-05-13T13:24:00Z</time>
      </trkpt>
      <trkpt lat="48.72824" lon="-3.45722">
        <ele>5.42</ele>
        <time>2013-05-13T13:24:04Z</time>
      </trkpt>
      <trkpt lat="48.7282" lon="-3.45729">
        <ele>5.42</ele>
        <time>2013-05-13T13:24:05Z</time>
      </trkpt>
      <trkpt lat="48.72818" lon="-3.45736">
        <ele>5.42</ele>
        <time>2013-05-13T13:24:06Z</time>
      </trkpt>
      <trkpt lat="48.72809" lon="-3.45762">
        <ele>3.5</ele>
        <time>2013-05-13T13:24:10Z</time>
      </trkpt>
      <trkpt lat="48.72808" lon="-3.45769">
        <ele>3.02</ele>
        <time>2013-05-13T13:24:11Z</time>
      </trkpt>
      <trkpt lat="48.72807" lon="-3.45777">
        <ele>3.02</ele>
        <time>2013-05-13T13:24:12Z</time>
      </trkpt>
      <trkpt lat="48.72805" lon="-3.45784">
        <ele>3.5</ele>
        <time>2013-05-13T13:24:13Z</time>
      </trkpt>
      <trkpt lat="48.72803" lon="-3.45791">
        <ele>3.98</ele>
        <time>2013-05-13T13:24:14Z</time>
      </trkpt>
      <trkpt lat="48.72772" lon="-3.45912">
        <ele>4.46</ele>
        <time>2013-05-13T13:24:29Z</time>
      </trkpt>
      <trkpt lat="48.7277" lon="-3.4592">
        <ele>4.46</ele>
        <time>2013-05-13T13:24:30Z</time>
      </trkpt>
      <trkpt lat="48.7277" lon="-3.45927">
        <ele>4.46</ele>
        <time>2013-05-13T13:24:31Z</time>
      </trkpt>
      <trkpt lat="48.7277" lon="-3.45935">
        <ele>4.46</ele>
        <time>2013-05-13T13:24:32Z</time>
      </trkpt>
      <trkpt lat="48.72772" lon="-3.45943">
        <ele>3.98</ele>
        <time>2013-05-13T13:24:33Z</time>
      </trkpt>
      <trkpt lat="48.72773" lon="-3.45958">
        <ele>3.98</ele>
        <time>2013-05-13T13:24:35Z</time>
      </trkpt>
      <trkpt lat="48.72775" lon="-3.45965">
        <ele>3.02</ele>
        <time>2013-05-13T13:24:36Z</time>
      </trkpt>
      <trkpt lat="48.72777" lon="-3.45972">
        <ele>2.54</ele>
        <time>2013-05-13T13:24:37Z</time>
      </trkpt>
      <trkpt lat="48.72778" lon="-3.45978">
        <ele>2.54</ele>
        <time>2013-05-13T13:24:38Z</time>
      </trkpt>
      <trkpt lat="48.72778" lon="-3.45984">
        <ele>3.02</ele>
        <time>2013-05-13T13:24:39Z</time>
      </trkpt>
      <trkpt lat="48.72774" lon="-3.45987">
        <ele>3.02</ele>
        <time>2013-05-13T13:24:40Z</time>
      </trkpt>
      <trkpt lat="48.7277" lon="-3.45987">
        <ele>3.02</ele>
        <time>2013-05-13T13:24:41Z</time>
      </trkpt>
      <trkpt lat="48.72765" lon="-3.45988">
        <ele>3.5</ele>
        <time>2013-05-13T13:24:42Z</time>
      </trkpt>
      <trkpt lat="48.7276" lon="-3.45988">
        <ele>3.98</ele>
        <time>2013-05-13T13:24:43Z</time>
      </trkpt>
      <trkpt lat="48.72686" lon="-3.46006">
        <ele>5.91</ele>
        <time>2013-05-13T13:24:58Z</time>
      </trkpt>
      <trkpt lat="48.72656" lon="-3.46008">
        <ele>5.91</ele>
        <time>2013-05-13T13:25:05Z</time>
      </trkpt>
      <trkpt lat="48.72652" lon="-3.46009">
        <ele>5.91</ele>
        <time>2013-05-13T13:25:06Z</time>
      </trkpt>
      <trkpt lat="48.72621" lon="-3.46015">
        <ele>7.83</ele>
        <time>2013-05-13T13:25:13Z</time>
      </trkpt>
      <trkpt lat="48.72616" lon="-3.46016">
        <ele>7.83</ele>
        <time>2013-05-13T13:25:14Z</time>
      </trkpt>
      <trkpt lat="48.72563" lon="-3.46031">
        <ele>9.75</ele>
        <time>2013-05-13T13:25:26Z</time>
      </trkpt>
      <trkpt lat="48.72514" lon="-3.46035">
        <ele>13.12</ele>
        <time>2013-05-13T13:25:37Z</time>
      </trkpt>
      <trkpt lat="48.72445" lon="-3.46012">
        <ele>16</ele>
        <time>2013-05-13T13:25:53Z</time>
      </trkpt>
      <trkpt lat="48.72437" lon="-3.46007">
        <ele>16</ele>
        <time>2013-05-13T13:25:55Z</time>
      </trkpt>
      <trkpt lat="48.72401" lon="-3.45994">
        <ele>17.92</ele>
        <time>2013-05-13T13:26:03Z</time>
      </trkpt>
      <trkpt lat="48.72367" lon="-3.45999">
        <ele>19.84</ele>
        <time>2013-05-13T13:26:11Z</time>
      </trkpt>
      <trkpt lat="48.72363" lon="-3.46">
        <ele>19.84</ele>
        <time>2013-05-13T13:26:12Z</time>
      </trkpt>
      <trkpt lat="48.7235" lon="-3.46004">
        <ele>20.32</ele>
        <time>2013-05-13T13:26:15Z</time>
      </trkpt>
      <trkpt lat="48.723" lon="-3.46011">
        <ele>24.65</ele>
        <time>2013-05-13T13:26:26Z</time>
      </trkpt>
      <trkpt lat="48.72296" lon="-3.4601">
        <ele>23.69</ele>
        <time>2013-05-13T13:26:27Z</time>
      </trkpt>
      <trkpt lat="48.72287" lon="-3.46008">
        <ele>22.73</ele>
        <time>2013-05-13T13:26:29Z</time>
      </trkpt>
      <trkpt lat="48.72216" lon="-3.45976">
        <ele>26.09</ele>
        <time>2013-05-13T13:26:45Z</time>
      </trkpt>
      <trkpt lat="48.72151" lon="-3.45954">
        <ele>28.02</ele>
        <time>2013-05-13T13:27:00Z</time>
      </trkpt>
      <trkpt lat="48.72147" lon="-3.45956">
        <ele>28.5</ele>
        <time>2013-05-13T13:27:01Z</time>
      </trkpt>
      <trkpt lat="48.72143" lon="-3.45958">
        <ele>28.5</ele>
        <time>2013-05-13T13:27:02Z</time>
      </trkpt>
      <trkpt lat="48.7213" lon="-3.45965">
        <ele>28.98</ele>
        <time>2013-05-13T13:27:05Z</time>
      </trkpt>
      <trkpt lat="48.72072" lon="-3.46009">
        <ele>32.34</ele>
        <time>2013-05-13T13:27:19Z</time>
      </trkpt>
      <trkpt lat="48.72064" lon="-3.46014">
        <ele>33.3</ele>
        <time>2013-05-13T13:27:21Z</time>
      </trkpt>
      <trkpt lat="48.72056" lon="-3.46018">
        <ele>33.3</ele>
        <time>2013-05-13T13:27:23Z</time>
      </trkpt>
      <trkpt lat="48.72027" lon="-3.46022">
        <ele>33.78</ele>
        <time>2013-05-13T13:27:29Z</time>
      </trkpt>
      <trkpt lat="48.72018" lon="-3.46021">
        <ele>34.26</ele>
        <time>2013-05-13T13:27:31Z</time>
      </trkpt>
      <trkpt lat="48.72013" lon="-3.46019">
        <ele>34.26</ele>
        <time>2013-05-13T13:27:32Z</time>
      </trkpt>
      <trkpt lat="48.71995" lon="-3.46011">
        <ele>34.74</ele>
        <time>2013-05-13T13:27:36Z</time>
      </trkpt>
      <trkpt lat="48.71975" lon="-3.45993">
        <ele>35.71</ele>
        <time>2013-05-13T13:27:41Z</time>
      </trkpt>
      <trkpt lat="48.71971" lon="-3.45988">
        <ele>36.19</ele>
        <time>2013-05-13T13:27:42Z</time>
      </trkpt>
      <trkpt lat="48.71968" lon="-3.45983">
        <ele>35.71</ele>
        <time>2013-05-13T13:27:43Z</time>
      </trkpt>
      <trkpt lat="48.7194" lon="-3.45903">
        <ele>38.59</ele>
        <time>2013-05-13T13:27:56Z</time>
      </trkpt>
      <trkpt lat="48.71924" lon="-3.45836">
        <ele>40.03</ele>
        <time>2013-05-13T13:28:06Z</time>
      </trkpt>
      <trkpt lat="48.71912" lon="-3.45815">
        <ele>40.99</ele>
        <time>2013-05-13T13:28:10Z</time>
      </trkpt>
      <trkpt lat="48.71853" lon="-3.45755">
        <ele>43.88</ele>
        <time>2013-05-13T13:28:25Z</time>
      </trkpt>
      <trkpt lat="48.7181" lon="-3.45712">
        <ele>46.28</ele>
        <time>2013-05-13T13:28:36Z</time>
      </trkpt>
      <trkpt lat="48.71752" lon="-3.45655">
        <ele>49.65</ele>
        <time>2013-05-13T13:28:51Z</time>
      </trkpt>
      <trkpt lat="48.7171" lon="-3.4561">
        <ele>51.09</ele>
        <time>2013-05-13T13:29:02Z</time>
      </trkpt>
      <trkpt lat="48.71668" lon="-3.45515">
        <ele>53.97</ele>
        <time>2013-05-13T13:29:18Z</time>
      </trkpt>
      <trkpt lat="48.71654" lon="-3.45477">
        <ele>54.93</ele>
        <time>2013-05-13T13:29:24Z</time>
      </trkpt>
      <trkpt lat="48.7165" lon="-3.45465">
        <ele>54.93</ele>
        <time>2013-05-13T13:29:26Z</time>
      </trkpt>
      <trkpt lat="48.71648" lon="-3.45459">
        <ele>55.41</ele>
        <time>2013-05-13T13:29:27Z</time>
      </trkpt>
      <trkpt lat="48.71613" lon="-3.45371">
        <ele>56.86</ele>
        <time>2013-05-13T13:29:41Z</time>
      </trkpt>
      <trkpt lat="48.7161" lon="-3.45365">
        <ele>57.34</ele>
        <time>2013-05-13T13:29:42Z</time>
      </trkpt>
      <trkpt lat="48.71607" lon="-3.45359">
        <ele>57.34</ele>
        <time>2013-05-13T13:29:43Z</time>
      </trkpt>
      <trkpt lat="48.71605" lon="-3.45353">
        <ele>57.82</ele>
        <time>2013-05-13T13:29:44Z</time>
      </trkpt>
      <trkpt lat="48.71602" lon="-3.45347">
        <ele>57.82</ele>
        <time>2013-05-13T13:29:45Z</time>
      </trkpt>
      <trkpt lat="48.7157" lon="-3.45266">
        <ele>59.74</ele>
        <time>2013-05-13T13:29:58Z</time>
      </trkpt>
      <trkpt lat="48.71567" lon="-3.4526">
        <ele>60.22</ele>
        <time>2013-05-13T13:29:59Z</time>
      </trkpt>
      <trkpt lat="48.71563" lon="-3.45256">
        <ele>60.22</ele>
        <time>2013-05-13T13:30:00Z</time>
      </trkpt>
      <trkpt lat="48.7156" lon="-3.45252">
        <ele>60.22</ele>
        <time>2013-05-13T13:30:01Z</time>
      </trkpt>
      <trkpt lat="48.71556" lon="-3.45247">
        <ele>60.7</ele>
        <time>2013-05-13T13:30:02Z</time>
      </trkpt>
      <trkpt lat="48.71552" lon="-3.45243">
        <ele>60.22</ele>
        <time>2013-05-13T13:30:03Z</time>
      </trkpt>
      <trkpt lat="48.7149" lon="-3.45192">
        <ele>61.18</ele>
        <time>2013-05-13T13:30:17Z</time>
      </trkpt>
      <trkpt lat="48.714" lon="-3.45131">
        <ele>61.18</ele>
        <time>2013-05-13T13:30:34Z</time>
      </trkpt>
      <trkpt lat="48.71305" lon="-3.45076">
        <ele>61.66</ele>
        <time>2013-05-13T13:30:51Z</time>
      </trkpt>
      <trkpt lat="48.71209" lon="-3.4503">
        <ele>62.62</ele>
        <time>2013-05-13T13:31:08Z</time>
      </trkpt>
      <trkpt lat="48.71119" lon="-3.44999">
        <ele>64.07</ele>
        <time>2013-05-13T13:31:24Z</time>
      </trkpt>
      <trkpt lat="48.71037" lon="-3.44998">
        <ele>64.55</ele>
        <time>2013-05-13T13:31:39Z</time>
      </trkpt>
      <trkpt lat="48.71031" lon="-3.44996">
        <ele>64.55</ele>
        <time>2013-05-13T13:31:40Z</time>
      </trkpt>
      <trkpt lat="48.71025" lon="-3.44996">
        <ele>64.55</ele>
        <time>2013-05-13T13:31:41Z</time>
      </trkpt>
      <trkpt lat="48.70998" lon="-3.44989">
        <ele>65.03</ele>
        <time>2013-05-13T13:31:46Z</time>
      </trkpt>
      <trkpt lat="48.70913" lon="-3.44926">
        <ele>65.51</ele>
        <time>2013-05-13T13:32:03Z</time>
      </trkpt>
      <trkpt lat="48.70903" lon="-3.44917">
        <ele>65.03</ele>
        <time>2013-05-13T13:32:05Z</time>
      </trkpt>
      <trkpt lat="48.70816" lon="-3.44857">
        <ele>66.95</ele>
        <time>2013-05-13T13:32:22Z</time>
      </trkpt>
      <trkpt lat="48.70747" lon="-3.4482">
        <ele>70.31</ele>
        <time>2013-05-13T13:32:36Z</time>
      </trkpt>
      <trkpt lat="48.70714" lon="-3.44809">
        <ele>72.72</ele>
        <time>2013-05-13T13:32:43Z</time>
      </trkpt>
      <trkpt lat="48.70688" lon="-3.44802">
        <ele>74.64</ele>
        <time>2013-05-13T13:32:48Z</time>
      </trkpt>
      <trkpt lat="48.70679" lon="-3.44802">
        <ele>78</ele>
        <time>2013-05-13T13:32:50Z</time>
      </trkpt>
      <trkpt lat="48.70674" lon="-3.44801">
        <ele>77.52</ele>
        <time>2013-05-13T13:32:51Z</time>
      </trkpt>
      <trkpt lat="48.70637" lon="-3.44804">
        <ele>78.97</ele>
        <time>2013-05-13T13:32:59Z</time>
      </trkpt>
      <trkpt lat="48.70633" lon="-3.44804">
        <ele>79.45</ele>
        <time>2013-05-13T13:33:00Z</time>
      </trkpt>
      <trkpt lat="48.70628" lon="-3.44804">
        <ele>79.93</ele>
        <time>2013-05-13T13:33:01Z</time>
      </trkpt>
      <trkpt lat="48.70595" lon="-3.44812">
        <ele>79.93</ele>
        <time>2013-05-13T13:33:08Z</time>
      </trkpt>
      <trkpt lat="48.70591" lon="-3.44814">
        <ele>80.41</ele>
        <time>2013-05-13T13:33:09Z</time>
      </trkpt>
      <trkpt lat="48.70581" lon="-3.44818">
        <ele>80.89</ele>
        <time>2013-05-13T13:33:11Z</time>
      </trkpt>
      <trkpt lat="48.70567" lon="-3.44821">
        <ele>82.33</ele>
        <time>2013-05-13T13:33:14Z</time>
      </trkpt>
      <trkpt lat="48.70557" lon="-3.44821">
        <ele>80.89</ele>
        <time>2013-05-13T13:33:16Z</time>
      </trkpt>
      <trkpt lat="48.7052" lon="-3.44817">
        <ele>81.37</ele>
        <time>2013-05-13T13:33:23Z</time>
      </trkpt>
      <trkpt lat="48.70509" lon="-3.44813">
        <ele>81.37</ele>
        <time>2013-05-13T13:33:25Z</time>
      </trkpt>
      <trkpt lat="48.70497" lon="-3.44813">
        <ele>80.89</ele>
        <time>2013-05-13T13:33:27Z</time>
      </trkpt>
      <trkpt lat="48.70491" lon="-3.44814">
        <ele>81.37</ele>
        <time>2013-05-13T13:33:28Z</time>
      </trkpt>
      <trkpt lat="48.70407" lon="-3.44846">
        <ele>81.37</ele>
        <time>2013-05-13T13:33:43Z</time>
      </trkpt>
      <trkpt lat="48.70395" lon="-3.44848">
        <ele>81.37</ele>
        <time>2013-05-13T13:33:45Z</time>
      </trkpt>
      <trkpt lat="48.70376" lon="-3.44848">
        <ele>81.37</ele>
        <time>2013-05-13T13:33:48Z</time>
      </trkpt>
      <trkpt lat="48.70313" lon="-3.44823">
        <ele>79.93</ele>
        <time>2013-05-13T13:33:59Z</time>
      </trkpt>
      <trkpt lat="48.70307" lon="-3.44821">
        <ele>80.41</ele>
        <time>2013-05-13T13:34:00Z</time>
      </trkpt>
      <trkpt lat="48.703" lon="-3.44821">
        <ele>80.41</ele>
        <time>2013-05-13T13:34:01Z</time>
      </trkpt>
      <trkpt lat="48.70206" lon="-3.44815">
        <ele>81.37</ele>
        <time>2013-05-13T13:34:16Z</time>
      </trkpt>
      <trkpt lat="48.70122" lon="-3.44811">
        <ele>79.93</ele>
        <time>2013-05-13T13:34:30Z</time>
      </trkpt>
      <trkpt lat="48.70026" lon="-3.44793">
        <ele>80.89</ele>
        <time>2013-05-13T13:34:46Z</time>
      </trkpt>
      <trkpt lat="48.69943" lon="-3.44783">
        <ele>82.81</ele>
        <time>2013-05-13T13:35:01Z</time>
      </trkpt>
      <trkpt lat="48.69862" lon="-3.44763">
        <ele>83.29</ele>
        <time>2013-05-13T13:35:16Z</time>
      </trkpt>
      <trkpt lat="48.69769" lon="-3.4474">
        <ele>85.21</ele>
        <time>2013-05-13T13:35:33Z</time>
      </trkpt>
      <trkpt lat="48.69742" lon="-3.4473">
        <ele>85.69</ele>
        <time>2013-05-13T13:35:38Z</time>
      </trkpt>
      <trkpt lat="48.69654" lon="-3.44679">
        <ele>87.14</ele>
        <time>2013-05-13T13:35:55Z</time>
      </trkpt>
      <trkpt lat="48.69567" lon="-3.44624">
        <ele>89.54</ele>
        <time>2013-05-13T13:36:12Z</time>
      </trkpt>
      <trkpt lat="48.69496" lon="-3.44564">
        <ele>92.9</ele>
        <time>2013-05-13T13:36:27Z</time>
      </trkpt>
      <trkpt lat="48.69427" lon="-3.44522">
        <ele>95.79</ele>
        <time>2013-05-13T13:36:41Z</time>
      </trkpt>
      <trkpt lat="48.69422" lon="-3.4452">
        <ele>96.75</ele>
        <time>2013-05-13T13:36:42Z</time>
      </trkpt>
      <trkpt lat="48.69328" lon="-3.4448">
        <ele>95.79</ele>
        <time>2013-05-13T13:36:58Z</time>
      </trkpt>
      <trkpt lat="48.69228" lon="-3.44488">
        <ele>94.83</ele>
        <time>2013-05-13T13:37:12Z</time>
      </trkpt>
      <trkpt lat="48.69143" lon="-3.44516">
        <ele>95.31</ele>
        <time>2013-05-13T13:37:25Z</time>
      </trkpt>
      <trkpt lat="48.69118" lon="-3.44524">
        <ele>94.35</ele>
        <time>2013-05-13T13:37:29Z</time>
      </trkpt>
      <trkpt lat="48.69007" lon="-3.44551">
        <ele>93.87</ele>
        <time>2013-05-13T13:37:45Z</time>
      </trkpt>
      <trkpt lat="48.68907" lon="-3.44569">
        <ele>90.98</ele>
        <time>2013-05-13T13:37:58Z</time>
      </trkpt>
      <trkpt lat="48.68784" lon="-3.44589">
        <ele>90.02</ele>
        <time>2013-05-13T13:38:15Z</time>
      </trkpt>
      <trkpt lat="48.68651" lon="-3.44563">
        <ele>90.02</ele>
        <time>2013-05-13T13:38:34Z</time>
      </trkpt>
      <trkpt lat="48.6853" lon="-3.44523">
        <ele>91.46</ele>
        <time>2013-05-13T13:38:52Z</time>
      </trkpt>
      <trkpt lat="48.68393" lon="-3.44506">
        <ele>91.94</ele>
        <time>2013-05-13T13:39:12Z</time>
      </trkpt>
      <trkpt lat="48.68269" lon="-3.44471">
        <ele>90.98</ele>
        <time>2013-05-13T13:39:30Z</time>
      </trkpt>
      <trkpt lat="48.68142" lon="-3.44434">
        <ele>92.42</ele>
        <time>2013-05-13T13:39:49Z</time>
      </trkpt>
      <trkpt lat="48.68013" lon="-3.44396">
        <ele>92.9</ele>
        <time>2013-05-13T13:40:09Z</time>
      </trkpt>
      <trkpt lat="48.67929" lon="-3.44376">
        <ele>95.79</ele>
        <time>2013-05-13T13:40:23Z</time>
      </trkpt>
      <trkpt lat="48.6783" lon="-3.44392">
        <ele>94.83</ele>
        <time>2013-05-13T13:40:39Z</time>
      </trkpt>
      <trkpt lat="48.6772" lon="-3.4446">
        <ele>96.27</ele>
        <time>2013-05-13T13:40:58Z</time>
      </trkpt>
      <trkpt lat="48.67606" lon="-3.44507">
        <ele>96.75</ele>
        <time>2013-05-13T13:41:17Z</time>
      </trkpt>
      <trkpt lat="48.67481" lon="-3.4451">
        <ele>95.79</ele>
        <time>2013-05-13T13:41:36Z</time>
      </trkpt>
      <trkpt lat="48.67355" lon="-3.4448">
        <ele>95.31</ele>
        <time>2013-05-13T13:41:55Z</time>
      </trkpt>
      <trkpt lat="48.67242" lon="-3.44448">
        <ele>96.27</ele>
        <time>2013-05-13T13:42:12Z</time>
      </trkpt>
      <trkpt lat="48.67131" lon="-3.44441">
        <ele>95.31</ele>
        <time>2013-05-13T13:42:28Z</time>
      </trkpt>
      <trkpt lat="48.67011" lon="-3.44468">
        <ele>95.31</ele>
        <time>2013-05-13T13:42:47Z</time>
      </trkpt>
      <trkpt lat="48.66892" lon="-3.44475">
        <ele>97.23</ele>
        <time>2013-05-13T13:43:06Z</time>
      </trkpt>
      <trkpt lat="48.66761" lon="-3.44461">
        <ele>98.67</ele>
        <time>2013-05-13T13:43:27Z</time>
      </trkpt>
      <trkpt lat="48.6663" lon="-3.44448">
        <ele>100.11</ele>
        <time>2013-05-13T13:43:48Z</time>
      </trkpt>
      <trkpt lat="48.66529" lon="-3.44448">
        <ele>100.6</ele>
        <time>2013-05-13T13:44:04Z</time>
      </trkpt>
      <trkpt lat="48.66411" lon="-3.44454">
        <ele>100.11</ele>
        <time>2013-05-13T13:44:23Z</time>
      </trkpt>
      <trkpt lat="48.6632" lon="-3.4444">
        <ele>99.15</ele>
        <time>2013-05-13T13:44:37Z</time>
      </trkpt>
      <trkpt lat="48.6618" lon="-3.44405">
        <ele>97.23</ele>
        <time>2013-05-13T13:44:56Z</time>
      </trkpt>
      <trkpt lat="48.66064" lon="-3.44376">
        <ele>96.27</ele>
        <time>2013-05-13T13:45:12Z</time>
      </trkpt>
      <trkpt lat="48.65964" lon="-3.44355">
        <ele>95.79</ele>
        <time>2013-05-13T13:45:27Z</time>
      </trkpt>
      <trkpt lat="48.65861" lon="-3.44355">
        <ele>97.71</ele>
        <time>2013-05-13T13:45:44Z</time>
      </trkpt>
      <trkpt lat="48.65811" lon="-3.44365">
        <ele>99.63</ele>
        <time>2013-05-13T13:45:52Z</time>
      </trkpt>
      <trkpt lat="48.65709" lon="-3.44401">
        <ele>101.56</ele>
        <time>2013-05-13T13:46:09Z</time>
      </trkpt>
      <trkpt lat="48.65603" lon="-3.44445">
        <ele>103.96</ele>
        <time>2013-05-13T13:46:27Z</time>
      </trkpt>
      <trkpt lat="48.65587" lon="-3.44454">
        <ele>104.44</ele>
        <time>2013-05-13T13:46:30Z</time>
      </trkpt>
      <trkpt lat="48.65583" lon="-3.44461">
        <ele>104.92</ele>
        <time>2013-05-13T13:46:31Z</time>
      </trkpt>
      <trkpt lat="48.65581" lon="-3.44469">
        <ele>104.92</ele>
        <time>2013-05-13T13:46:32Z</time>
      </trkpt>
      <trkpt lat="48.65581" lon="-3.44479">
        <ele>105.4</ele>
        <time>2013-05-13T13:46:33Z</time>
      </trkpt>
      <trkpt lat="48.65582" lon="-3.44488">
        <ele>105.88</ele>
        <time>2013-05-13T13:46:34Z</time>
      </trkpt>
      <trkpt lat="48.65586" lon="-3.44496">
        <ele>105.88</ele>
        <time>2013-05-13T13:46:35Z</time>
      </trkpt>
      <trkpt lat="48.6559" lon="-3.44503">
        <ele>105.88</ele>
        <time>2013-05-13T13:46:36Z</time>
      </trkpt>
      <trkpt lat="48.65596" lon="-3.44506">
        <ele>105.4</ele>
        <time>2013-05-13T13:46:37Z</time>
      </trkpt>
      <trkpt lat="48.65602" lon="-3.44507">
        <ele>104.92</ele>
        <time>2013-05-13T13:46:38Z</time>
      </trkpt>
      <trkpt lat="48.65609" lon="-3.44505">
        <ele>104.92</ele>
        <time>2013-05-13T13:46:39Z</time>
      </trkpt>
      <trkpt lat="48.65615" lon="-3.44503">
        <ele>105.4</ele>
        <time>2013-05-13T13:46:40Z</time>
      </trkpt>
      <trkpt lat="48.65717" lon="-3.4449">
        <ele>102.52</ele>
        <time>2013-05-13T13:46:56Z</time>
      </trkpt>
      <trkpt lat="48.65844" lon="-3.44485">
        <ele>101.08</ele>
        <time>2013-05-13T13:47:15Z</time>
      </trkpt>
      <trkpt lat="48.65926" lon="-3.44499">
        <ele>101.08</ele>
        <time>2013-05-13T13:47:28Z</time>
      </trkpt>
      <trkpt lat="48.65931" lon="-3.44503">
        <ele>101.56</ele>
        <time>2013-05-13T13:47:29Z</time>
      </trkpt>
      <trkpt lat="48.65934" lon="-3.44509">
        <ele>101.08</ele>
        <time>2013-05-13T13:47:30Z</time>
      </trkpt>
      <trkpt lat="48.65935" lon="-3.44517">
        <ele>100.6</ele>
        <time>2013-05-13T13:47:31Z</time>
      </trkpt>
      <trkpt lat="48.65935" lon="-3.44526">
        <ele>100.6</ele>
        <time>2013-05-13T13:47:32Z</time>
      </trkpt>
      <trkpt lat="48.65935" lon="-3.44535">
        <ele>100.6</ele>
        <time>2013-05-13T13:47:33Z</time>
      </trkpt>
      <trkpt lat="48.65931" lon="-3.44632">
        <ele>101.08</ele>
        <time>2013-05-13T13:47:44Z</time>
      </trkpt>
      <trkpt lat="48.65937" lon="-3.44776">
        <ele>99.15</ele>
        <time>2013-05-13T13:47:59Z</time>
      </trkpt>
      <trkpt lat="48.65936" lon="-3.44906">
        <ele>97.23</ele>
        <time>2013-05-13T13:48:10Z</time>
      </trkpt>
      <trkpt lat="48.6593" lon="-3.44998">
        <ele>94.83</ele>
        <time>2013-05-13T13:48:18Z</time>
      </trkpt>
      <trkpt lat="48.65931" lon="-3.45009">
        <ele>94.83</ele>
        <time>2013-05-13T13:48:19Z</time>
      </trkpt>
      <trkpt lat="48.65932" lon="-3.4502">
        <ele>94.35</ele>
        <time>2013-05-13T13:48:20Z</time>
      </trkpt>
      <trkpt lat="48.65933" lon="-3.4503">
        <ele>94.35</ele>
        <time>2013-05-13T13:48:21Z</time>
      </trkpt>
      <trkpt lat="48.65936" lon="-3.4504">
        <ele>94.83</ele>
        <time>2013-05-13T13:48:22Z</time>
      </trkpt>
      <trkpt lat="48.65939" lon="-3.4505">
        <ele>95.31</ele>
        <time>2013-05-13T13:48:23Z</time>
      </trkpt>
      <trkpt lat="48.65943" lon="-3.45058">
        <ele>94.83</ele>
        <time>2013-05-13T13:48:24Z</time>
      </trkpt>
      <trkpt lat="48.65947" lon="-3.45064">
        <ele>94.83</ele>
        <time>2013-05-13T13:48:25Z</time>
      </trkpt>
      <trkpt lat="48.65952" lon="-3.4507">
        <ele>95.31</ele>
        <time>2013-05-13T13:48:26Z</time>
      </trkpt>
      <trkpt lat="48.65957" lon="-3.45074">
        <ele>95.31</ele>
        <time>2013-05-13T13:48:27Z</time>
      </trkpt>
      <trkpt lat="48.65962" lon="-3.45079">
        <ele>95.31</ele>
        <time>2013-05-13T13:48:28Z</time>
      </trkpt>
      <trkpt lat="48.66029" lon="-3.45117">
        <ele>94.83</ele>
        <time>2013-05-13T13:48:40Z</time>
      </trkpt>
      <trkpt lat="48.66078" lon="-3.4515">
        <ele>94.83</ele>
        <time>2013-05-13T13:48:49Z</time>
      </trkpt>
      <trkpt lat="48.66135" lon="-3.4522">
        <ele>95.79</ele>
        <time>2013-05-13T13:49:01Z</time>
      </trkpt>
      <trkpt lat="48.66142" lon="-3.45233">
        <ele>96.27</ele>
        <time>2013-05-13T13:49:03Z</time>
      </trkpt>
      <trkpt lat="48.66145" lon="-3.45241">
        <ele>95.79</ele>
        <time>2013-05-13T13:49:04Z</time>
      </trkpt>
      <trkpt lat="48.66148" lon="-3.45249">
        <ele>95.79</ele>
        <time>2013-05-13T13:49:05Z</time>
      </trkpt>
      <trkpt lat="48.66149" lon="-3.45257">
        <ele>95.79</ele>
        <time>2013-05-13T13:49:06Z</time>
      </trkpt>
      <trkpt lat="48.6615" lon="-3.45266">
        <ele>96.27</ele>
        <time>2013-05-13T13:49:07Z</time>
      </trkpt>
      <trkpt lat="48.6615" lon="-3.45274">
        <ele>96.75</ele>
        <time>2013-05-13T13:49:08Z</time>
      </trkpt>
      <trkpt lat="48.6615" lon="-3.45282">
        <ele>97.23</ele>
        <time>2013-05-13T13:49:09Z</time>
      </trkpt>
      <trkpt lat="48.66148" lon="-3.4529">
        <ele>96.75</ele>
        <time>2013-05-13T13:49:10Z</time>
      </trkpt>
      <trkpt lat="48.66147" lon="-3.45297">
        <ele>97.23</ele>
        <time>2013-05-13T13:49:11Z</time>
      </trkpt>
      <trkpt lat="48.66145" lon="-3.45304">
        <ele>97.23</ele>
        <time>2013-05-13T13:49:12Z</time>
      </trkpt>
      <trkpt lat="48.66143" lon="-3.45312">
        <ele>97.23</ele>
        <time>2013-05-13T13:49:13Z</time>
      </trkpt>
      <trkpt lat="48.66109" lon="-3.45414">
        <ele>99.63</ele>
        <time>2013-05-13T13:49:27Z</time>
      </trkpt>
      <trkpt lat="48.66081" lon="-3.45491">
        <ele>101.08</ele>
        <time>2013-05-13T13:49:38Z</time>
      </trkpt>
      <trkpt lat="48.66015" lon="-3.45558">
        <ele>101.08</ele>
        <time>2013-05-13T13:49:52Z</time>
      </trkpt>
      <trkpt lat="48.65966" lon="-3.4565">
        <ele>102.04</ele>
        <time>2013-05-13T13:50:06Z</time>
      </trkpt>
      <trkpt lat="48.65917" lon="-3.45774">
        <ele>102.04</ele>
        <time>2013-05-13T13:50:23Z</time>
      </trkpt>
      <trkpt lat="48.65914" lon="-3.4579">
        <ele>102.04</ele>
        <time>2013-05-13T13:50:25Z</time>
      </trkpt>
      <trkpt lat="48.65913" lon="-3.45799">
        <ele>101.56</ele>
        <time>2013-05-13T13:50:26Z</time>
      </trkpt>
      <trkpt lat="48.65912" lon="-3.45807">
        <ele>101.56</ele>
        <time>2013-05-13T13:50:27Z</time>
      </trkpt>
      <trkpt lat="48.6592" lon="-3.45943">
        <ele>100.6</ele>
        <time>2013-05-13T13:50:43Z</time>
      </trkpt>
      <trkpt lat="48.65926" lon="-3.4597">
        <ele>100.11</ele>
        <time>2013-05-13T13:50:46Z</time>
      </trkpt>
      <trkpt lat="48.65931" lon="-3.45986">
        <ele>100.11</ele>
        <time>2013-05-13T13:50:48Z</time>
      </trkpt>
      <trkpt lat="48.65992" lon="-3.46093">
        <ele>97.71</ele>
        <time>2013-05-13T13:51:03Z</time>
      </trkpt>
      <trkpt lat="48.66064" lon="-3.46195">
        <ele>100.11</ele>
        <time>2013-05-13T13:51:20Z</time>
      </trkpt>
      <trkpt lat="48.66106" lon="-3.46301">
        <ele>101.08</ele>
        <time>2013-05-13T13:51:35Z</time>
      </trkpt>
      <trkpt lat="48.66139" lon="-3.46393">
        <ele>102.52</ele>
        <time>2013-05-13T13:51:48Z</time>
      </trkpt>
      <trkpt lat="48.66141" lon="-3.46401">
        <ele>102.04</ele>
        <time>2013-05-13T13:51:49Z</time>
      </trkpt>
      <trkpt lat="48.66147" lon="-3.46432">
        <ele>103</ele>
        <time>2013-05-13T13:51:53Z</time>
      </trkpt>
      <trkpt lat="48.66149" lon="-3.4644">
        <ele>102.52</ele>
        <time>2013-05-13T13:51:54Z</time>
      </trkpt>
      <trkpt lat="48.6615" lon="-3.46447">
        <ele>103</ele>
        <time>2013-05-13T13:51:55Z</time>
      </trkpt>
      <trkpt lat="48.66155" lon="-3.46571">
        <ele>103.48</ele>
        <time>2013-05-13T13:52:10Z</time>
      </trkpt>
      <trkpt lat="48.6616" lon="-3.467">
        <ele>103.96</ele>
        <time>2013-05-13T13:52:25Z</time>
      </trkpt>
      <trkpt lat="48.66163" lon="-3.46775">
        <ele>105.88</ele>
        <time>2013-05-13T13:52:34Z</time>
      </trkpt>
      <trkpt lat="48.66164" lon="-3.46792">
        <ele>105.88</ele>
        <time>2013-05-13T13:52:36Z</time>
      </trkpt>
      <trkpt lat="48.66167" lon="-3.46883">
        <ele>106.36</ele>
        <time>2013-05-13T13:52:47Z</time>
      </trkpt>
      <trkpt lat="48.66165" lon="-3.47015">
        <ele>108.77</ele>
        <time>2013-05-13T13:53:03Z</time>
      </trkpt>
      <trkpt lat="48.66162" lon="-3.47176">
        <ele>105.88</ele>
        <time>2013-05-13T13:53:21Z</time>
      </trkpt>
      <trkpt lat="48.6616" lon="-3.47261">
        <ele>103.96</ele>
        <time>2013-05-13T13:53:29Z</time>
      </trkpt>
      <trkpt lat="48.6616" lon="-3.47328">
        <ele>102.04</ele>
        <time>2013-05-13T13:53:35Z</time>
      </trkpt>
      <trkpt lat="48.66172" lon="-3.47383">
        <ele>100.6</ele>
        <time>2013-05-13T13:53:40Z</time>
      </trkpt>
      <trkpt lat="48.66184" lon="-3.47414">
        <ele>99.15</ele>
        <time>2013-05-13T13:53:43Z</time>
      </trkpt>
      <trkpt lat="48.66238" lon="-3.47517">
        <ele>95.31</ele>
        <time>2013-05-13T13:53:53Z</time>
      </trkpt>
      <trkpt lat="48.66253" lon="-3.47544">
        <ele>93.87</ele>
        <time>2013-05-13T13:53:56Z</time>
      </trkpt>
      <trkpt lat="48.66279" lon="-3.47614">
        <ele>94.83</ele>
        <time>2013-05-13T13:54:05Z</time>
      </trkpt>
      <trkpt lat="48.66292" lon="-3.47698">
        <ele>97.71</ele>
        <time>2013-05-13T13:54:17Z</time>
      </trkpt>
      <trkpt lat="48.66311" lon="-3.47785">
        <ele>101.56</ele>
        <time>2013-05-13T13:54:30Z</time>
      </trkpt>
      <trkpt lat="48.66348" lon="-3.47881">
        <ele>102.52</ele>
        <time>2013-05-13T13:54:46Z</time>
      </trkpt>
      <trkpt lat="48.66389" lon="-3.47987">
        <ele>104.92</ele>
        <time>2013-05-13T13:55:04Z</time>
      </trkpt>
      <trkpt lat="48.66427" lon="-3.48088">
        <ele>108.29</ele>
        <time>2013-05-13T13:55:22Z</time>
      </trkpt>
      <trkpt lat="48.66434" lon="-3.48105">
        <ele>108.29</ele>
        <time>2013-05-13T13:55:25Z</time>
      </trkpt>
      <trkpt lat="48.66435" lon="-3.48111">
        <ele>108.29</ele>
        <time>2013-05-13T13:55:26Z</time>
      </trkpt>
      <trkpt lat="48.66451" lon="-3.48179">
        <ele>109.73</ele>
        <time>2013-05-13T13:55:37Z</time>
      </trkpt>
      <trkpt lat="48.66461" lon="-3.48299">
        <ele>110.69</ele>
        <time>2013-05-13T13:55:54Z</time>
      </trkpt>
      <trkpt lat="48.66474" lon="-3.48448">
        <ele>111.65</ele>
        <time>2013-05-13T13:56:14Z</time>
      </trkpt>
      <trkpt lat="48.66502" lon="-3.48543">
        <ele>113.57</ele>
        <time>2013-05-13T13:56:28Z</time>
      </trkpt>
      <trkpt lat="48.66555" lon="-3.48648">
        <ele>115.5</ele>
        <time>2013-05-13T13:56:46Z</time>
      </trkpt>
      <trkpt lat="48.66607" lon="-3.4875">
        <ele>117.42</ele>
        <time>2013-05-13T13:57:04Z</time>
      </trkpt>
      <trkpt lat="48.6661" lon="-3.48756">
        <ele>117.42</ele>
        <time>2013-05-13T13:57:05Z</time>
      </trkpt>
      <trkpt lat="48.66613" lon="-3.48762">
        <ele>117.42</ele>
        <time>2013-05-13T13:57:06Z</time>
      </trkpt>
      <trkpt lat="48.66657" lon="-3.4887">
        <ele>118.86</ele>
        <time>2013-05-13T13:57:23Z</time>
      </trkpt>
      <trkpt lat="48.66708" lon="-3.48977">
        <ele>119.82</ele>
        <time>2013-05-13T13:57:40Z</time>
      </trkpt>
      <trkpt lat="48.66759" lon="-3.49053">
        <ele>121.26</ele>
        <time>2013-05-13T13:57:54Z</time>
      </trkpt>
      <trkpt lat="48.66818" lon="-3.49141">
        <ele>122.71</ele>
        <time>2013-05-13T13:58:10Z</time>
      </trkpt>
      <trkpt lat="48.66875" lon="-3.49219">
        <ele>124.15</ele>
        <time>2013-05-13T13:58:25Z</time>
      </trkpt>
      <trkpt lat="48.66888" lon="-3.49233">
        <ele>124.63</ele>
        <time>2013-05-13T13:58:28Z</time>
      </trkpt>
      <trkpt lat="48.66892" lon="-3.49238">
        <ele>124.15</ele>
        <time>2013-05-13T13:58:29Z</time>
      </trkpt>
      <trkpt lat="48.66953" lon="-3.49305">
        <ele>125.59</ele>
        <time>2013-05-13T13:58:44Z</time>
      </trkpt>
      <trkpt lat="48.67001" lon="-3.49385">
        <ele>126.55</ele>
        <time>2013-05-13T13:58:59Z</time>
      </trkpt>
      <trkpt lat="48.67039" lon="-3.49503">
        <ele>124.63</ele>
        <time>2013-05-13T13:59:15Z</time>
      </trkpt>
      <trkpt lat="48.67088" lon="-3.49655">
        <ele>121.74</ele>
        <time>2013-05-13T13:59:33Z</time>
      </trkpt>
      <trkpt lat="48.67112" lon="-3.49793">
        <ele>120.78</ele>
        <time>2013-05-13T13:59:49Z</time>
      </trkpt>
      <trkpt lat="48.67132" lon="-3.4994">
        <ele>119.82</ele>
        <time>2013-05-13T14:00:06Z</time>
      </trkpt>
      <trkpt lat="48.67151" lon="-3.50049">
        <ele>119.82</ele>
        <time>2013-05-13T14:00:19Z</time>
      </trkpt>
      <trkpt lat="48.67188" lon="-3.50194">
        <ele>119.82</ele>
        <time>2013-05-13T14:00:37Z</time>
      </trkpt>
      <trkpt lat="48.67227" lon="-3.50344">
        <ele>119.82</ele>
        <time>2013-05-13T14:00:56Z</time>
      </trkpt>
      <trkpt lat="48.67283" lon="-3.50459">
        <ele>118.38</ele>
        <time>2013-05-13T14:01:12Z</time>
      </trkpt>
      <trkpt lat="48.67337" lon="-3.50516">
        <ele>116.94</ele>
        <time>2013-05-13T14:01:23Z</time>
      </trkpt>
      <trkpt lat="48.67423" lon="-3.50604">
        <ele>115.01</ele>
        <time>2013-05-13T14:01:40Z</time>
      </trkpt>
      <trkpt lat="48.67484" lon="-3.50679">
        <ele>114.53</ele>
        <time>2013-05-13T14:01:53Z</time>
      </trkpt>
      <trkpt lat="48.67489" lon="-3.50684">
        <ele>115.01</ele>
        <time>2013-05-13T14:01:54Z</time>
      </trkpt>
      <trkpt lat="48.67505" lon="-3.50695">
        <ele>115.01</ele>
        <time>2013-05-13T14:01:57Z</time>
      </trkpt>
      <trkpt lat="48.67509" lon="-3.50701">
        <ele>115.01</ele>
        <time>2013-05-13T14:01:58Z</time>
      </trkpt>
      <trkpt lat="48.67511" lon="-3.50708">
        <ele>115.01</ele>
        <time>2013-05-13T14:01:59Z</time>
      </trkpt>
      <trkpt lat="48.67511" lon="-3.50716">
        <ele>114.53</ele>
        <time>2013-05-13T14:02:00Z</time>
      </trkpt>
      <trkpt lat="48.67509" lon="-3.50723">
        <ele>114.53</ele>
        <time>2013-05-13T14:02:01Z</time>
      </trkpt>
      <trkpt lat="48.67504" lon="-3.50728">
        <ele>114.05</ele>
        <time>2013-05-13T14:02:02Z</time>
      </trkpt>
      <trkpt lat="48.67499" lon="-3.5073">
        <ele>113.57</ele>
        <time>2013-05-13T14:02:03Z</time>
      </trkpt>
      <trkpt lat="48.67493" lon="-3.50729">
        <ele>113.57</ele>
        <time>2013-05-13T14:02:04Z</time>
      </trkpt>
      <trkpt lat="48.67487" lon="-3.50727">
        <ele>113.09</ele>
        <time>2013-05-13T14:02:05Z</time>
      </trkpt>
      <trkpt lat="48.67481" lon="-3.50724">
        <ele>113.57</ele>
        <time>2013-05-13T14:02:06Z</time>
      </trkpt>
      <trkpt lat="48.67475" lon="-3.50723">
        <ele>114.05</ele>
        <time>2013-05-13T14:02:07Z</time>
      </trkpt>
      <trkpt lat="48.67469" lon="-3.50723">
        <ele>114.05</ele>
        <time>2013-05-13T14:02:08Z</time>
      </trkpt>
      <trkpt lat="48.67385" lon="-3.50726">
        <ele>114.05</ele>
        <time>2013-05-13T14:02:22Z</time>
      </trkpt>
      <trkpt lat="48.67292" lon="-3.50724">
        <ele>115.01</ele>
        <time>2013-05-13T14:02:37Z</time>
      </trkpt>
      <trkpt lat="48.67192" lon="-3.50728">
        <ele>114.53</ele>
        <time>2013-05-13T14:02:52Z</time>
      </trkpt>
      <trkpt lat="48.67138" lon="-3.5073">
        <ele>114.53</ele>
        <time>2013-05-13T14:03:00Z</time>
      </trkpt>
      <trkpt lat="48.6703" lon="-3.50768">
        <ele>114.53</ele>
        <time>2013-05-13T14:03:16Z</time>
      </trkpt>
      <trkpt lat="48.66909" lon="-3.50843">
        <ele>113.09</ele>
        <time>2013-05-13T14:03:35Z</time>
      </trkpt>
      <trkpt lat="48.66791" lon="-3.50962">
        <ele>110.69</ele>
        <time>2013-05-13T14:03:55Z</time>
      </trkpt>
      <trkpt lat="48.6672" lon="-3.51084">
        <ele>108.29</ele>
        <time>2013-05-13T14:04:10Z</time>
      </trkpt>
      <trkpt lat="48.66682" lon="-3.51124">
        <ele>107.32</ele>
        <time>2013-05-13T14:04:16Z</time>
      </trkpt>
      <trkpt lat="48.66617" lon="-3.51163">
        <ele>105.4</ele>
        <time>2013-05-13T14:04:25Z</time>
      </trkpt>
      <trkpt lat="48.66611" lon="-3.51169">
        <ele>105.4</ele>
        <time>2013-05-13T14:04:26Z</time>
      </trkpt>
      <trkpt lat="48.66606" lon="-3.51177">
        <ele>104.92</ele>
        <time>2013-05-13T14:04:27Z</time>
      </trkpt>
      <trkpt lat="48.66603" lon="-3.51186">
        <ele>105.88</ele>
        <time>2013-05-13T14:04:28Z</time>
      </trkpt>
      <trkpt lat="48.666" lon="-3.51196">
        <ele>105.4</ele>
        <time>2013-05-13T14:04:29Z</time>
      </trkpt>
      <trkpt lat="48.66558" lon="-3.51324">
        <ele>105.88</ele>
        <time>2013-05-13T14:04:44Z</time>
      </trkpt>
      <trkpt lat="48.66501" lon="-3.51489">
        <ele>105.4</ele>
        <time>2013-05-13T14:05:03Z</time>
      </trkpt>
      <trkpt lat="48.66434" lon="-3.51643">
        <ele>104.44</ele>
        <time>2013-05-13T14:05:21Z</time>
      </trkpt>
      <trkpt lat="48.66358" lon="-3.51732">
        <ele>101.08</ele>
        <time>2013-05-13T14:05:33Z</time>
      </trkpt>
      <trkpt lat="48.66274" lon="-3.51783">
        <ele>102.52</ele>
        <time>2013-05-13T14:05:46Z</time>
      </trkpt>
      <trkpt lat="48.66264" lon="-3.51789">
        <ele>103.48</ele>
        <time>2013-05-13T14:05:48Z</time>
      </trkpt>
      <trkpt lat="48.66204" lon="-3.51819">
        <ele>105.88</ele>
        <time>2013-05-13T14:05:59Z</time>
      </trkpt>
      <trkpt lat="48.66086" lon="-3.51883">
        <ele>107.81</ele>
        <time>2013-05-13T14:06:20Z</time>
      </trkpt>
      <trkpt lat="48.65974" lon="-3.51925">
        <ele>110.21</ele>
        <time>2013-05-13T14:06:39Z</time>
      </trkpt>
      <trkpt lat="48.65861" lon="-3.51938">
        <ele>111.17</ele>
        <time>2013-05-13T14:06:57Z</time>
      </trkpt>
      <trkpt lat="48.65749" lon="-3.51953">
        <ele>113.09</ele>
        <time>2013-05-13T14:07:15Z</time>
      </trkpt>
      <trkpt lat="48.6565" lon="-3.52021">
        <ele>114.05</ele>
        <time>2013-05-13T14:07:32Z</time>
      </trkpt>
      <trkpt lat="48.65554" lon="-3.52082">
        <ele>114.05</ele>
        <time>2013-05-13T14:07:49Z</time>
      </trkpt>
      <trkpt lat="48.65465" lon="-3.5213">
        <ele>114.53</ele>
        <time>2013-05-13T14:08:04Z</time>
      </trkpt>
      <trkpt lat="48.65396" lon="-3.52166">
        <ele>115.01</ele>
        <time>2013-05-13T14:08:16Z</time>
      </trkpt>
      <trkpt lat="48.65286" lon="-3.52205">
        <ele>113.57</ele>
        <time>2013-05-13T14:08:32Z</time>
      </trkpt>
      <trkpt lat="48.65175" lon="-3.5225">
        <ele>112.61</ele>
        <time>2013-05-13T14:08:48Z</time>
      </trkpt>
      <trkpt lat="48.651" lon="-3.52328">
        <ele>113.09</ele>
        <time>2013-05-13T14:09:02Z</time>
      </trkpt>
      <trkpt lat="48.65006" lon="-3.52426">
        <ele>113.57</ele>
        <time>2013-05-13T14:09:20Z</time>
      </trkpt>
      <trkpt lat="48.64922" lon="-3.52451">
        <ele>113.09</ele>
        <time>2013-05-13T14:09:32Z</time>
      </trkpt>
      <trkpt lat="48.64842" lon="-3.52421">
        <ele>113.57</ele>
        <time>2013-05-13T14:09:44Z</time>
      </trkpt>
      <trkpt lat="48.64752" lon="-3.52392">
        <ele>113.57</ele>
        <time>2013-05-13T14:09:57Z</time>
      </trkpt>
      <trkpt lat="48.64642" lon="-3.52374">
        <ele>112.61</ele>
        <time>2013-05-13T14:10:11Z</time>
      </trkpt>
      <trkpt lat="48.6455" lon="-3.52321">
        <ele>114.05</ele>
        <time>2013-05-13T14:10:25Z</time>
      </trkpt>
      <trkpt lat="48.64515" lon="-3.523">
        <ele>116.94</ele>
        <time>2013-05-13T14:10:31Z</time>
      </trkpt>
      <trkpt lat="48.64425" lon="-3.52234">
        <ele>118.86</ele>
        <time>2013-05-13T14:10:48Z</time>
      </trkpt>
      <trkpt lat="48.64328" lon="-3.52164">
        <ele>122.22</ele>
        <time>2013-05-13T14:11:06Z</time>
      </trkpt>
      <trkpt lat="48.64296" lon="-3.52139">
        <ele>124.15</ele>
        <time>2013-05-13T14:11:13Z</time>
      </trkpt>
      <trkpt lat="48.64287" lon="-3.52133">
        <ele>125.11</ele>
        <time>2013-05-13T14:11:15Z</time>
      </trkpt>
      <trkpt lat="48.64222" lon="-3.52096">
        <ele>127.03</ele>
        <time>2013-05-13T14:11:28Z</time>
      </trkpt>
      <trkpt lat="48.64216" lon="-3.52094">
        <ele>127.03</ele>
        <time>2013-05-13T14:11:29Z</time>
      </trkpt>
      <trkpt lat="48.64157" lon="-3.52082">
        <ele>124.63</ele>
        <time>2013-05-13T14:11:37Z</time>
      </trkpt>
      <trkpt lat="48.64091" lon="-3.52077">
        <ele>121.74</ele>
        <time>2013-05-13T14:11:45Z</time>
      </trkpt>
      <trkpt lat="48.64044" lon="-3.52075">
        <ele>118.86</ele>
        <time>2013-05-13T14:11:50Z</time>
      </trkpt>
      <trkpt lat="48.63985" lon="-3.5207">
        <ele>116.46</ele>
        <time>2013-05-13T14:11:56Z</time>
      </trkpt>
      <trkpt lat="48.63853" lon="-3.52043">
        <ele>115.01</ele>
        <time>2013-05-13T14:12:11Z</time>
      </trkpt>
      <trkpt lat="48.63777" lon="-3.52032">
        <ele>111.65</ele>
        <time>2013-05-13T14:12:20Z</time>
      </trkpt>
      <trkpt lat="48.63724" lon="-3.52045">
        <ele>108.29</ele>
        <time>2013-05-13T14:12:25Z</time>
      </trkpt>
      <trkpt lat="48.63713" lon="-3.52052">
        <ele>107.81</ele>
        <time>2013-05-13T14:12:26Z</time>
      </trkpt>
      <trkpt lat="48.63703" lon="-3.52059">
        <ele>107.32</ele>
        <time>2013-05-13T14:12:27Z</time>
      </trkpt>
      <trkpt lat="48.63625" lon="-3.52117">
        <ele>110.21</ele>
        <time>2013-05-13T14:12:37Z</time>
      </trkpt>
      <trkpt lat="48.63532" lon="-3.52193">
        <ele>112.61</ele>
        <time>2013-05-13T14:12:53Z</time>
      </trkpt>
      <trkpt lat="48.63445" lon="-3.52241">
        <ele>113.57</ele>
        <time>2013-05-13T14:13:07Z</time>
      </trkpt>
      <trkpt lat="48.63439" lon="-3.52247">
        <ele>113.57</ele>
        <time>2013-05-13T14:13:08Z</time>
      </trkpt>
      <trkpt lat="48.63434" lon="-3.52253">
        <ele>113.57</ele>
        <time>2013-05-13T14:13:09Z</time>
      </trkpt>
      <trkpt lat="48.63429" lon="-3.5226">
        <ele>113.57</ele>
        <time>2013-05-13T14:13:10Z</time>
      </trkpt>
      <trkpt lat="48.63425" lon="-3.52268">
        <ele>113.57</ele>
        <time>2013-05-13T14:13:11Z</time>
      </trkpt>
      <trkpt lat="48.63421" lon="-3.52276">
        <ele>113.09</ele>
        <time>2013-05-13T14:13:12Z</time>
      </trkpt>
      <trkpt lat="48.63418" lon="-3.52285">
        <ele>113.57</ele>
        <time>2013-05-13T14:13:13Z</time>
      </trkpt>
      <trkpt lat="48.63415" lon="-3.52294">
        <ele>113.57</ele>
        <time>2013-05-13T14:13:14Z</time>
      </trkpt>
      <trkpt lat="48.63413" lon="-3.52303">
        <ele>113.57</ele>
        <time>2013-05-13T14:13:15Z</time>
      </trkpt>
      <trkpt lat="48.63411" lon="-3.52312">
        <ele>114.53</ele>
        <time>2013-05-13T14:13:16Z</time>
      </trkpt>
      <trkpt lat="48.63376" lon="-3.52502">
        <ele>114.53</ele>
        <time>2013-05-13T14:13:36Z</time>
      </trkpt>
      <trkpt lat="48.63362" lon="-3.52629">
        <ele>110.69</ele>
        <time>2013-05-13T14:13:48Z</time>
      </trkpt>
      <trkpt lat="48.63357" lon="-3.52681">
        <ele>108.77</ele>
        <time>2013-05-13T14:13:52Z</time>
      </trkpt>
      <trkpt lat="48.63331" lon="-3.52798">
        <ele>105.4</ele>
        <time>2013-05-13T14:14:01Z</time>
      </trkpt>
      <trkpt lat="48.63278" lon="-3.5293">
        <ele>101.56</ele>
        <time>2013-05-13T14:14:12Z</time>
      </trkpt>
      <trkpt lat="48.63266" lon="-3.52948">
        <ele>101.56</ele>
        <time>2013-05-13T14:14:14Z</time>
      </trkpt>
      <trkpt lat="48.63253" lon="-3.52963">
        <ele>101.08</ele>
        <time>2013-05-13T14:14:16Z</time>
      </trkpt>
      <trkpt lat="48.63238" lon="-3.52976">
        <ele>100.6</ele>
        <time>2013-05-13T14:14:18Z</time>
      </trkpt>
      <trkpt lat="48.63231" lon="-3.5298">
        <ele>100.11</ele>
        <time>2013-05-13T14:14:19Z</time>
      </trkpt>
      <trkpt lat="48.63222" lon="-3.52982">
        <ele>99.63</ele>
        <time>2013-05-13T14:14:20Z</time>
      </trkpt>
      <trkpt lat="48.63214" lon="-3.52981">
        <ele>99.63</ele>
        <time>2013-05-13T14:14:21Z</time>
      </trkpt>
      <trkpt lat="48.63205" lon="-3.52979">
        <ele>99.63</ele>
        <time>2013-05-13T14:14:22Z</time>
      </trkpt>
      <trkpt lat="48.63196" lon="-3.52977">
        <ele>99.63</ele>
        <time>2013-05-13T14:14:23Z</time>
      </trkpt>
      <trkpt lat="48.63135" lon="-3.52954">
        <ele>97.23</ele>
        <time>2013-05-13T14:14:30Z</time>
      </trkpt>
      <trkpt lat="48.63126" lon="-3.52954">
        <ele>97.23</ele>
        <time>2013-05-13T14:14:31Z</time>
      </trkpt>
      <trkpt lat="48.63088" lon="-3.52958">
        <ele>93.87</ele>
        <time>2013-05-13T14:14:35Z</time>
      </trkpt>
      <trkpt lat="48.63077" lon="-3.52958">
        <ele>93.87</ele>
        <time>2013-05-13T14:14:36Z</time>
      </trkpt>
      <trkpt lat="48.63037" lon="-3.52955">
        <ele>92.42</ele>
        <time>2013-05-13T14:14:40Z</time>
      </trkpt>
      <trkpt lat="48.63027" lon="-3.52952">
        <ele>91.94</ele>
        <time>2013-05-13T14:14:41Z</time>
      </trkpt>
      <trkpt lat="48.63017" lon="-3.52948">
        <ele>90.5</ele>
        <time>2013-05-13T14:14:42Z</time>
      </trkpt>
      <trkpt lat="48.62949" lon="-3.52914">
        <ele>86.66</ele>
        <time>2013-05-13T14:14:49Z</time>
      </trkpt>
      <trkpt lat="48.62908" lon="-3.52903">
        <ele>84.25</ele>
        <time>2013-05-13T14:14:53Z</time>
      </trkpt>
      <trkpt lat="48.62898" lon="-3.52904">
        <ele>83.77</ele>
        <time>2013-05-13T14:14:54Z</time>
      </trkpt>
      <trkpt lat="48.62888" lon="-3.52907">
        <ele>83.77</ele>
        <time>2013-05-13T14:14:55Z</time>
      </trkpt>
      <trkpt lat="48.62879" lon="-3.52912">
        <ele>82.81</ele>
        <time>2013-05-13T14:14:56Z</time>
      </trkpt>
      <trkpt lat="48.62871" lon="-3.5292">
        <ele>82.81</ele>
        <time>2013-05-13T14:14:57Z</time>
      </trkpt>
      <trkpt lat="48.62864" lon="-3.52929">
        <ele>81.85</ele>
        <time>2013-05-13T14:14:58Z</time>
      </trkpt>
      <trkpt lat="48.62858" lon="-3.5294">
        <ele>82.33</ele>
        <time>2013-05-13T14:14:59Z</time>
      </trkpt>
      <trkpt lat="48.62853" lon="-3.52952">
        <ele>82.33</ele>
        <time>2013-05-13T14:15:00Z</time>
      </trkpt>
      <trkpt lat="48.62849" lon="-3.52964">
        <ele>82.33</ele>
        <time>2013-05-13T14:15:01Z</time>
      </trkpt>
      <trkpt lat="48.6282" lon="-3.53072">
        <ele>83.77</ele>
        <time>2013-05-13T14:15:12Z</time>
      </trkpt>
      <trkpt lat="48.62815" lon="-3.53093">
        <ele>85.21</ele>
        <time>2013-05-13T14:15:15Z</time>
      </trkpt>
      <trkpt lat="48.62792" lon="-3.53155">
        <ele>87.62</ele>
        <time>2013-05-13T14:15:24Z</time>
      </trkpt>
      <trkpt lat="48.62789" lon="-3.53161">
        <ele>87.62</ele>
        <time>2013-05-13T14:15:25Z</time>
      </trkpt>
      <trkpt lat="48.62786" lon="-3.53167">
        <ele>88.1</ele>
        <time>2013-05-13T14:15:26Z</time>
      </trkpt>
      <trkpt lat="48.62782" lon="-3.53172">
        <ele>87.62</ele>
        <time>2013-05-13T14:15:27Z</time>
      </trkpt>
      <trkpt lat="48.62779" lon="-3.53177">
        <ele>88.58</ele>
        <time>2013-05-13T14:15:28Z</time>
      </trkpt>
      <trkpt lat="48.62764" lon="-3.53199">
        <ele>90.02</ele>
        <time>2013-05-13T14:15:32Z</time>
      </trkpt>
      <trkpt lat="48.62754" lon="-3.53216">
        <ele>90.5</ele>
        <time>2013-05-13T14:15:35Z</time>
      </trkpt>
      <trkpt lat="48.62741" lon="-3.53239">
        <ele>91.46</ele>
        <time>2013-05-13T14:15:39Z</time>
      </trkpt>
      <trkpt lat="48.62738" lon="-3.53245">
        <ele>91.46</ele>
        <time>2013-05-13T14:15:40Z</time>
      </trkpt>
      <trkpt lat="48.62734" lon="-3.5325">
        <ele>92.42</ele>
        <time>2013-05-13T14:15:41Z</time>
      </trkpt>
      <trkpt lat="48.62699" lon="-3.53291">
        <ele>94.35</ele>
        <time>2013-05-13T14:15:51Z</time>
      </trkpt>
      <trkpt lat="48.62696" lon="-3.53293">
        <ele>94.83</ele>
        <time>2013-05-13T14:15:52Z</time>
      </trkpt>
      <trkpt lat="48.62693" lon="-3.53296">
        <ele>95.31</ele>
        <time>2013-05-13T14:15:53Z</time>
      </trkpt>
      <trkpt lat="48.6269" lon="-3.53298">
        <ele>95.31</ele>
        <time>2013-05-13T14:15:54Z</time>
      </trkpt>
      <trkpt lat="48.62686" lon="-3.533">
        <ele>95.79</ele>
        <time>2013-05-13T14:15:55Z</time>
      </trkpt>
      <trkpt lat="48.62682" lon="-3.53302">
        <ele>96.75</ele>
        <time>2013-05-13T14:15:56Z</time>
      </trkpt>
      <trkpt lat="48.62677" lon="-3.53302">
        <ele>97.23</ele>
        <time>2013-05-13T14:15:57Z</time>
      </trkpt>
      <trkpt lat="48.62673" lon="-3.53303">
        <ele>97.71</ele>
        <time>2013-05-13T14:15:58Z</time>
      </trkpt>
      <trkpt lat="48.62648" lon="-3.53299">
        <ele>97.23</ele>
        <time>2013-05-13T14:16:03Z</time>
      </trkpt>
      <trkpt lat="48.62643" lon="-3.53297">
        <ele>98.19</ele>
        <time>2013-05-13T14:16:04Z</time>
      </trkpt>
      <trkpt lat="48.62637" lon="-3.53294">
        <ele>97.71</ele>
        <time>2013-05-13T14:16:05Z</time>
      </trkpt>
      <trkpt lat="48.62632" lon="-3.5329">
        <ele>97.23</ele>
        <time>2013-05-13T14:16:06Z</time>
      </trkpt>
      <trkpt lat="48.62628" lon="-3.53285">
        <ele>97.23</ele>
        <time>2013-05-13T14:16:07Z</time>
      </trkpt>
      <trkpt lat="48.62623" lon="-3.53279">
        <ele>96.75</ele>
        <time>2013-05-13T14:16:08Z</time>
      </trkpt>
      <trkpt lat="48.62618" lon="-3.53273">
        <ele>96.27</ele>
        <time>2013-05-13T14:16:09Z</time>
      </trkpt>
      <trkpt lat="48.62574" lon="-3.53214">
        <ele>95.79</ele>
        <time>2013-05-13T14:16:18Z</time>
      </trkpt>
      <trkpt lat="48.62568" lon="-3.5321">
        <ele>96.27</ele>
        <time>2013-05-13T14:16:19Z</time>
      </trkpt>
      <trkpt lat="48.62562" lon="-3.53207">
        <ele>96.27</ele>
        <time>2013-05-13T14:16:20Z</time>
      </trkpt>
      <trkpt lat="48.6255" lon="-3.53202">
        <ele>96.27</ele>
        <time>2013-05-13T14:16:22Z</time>
      </trkpt>
      <trkpt lat="48.62543" lon="-3.53201">
        <ele>96.27</ele>
        <time>2013-05-13T14:16:23Z</time>
      </trkpt>
      <trkpt lat="48.62455" lon="-3.53211">
        <ele>96.75</ele>
        <time>2013-05-13T14:16:38Z</time>
      </trkpt>
      <trkpt lat="48.62449" lon="-3.53212">
        <ele>97.23</ele>
        <time>2013-05-13T14:16:39Z</time>
      </trkpt>
      <trkpt lat="48.62383" lon="-3.53217">
        <ele>97.23</ele>
        <time>2013-05-13T14:16:50Z</time>
      </trkpt>
      <trkpt lat="48.62364" lon="-3.53224">
        <ele>97.71</ele>
        <time>2013-05-13T14:16:53Z</time>
      </trkpt>
      <trkpt lat="48.62288" lon="-3.53273">
        <ele>100.11</ele>
        <time>2013-05-13T14:17:08Z</time>
      </trkpt>
      <trkpt lat="48.62275" lon="-3.53282">
        <ele>101.08</ele>
        <time>2013-05-13T14:17:11Z</time>
      </trkpt>
      <trkpt lat="48.62268" lon="-3.53289">
        <ele>102.04</ele>
        <time>2013-05-13T14:17:13Z</time>
      </trkpt>
      <trkpt lat="48.62259" lon="-3.53297">
        <ele>102.52</ele>
        <time>2013-05-13T14:17:15Z</time>
      </trkpt>
      <trkpt lat="48.62256" lon="-3.53302">
        <ele>103.48</ele>
        <time>2013-05-13T14:17:16Z</time>
      </trkpt>
      <trkpt lat="48.62227" lon="-3.53344">
        <ele>106.36</ele>
        <time>2013-05-13T14:17:25Z</time>
      </trkpt>
      <trkpt lat="48.62223" lon="-3.53347">
        <ele>106.84</ele>
        <time>2013-05-13T14:17:26Z</time>
      </trkpt>
      <trkpt lat="48.62198" lon="-3.53363">
        <ele>108.29</ele>
        <time>2013-05-13T14:17:32Z</time>
      </trkpt>
      <trkpt lat="48.62194" lon="-3.53366">
        <ele>108.29</ele>
        <time>2013-05-13T14:17:33Z</time>
      </trkpt>
      <trkpt lat="48.6219" lon="-3.5337">
        <ele>108.29</ele>
        <time>2013-05-13T14:17:34Z</time>
      </trkpt>
      <trkpt lat="48.62157" lon="-3.53408">
        <ele>110.69</ele>
        <time>2013-05-13T14:17:43Z</time>
      </trkpt>
      <trkpt lat="48.62154" lon="-3.53414">
        <ele>110.69</ele>
        <time>2013-05-13T14:17:44Z</time>
      </trkpt>
      <trkpt lat="48.62151" lon="-3.53419">
        <ele>110.69</ele>
        <time>2013-05-13T14:17:45Z</time>
      </trkpt>
      <trkpt lat="48.62136" lon="-3.53447">
        <ele>111.17</ele>
        <time>2013-05-13T14:17:50Z</time>
      </trkpt>
      <trkpt lat="48.62132" lon="-3.53453">
        <ele>111.17</ele>
        <time>2013-05-13T14:17:51Z</time>
      </trkpt>
      <trkpt lat="48.62124" lon="-3.53473">
        <ele>111.17</ele>
        <time>2013-05-13T14:17:54Z</time>
      </trkpt>
      <trkpt lat="48.6212" lon="-3.53479">
        <ele>111.17</ele>
        <time>2013-05-13T14:17:55Z</time>
      </trkpt>
      <trkpt lat="48.62062" lon="-3.53602">
        <ele>112.13</ele>
        <time>2013-05-13T14:18:13Z</time>
      </trkpt>
      <trkpt lat="48.62053" lon="-3.53614">
        <ele>112.13</ele>
        <time>2013-05-13T14:18:15Z</time>
      </trkpt>
      <trkpt lat="48.62047" lon="-3.53619">
        <ele>111.65</ele>
        <time>2013-05-13T14:18:16Z</time>
      </trkpt>
      <trkpt lat="48.62041" lon="-3.53624">
        <ele>111.17</ele>
        <time>2013-05-13T14:18:17Z</time>
      </trkpt>
      <trkpt lat="48.62024" lon="-3.53639">
        <ele>109.25</ele>
        <time>2013-05-13T14:18:20Z</time>
      </trkpt>
      <trkpt lat="48.62019" lon="-3.53646">
        <ele>108.77</ele>
        <time>2013-05-13T14:18:21Z</time>
      </trkpt>
      <trkpt lat="48.62014" lon="-3.53653">
        <ele>108.29</ele>
        <time>2013-05-13T14:18:22Z</time>
      </trkpt>
      <trkpt lat="48.6201" lon="-3.53662">
        <ele>107.81</ele>
        <time>2013-05-13T14:18:23Z</time>
      </trkpt>
      <trkpt lat="48.62006" lon="-3.53671">
        <ele>107.32</ele>
        <time>2013-05-13T14:18:24Z</time>
      </trkpt>
      <trkpt lat="48.62003" lon="-3.53681">
        <ele>107.32</ele>
        <time>2013-05-13T14:18:25Z</time>
      </trkpt>
      <trkpt lat="48.62" lon="-3.53691">
        <ele>107.32</ele>
        <time>2013-05-13T14:18:26Z</time>
      </trkpt>
      <trkpt lat="48.61985" lon="-3.53734">
        <ele>110.69</ele>
        <time>2013-05-13T14:18:32Z</time>
      </trkpt>
      <trkpt lat="48.61976" lon="-3.53774">
        <ele>112.13</ele>
        <time>2013-05-13T14:18:41Z</time>
      </trkpt>
      <trkpt lat="48.61977" lon="-3.53784">
        <ele>112.61</ele>
        <time>2013-05-13T14:18:44Z</time>
      </trkpt>
      <trkpt lat="48.61975" lon="-3.53787">
        <ele>112.61</ele>
        <time>2013-05-13T14:18:45Z</time>
      </trkpt>
      <trkpt lat="48.61972" lon="-3.53787">
        <ele>112.61</ele>
        <time>2013-05-13T14:18:46Z</time>
      </trkpt>
      <trkpt lat="48.61959" lon="-3.53788">
        <ele>113.09</ele>
        <time>2013-05-13T14:18:49Z</time>
      </trkpt>
      <trkpt lat="48.61955" lon="-3.53788">
        <ele>112.61</ele>
        <time>2013-05-13T14:18:50Z</time>
      </trkpt>
      <trkpt lat="48.6195" lon="-3.53789">
        <ele>113.09</ele>
        <time>2013-05-13T14:18:51Z</time>
      </trkpt>
      <trkpt lat="48.61945" lon="-3.53792">
        <ele>113.57</ele>
        <time>2013-05-13T14:18:52Z</time>
      </trkpt>
      <trkpt lat="48.6194" lon="-3.53795">
        <ele>114.05</ele>
        <time>2013-05-13T14:18:53Z</time>
      </trkpt>
      <trkpt lat="48.61936" lon="-3.538">
        <ele>114.53</ele>
        <time>2013-05-13T14:18:54Z</time>
      </trkpt>
      <trkpt lat="48.61932" lon="-3.53805">
        <ele>114.53</ele>
        <time>2013-05-13T14:18:55Z</time>
      </trkpt>
      <trkpt lat="48.61929" lon="-3.53811">
        <ele>114.53</ele>
        <time>2013-05-13T14:18:56Z</time>
      </trkpt>
      <trkpt lat="48.61926" lon="-3.53816">
        <ele>114.05</ele>
        <time>2013-05-13T14:18:57Z</time>
      </trkpt>
      <trkpt lat="48.61922" lon="-3.5382">
        <ele>114.05</ele>
        <time>2013-05-13T14:18:58Z</time>
      </trkpt>
      <trkpt lat="48.61918" lon="-3.53822">
        <ele>114.53</ele>
        <time>2013-05-13T14:18:59Z</time>
      </trkpt>
      <trkpt lat="48.61914" lon="-3.53823">
        <ele>115.01</ele>
        <time>2013-05-13T14:19:00Z</time>
      </trkpt>
      <trkpt lat="48.61909" lon="-3.53823">
        <ele>115.01</ele>
        <time>2013-05-13T14:19:01Z</time>
      </trkpt>
      <trkpt lat="48.61905" lon="-3.53823">
        <ele>114.53</ele>
        <time>2013-05-13T14:19:02Z</time>
      </trkpt>
      <trkpt lat="48.61829" lon="-3.53806">
        <ele>114.53</ele>
        <time>2013-05-13T14:19:15Z</time>
      </trkpt>
      <trkpt lat="48.61817" lon="-3.53802">
        <ele>114.53</ele>
        <time>2013-05-13T14:19:17Z</time>
      </trkpt>
      <trkpt lat="48.61811" lon="-3.53799">
        <ele>115.01</ele>
        <time>2013-05-13T14:19:18Z</time>
      </trkpt>
      <trkpt lat="48.61806" lon="-3.53795">
        <ele>115.01</ele>
        <time>2013-05-13T14:19:19Z</time>
      </trkpt>
      <trkpt lat="48.61801" lon="-3.53791">
        <ele>115.01</ele>
        <time>2013-05-13T14:19:20Z</time>
      </trkpt>
      <trkpt lat="48.61796" lon="-3.53787">
        <ele>115.01</ele>
        <time>2013-05-13T14:19:21Z</time>
      </trkpt>
      <trkpt lat="48.61791" lon="-3.53783">
        <ele>115.01</ele>
        <time>2013-05-13T14:19:22Z</time>
      </trkpt>
      <trkpt lat="48.61781" lon="-3.53773">
        <ele>115.01</ele>
        <time>2013-05-13T14:19:24Z</time>
      </trkpt>
      <trkpt lat="48.61711" lon="-3.53707">
        <ele>117.42</ele>
        <time>2013-05-13T14:19:38Z</time>
      </trkpt>
      <trkpt lat="48.61638" lon="-3.53669">
        <ele>120.3</ele>
        <time>2013-05-13T14:19:53Z</time>
      </trkpt>
      <trkpt lat="48.61626" lon="-3.53662">
        <ele>120.78</ele>
        <time>2013-05-13T14:19:56Z</time>
      </trkpt>
      <trkpt lat="48.61622" lon="-3.53659">
        <ele>121.26</ele>
        <time>2013-05-13T14:19:57Z</time>
      </trkpt>
      <trkpt lat="48.61618" lon="-3.53656">
        <ele>121.26</ele>
        <time>2013-05-13T14:19:58Z</time>
      </trkpt>
      <trkpt lat="48.61614" lon="-3.53653">
        <ele>121.74</ele>
        <time>2013-05-13T14:19:59Z</time>
      </trkpt>
      <trkpt lat="48.6161" lon="-3.5365">
        <ele>121.74</ele>
        <time>2013-05-13T14:20:00Z</time>
      </trkpt>
      <trkpt lat="48.61564" lon="-3.53628">
        <ele>125.11</ele>
        <time>2013-05-13T14:20:12Z</time>
      </trkpt>
      <trkpt lat="48.61513" lon="-3.53616">
        <ele>127.99</ele>
        <time>2013-05-13T14:20:24Z</time>
      </trkpt>
      <trkpt lat="48.615" lon="-3.53614">
        <ele>128.95</ele>
        <time>2013-05-13T14:20:27Z</time>
      </trkpt>
      <trkpt lat="48.61466" lon="-3.53619">
        <ele>130.88</ele>
        <time>2013-05-13T14:20:34Z</time>
      </trkpt>
      <trkpt lat="48.61443" lon="-3.53625">
        <ele>131.36</ele>
        <time>2013-05-13T14:20:39Z</time>
      </trkpt>
      <trkpt lat="48.61439" lon="-3.53628">
        <ele>131.84</ele>
        <time>2013-05-13T14:20:40Z</time>
      </trkpt>
      <trkpt lat="48.61435" lon="-3.5363">
        <ele>131.84</ele>
        <time>2013-05-13T14:20:41Z</time>
      </trkpt>
      <trkpt lat="48.61431" lon="-3.53632">
        <ele>131.84</ele>
        <time>2013-05-13T14:20:42Z</time>
      </trkpt>
      <trkpt lat="48.61426" lon="-3.53634">
        <ele>131.84</ele>
        <time>2013-05-13T14:20:43Z</time>
      </trkpt>
      <trkpt lat="48.61421" lon="-3.53636">
        <ele>132.32</ele>
        <time>2013-05-13T14:20:44Z</time>
      </trkpt>
      <trkpt lat="48.61415" lon="-3.53638">
        <ele>132.32</ele>
        <time>2013-05-13T14:20:45Z</time>
      </trkpt>
      <trkpt lat="48.61335" lon="-3.53675">
        <ele>134.72</ele>
        <time>2013-05-13T14:21:01Z</time>
      </trkpt>
      <trkpt lat="48.61267" lon="-3.53705">
        <ele>138.09</ele>
        <time>2013-05-13T14:21:15Z</time>
      </trkpt>
      <trkpt lat="48.61226" lon="-3.53724">
        <ele>140.01</ele>
        <time>2013-05-13T14:21:24Z</time>
      </trkpt>
      <trkpt lat="48.61153" lon="-3.53756">
        <ele>141.45</ele>
        <time>2013-05-13T14:21:39Z</time>
      </trkpt>
      <trkpt lat="48.61084" lon="-3.53771">
        <ele>142.89</ele>
        <time>2013-05-13T14:21:53Z</time>
      </trkpt>
      <trkpt lat="48.60979" lon="-3.53772">
        <ele>143.85</ele>
        <time>2013-05-13T14:22:12Z</time>
      </trkpt>
      <trkpt lat="48.60891" lon="-3.53771">
        <ele>146.26</ele>
        <time>2013-05-13T14:22:28Z</time>
      </trkpt>
      <trkpt lat="48.60838" lon="-3.53777">
        <ele>147.7</ele>
        <time>2013-05-13T14:22:38Z</time>
      </trkpt>
      <trkpt lat="48.6078" lon="-3.53793">
        <ele>151.06</ele>
        <time>2013-05-13T14:22:50Z</time>
      </trkpt>
      <trkpt lat="48.60705" lon="-3.53808">
        <ele>154.43</ele>
        <time>2013-05-13T14:23:05Z</time>
      </trkpt>
      <trkpt lat="48.607" lon="-3.5381">
        <ele>154.43</ele>
        <time>2013-05-13T14:23:06Z</time>
      </trkpt>
      <trkpt lat="48.60641" lon="-3.53821">
        <ele>157.31</ele>
        <time>2013-05-13T14:23:18Z</time>
      </trkpt>
      <trkpt lat="48.60578" lon="-3.53833">
        <ele>159.24</ele>
        <time>2013-05-13T14:23:31Z</time>
      </trkpt>
      <trkpt lat="48.60552" lon="-3.53836">
        <ele>159.72</ele>
        <time>2013-05-13T14:23:36Z</time>
      </trkpt>
      <trkpt lat="48.60467" lon="-3.53854">
        <ele>159.24</ele>
        <time>2013-05-13T14:23:51Z</time>
      </trkpt>
      <trkpt lat="48.60348" lon="-3.53868">
        <ele>158.27</ele>
        <time>2013-05-13T14:24:10Z</time>
      </trkpt>
      <trkpt lat="48.60251" lon="-3.5386">
        <ele>157.79</ele>
        <time>2013-05-13T14:24:26Z</time>
      </trkpt>
      <trkpt lat="48.6014" lon="-3.5385">
        <ele>158.27</ele>
        <time>2013-05-13T14:24:44Z</time>
      </trkpt>
      <trkpt lat="48.60018" lon="-3.53833">
        <ele>160.2</ele>
        <time>2013-05-13T14:25:05Z</time>
      </trkpt>
      <trkpt lat="48.59912" lon="-3.5382">
        <ele>163.08</ele>
        <time>2013-05-13T14:25:24Z</time>
      </trkpt>
      <trkpt lat="48.59837" lon="-3.53805">
        <ele>165</ele>
        <time>2013-05-13T14:25:38Z</time>
      </trkpt>
      <trkpt lat="48.59743" lon="-3.53811">
        <ele>164.52</ele>
        <time>2013-05-13T14:25:54Z</time>
      </trkpt>
      <trkpt lat="48.59633" lon="-3.53818">
        <ele>165</ele>
        <time>2013-05-13T14:26:13Z</time>
      </trkpt>
      <trkpt lat="48.59596" lon="-3.53825">
        <ele>163.08</ele>
        <time>2013-05-13T14:26:18Z</time>
      </trkpt>
      <trkpt lat="48.59527" lon="-3.53839">
        <ele>159.24</ele>
        <time>2013-05-13T14:26:26Z</time>
      </trkpt>
      <trkpt lat="48.59519" lon="-3.53841">
        <ele>158.75</ele>
        <time>2013-05-13T14:26:27Z</time>
      </trkpt>
      <trkpt lat="48.59512" lon="-3.53846">
        <ele>157.79</ele>
        <time>2013-05-13T14:26:28Z</time>
      </trkpt>
      <trkpt lat="48.59505" lon="-3.53852">
        <ele>157.31</ele>
        <time>2013-05-13T14:26:29Z</time>
      </trkpt>
      <trkpt lat="48.59498" lon="-3.53859">
        <ele>155.87</ele>
        <time>2013-05-13T14:26:30Z</time>
      </trkpt>
      <trkpt lat="48.59493" lon="-3.53868">
        <ele>155.39</ele>
        <time>2013-05-13T14:26:31Z</time>
      </trkpt>
      <trkpt lat="48.59487" lon="-3.53877">
        <ele>154.91</ele>
        <time>2013-05-13T14:26:32Z</time>
      </trkpt>
      <trkpt lat="48.59481" lon="-3.53888">
        <ele>155.87</ele>
        <time>2013-05-13T14:26:33Z</time>
      </trkpt>
      <trkpt lat="48.59445" lon="-3.53951">
        <ele>152.51</ele>
        <time>2013-05-13T14:26:39Z</time>
      </trkpt>
      <trkpt lat="48.59386" lon="-3.54084">
        <ele>149.14</ele>
        <time>2013-05-13T14:26:52Z</time>
      </trkpt>
      <trkpt lat="48.59378" lon="-3.54121">
        <ele>147.7</ele>
        <time>2013-05-13T14:26:55Z</time>
      </trkpt>
      <trkpt lat="48.59376" lon="-3.54134">
        <ele>147.22</ele>
        <time>2013-05-13T14:26:56Z</time>
      </trkpt>
      <trkpt lat="48.59368" lon="-3.54194">
        <ele>145.78</ele>
        <time>2013-05-13T14:27:01Z</time>
      </trkpt>
      <trkpt lat="48.59365" lon="-3.54203">
        <ele>146.26</ele>
        <time>2013-05-13T14:27:02Z</time>
      </trkpt>
      <trkpt lat="48.59361" lon="-3.54212">
        <ele>145.78</ele>
        <time>2013-05-13T14:27:03Z</time>
      </trkpt>
      <trkpt lat="48.59356" lon="-3.54218">
        <ele>145.78</ele>
        <time>2013-05-13T14:27:04Z</time>
      </trkpt>
      <trkpt lat="48.59351" lon="-3.54222">
        <ele>145.78</ele>
        <time>2013-05-13T14:27:05Z</time>
      </trkpt>
      <trkpt lat="48.59344" lon="-3.54225">
        <ele>146.26</ele>
        <time>2013-05-13T14:27:06Z</time>
      </trkpt>
      <trkpt lat="48.59338" lon="-3.54227">
        <ele>146.26</ele>
        <time>2013-05-13T14:27:07Z</time>
      </trkpt>
      <trkpt lat="48.59278" lon="-3.54247">
        <ele>147.22</ele>
        <time>2013-05-13T14:27:17Z</time>
      </trkpt>
      <trkpt lat="48.59273" lon="-3.54251">
        <ele>147.22</ele>
        <time>2013-05-13T14:27:18Z</time>
      </trkpt>
      <trkpt lat="48.59258" lon="-3.54265">
        <ele>148.66</ele>
        <time>2013-05-13T14:27:21Z</time>
      </trkpt>
      <trkpt lat="48.59218" lon="-3.54327">
        <ele>149.14</ele>
        <time>2013-05-13T14:27:31Z</time>
      </trkpt>
      <trkpt lat="48.59214" lon="-3.54334">
        <ele>149.62</ele>
        <time>2013-05-13T14:27:32Z</time>
      </trkpt>
      <trkpt lat="48.59161" lon="-3.54442">
        <ele>151.06</ele>
        <time>2013-05-13T14:27:48Z</time>
      </trkpt>
      <trkpt lat="48.59137" lon="-3.54519">
        <ele>150.1</ele>
        <time>2013-05-13T14:27:57Z</time>
      </trkpt>
      <trkpt lat="48.59133" lon="-3.54528">
        <ele>149.62</ele>
        <time>2013-05-13T14:27:58Z</time>
      </trkpt>
      <trkpt lat="48.59127" lon="-3.54535">
        <ele>149.14</ele>
        <time>2013-05-13T14:27:59Z</time>
      </trkpt>
      <trkpt lat="48.59121" lon="-3.54541">
        <ele>148.66</ele>
        <time>2013-05-13T14:28:00Z</time>
      </trkpt>
      <trkpt lat="48.59114" lon="-3.54545">
        <ele>148.66</ele>
        <time>2013-05-13T14:28:01Z</time>
      </trkpt>
      <trkpt lat="48.59107" lon="-3.54546">
        <ele>148.66</ele>
        <time>2013-05-13T14:28:02Z</time>
      </trkpt>
      <trkpt lat="48.591" lon="-3.54546">
        <ele>148.66</ele>
        <time>2013-05-13T14:28:03Z</time>
      </trkpt>
      <trkpt lat="48.59094" lon="-3.54545">
        <ele>148.66</ele>
        <time>2013-05-13T14:28:04Z</time>
      </trkpt>
      <trkpt lat="48.59087" lon="-3.54543">
        <ele>149.14</ele>
        <time>2013-05-13T14:28:05Z</time>
      </trkpt>
      <trkpt lat="48.58989" lon="-3.54522">
        <ele>152.03</ele>
        <time>2013-05-13T14:28:22Z</time>
      </trkpt>
      <trkpt lat="48.58935" lon="-3.54518">
        <ele>155.39</ele>
        <time>2013-05-13T14:28:33Z</time>
      </trkpt>
      <trkpt lat="48.58925" lon="-3.54519">
        <ele>155.39</ele>
        <time>2013-05-13T14:28:35Z</time>
      </trkpt>
      <trkpt lat="48.58899" lon="-3.54529">
        <ele>157.31</ele>
        <time>2013-05-13T14:28:41Z</time>
      </trkpt>
      <trkpt lat="48.58895" lon="-3.54532">
        <ele>157.79</ele>
        <time>2013-05-13T14:28:42Z</time>
      </trkpt>
      <trkpt lat="48.58892" lon="-3.54535">
        <ele>158.27</ele>
        <time>2013-05-13T14:28:43Z</time>
      </trkpt>
      <trkpt lat="48.58888" lon="-3.54538">
        <ele>158.75</ele>
        <time>2013-05-13T14:28:44Z</time>
      </trkpt>
      <trkpt lat="48.58884" lon="-3.54541">
        <ele>158.75</ele>
        <time>2013-05-13T14:28:45Z</time>
      </trkpt>
      <trkpt lat="48.58873" lon="-3.54549">
        <ele>159.24</ele>
        <time>2013-05-13T14:28:48Z</time>
      </trkpt>
      <trkpt lat="48.58819" lon="-3.54579">
        <ele>162.12</ele>
        <time>2013-05-13T14:29:01Z</time>
      </trkpt>
      <trkpt lat="48.58793" lon="-3.5459">
        <ele>163.56</ele>
        <time>2013-05-13T14:29:07Z</time>
      </trkpt>
      <trkpt lat="48.58771" lon="-3.54596">
        <ele>165</ele>
        <time>2013-05-13T14:29:12Z</time>
      </trkpt>
      <trkpt lat="48.58766" lon="-3.54595">
        <ele>165</ele>
        <time>2013-05-13T14:29:13Z</time>
      </trkpt>
      <trkpt lat="48.58741" lon="-3.54587">
        <ele>165.96</ele>
        <time>2013-05-13T14:29:19Z</time>
      </trkpt>
      <trkpt lat="48.58736" lon="-3.54587">
        <ele>165.96</ele>
        <time>2013-05-13T14:29:20Z</time>
      </trkpt>
      <trkpt lat="48.58731" lon="-3.54589">
        <ele>165.48</ele>
        <time>2013-05-13T14:29:21Z</time>
      </trkpt>
      <trkpt lat="48.58644" lon="-3.54627">
        <ele>164.04</ele>
        <time>2013-05-13T14:29:35Z</time>
      </trkpt>
      <trkpt lat="48.58582" lon="-3.54652">
        <ele>165.96</ele>
        <time>2013-05-13T14:29:47Z</time>
      </trkpt>
      <trkpt lat="48.58518" lon="-3.54669">
        <ele>168.37</ele>
        <time>2013-05-13T14:30:00Z</time>
      </trkpt>
      <trkpt lat="48.58453" lon="-3.54686">
        <ele>170.77</ele>
        <time>2013-05-13T14:30:13Z</time>
      </trkpt>
      <trkpt lat="48.58439" lon="-3.5469">
        <ele>171.25</ele>
        <time>2013-05-13T14:30:16Z</time>
      </trkpt>
      <trkpt lat="48.58374" lon="-3.54708">
        <ele>173.17</ele>
        <time>2013-05-13T14:30:29Z</time>
      </trkpt>
      <trkpt lat="48.58344" lon="-3.54711">
        <ele>174.62</ele>
        <time>2013-05-13T14:30:35Z</time>
      </trkpt>
      <trkpt lat="48.58319" lon="-3.54716">
        <ele>175.58</ele>
        <time>2013-05-13T14:30:40Z</time>
      </trkpt>
      <trkpt lat="48.58315" lon="-3.54719">
        <ele>175.58</ele>
        <time>2013-05-13T14:30:41Z</time>
      </trkpt>
      <trkpt lat="48.5831" lon="-3.54721">
        <ele>175.58</ele>
        <time>2013-05-13T14:30:42Z</time>
      </trkpt>
      <trkpt lat="48.58306" lon="-3.54725">
        <ele>175.1</ele>
        <time>2013-05-13T14:30:43Z</time>
      </trkpt>
      <trkpt lat="48.58301" lon="-3.5473">
        <ele>175.1</ele>
        <time>2013-05-13T14:30:44Z</time>
      </trkpt>
      <trkpt lat="48.58298" lon="-3.54735">
        <ele>175.1</ele>
        <time>2013-05-13T14:30:45Z</time>
      </trkpt>
      <trkpt lat="48.58294" lon="-3.54742">
        <ele>175.1</ele>
        <time>2013-05-13T14:30:46Z</time>
      </trkpt>
      <trkpt lat="48.58291" lon="-3.54748">
        <ele>175.1</ele>
        <time>2013-05-13T14:30:47Z</time>
      </trkpt>
      <trkpt lat="48.58265" lon="-3.54805">
        <ele>176.06</ele>
        <time>2013-05-13T14:30:55Z</time>
      </trkpt>
      <trkpt lat="48.58261" lon="-3.5481">
        <ele>176.06</ele>
        <time>2013-05-13T14:30:56Z</time>
      </trkpt>
      <trkpt lat="48.58248" lon="-3.54823">
        <ele>176.54</ele>
        <time>2013-05-13T14:30:59Z</time>
      </trkpt>
      <trkpt lat="48.58226" lon="-3.54839">
        <ele>177.5</ele>
        <time>2013-05-13T14:31:04Z</time>
      </trkpt>
      <trkpt lat="48.58222" lon="-3.54841">
        <ele>177.5</ele>
        <time>2013-05-13T14:31:05Z</time>
      </trkpt>
      <trkpt lat="48.58208" lon="-3.54849">
        <ele>178.46</ele>
        <time>2013-05-13T14:31:08Z</time>
      </trkpt>
      <trkpt lat="48.58191" lon="-3.54853">
        <ele>179.9</ele>
        <time>2013-05-13T14:31:12Z</time>
      </trkpt>
      <trkpt lat="48.58186" lon="-3.54852">
        <ele>179.9</ele>
        <time>2013-05-13T14:31:13Z</time>
      </trkpt>
      <trkpt lat="48.58182" lon="-3.54851">
        <ele>180.38</ele>
        <time>2013-05-13T14:31:14Z</time>
      </trkpt>
      <trkpt lat="48.58177" lon="-3.54848">
        <ele>180.38</ele>
        <time>2013-05-13T14:31:15Z</time>
      </trkpt>
      <trkpt lat="48.58172" lon="-3.54845">
        <ele>180.38</ele>
        <time>2013-05-13T14:31:16Z</time>
      </trkpt>
      <trkpt lat="48.58164" lon="-3.54838">
        <ele>180.38</ele>
        <time>2013-05-13T14:31:18Z</time>
      </trkpt>
      <trkpt lat="48.5816" lon="-3.54834">
        <ele>180.38</ele>
        <time>2013-05-13T14:31:19Z</time>
      </trkpt>
      <trkpt lat="48.58113" lon="-3.54778">
        <ele>177.5</ele>
        <time>2013-05-13T14:31:28Z</time>
      </trkpt>
      <trkpt lat="48.58106" lon="-3.54772">
        <ele>177.02</ele>
        <time>2013-05-13T14:31:29Z</time>
      </trkpt>
      <trkpt lat="48.58067" lon="-3.54738">
        <ele>175.1</ele>
        <time>2013-05-13T14:31:34Z</time>
      </trkpt>
      <trkpt lat="48.58037" lon="-3.54702">
        <ele>174.14</ele>
        <time>2013-05-13T14:31:38Z</time>
      </trkpt>
      <trkpt lat="48.58031" lon="-3.5469">
        <ele>173.17</ele>
        <time>2013-05-13T14:31:39Z</time>
      </trkpt>
      <trkpt lat="48.58024" lon="-3.54679">
        <ele>172.69</ele>
        <time>2013-05-13T14:31:40Z</time>
      </trkpt>
      <trkpt lat="48.58017" lon="-3.54668">
        <ele>172.21</ele>
        <time>2013-05-13T14:31:41Z</time>
      </trkpt>
      <trkpt lat="48.58009" lon="-3.54657">
        <ele>171.73</ele>
        <time>2013-05-13T14:31:42Z</time>
      </trkpt>
      <trkpt lat="48.57979" lon="-3.54617">
        <ele>168.37</ele>
        <time>2013-05-13T14:31:46Z</time>
      </trkpt>
      <trkpt lat="48.5792" lon="-3.54538">
        <ele>165</ele>
        <time>2013-05-13T14:31:54Z</time>
      </trkpt>
      <trkpt lat="48.57913" lon="-3.54527">
        <ele>164.52</ele>
        <time>2013-05-13T14:31:55Z</time>
      </trkpt>
      <trkpt lat="48.57833" lon="-3.54432">
        <ele>163.08</ele>
        <time>2013-05-13T14:32:06Z</time>
      </trkpt>
      <trkpt lat="48.57718" lon="-3.54353">
        <ele>162.6</ele>
        <time>2013-05-13T14:32:22Z</time>
      </trkpt>
      <trkpt lat="48.57615" lon="-3.54297">
        <ele>163.08</ele>
        <time>2013-05-13T14:32:38Z</time>
      </trkpt>
      <trkpt lat="48.57537" lon="-3.54283">
        <ele>165.48</ele>
        <time>2013-05-13T14:32:51Z</time>
      </trkpt>
      <trkpt lat="48.57475" lon="-3.54265">
        <ele>168.37</ele>
        <time>2013-05-13T14:33:03Z</time>
      </trkpt>
      <trkpt lat="48.57471" lon="-3.54263">
        <ele>168.37</ele>
        <time>2013-05-13T14:33:04Z</time>
      </trkpt>
      <trkpt lat="48.57445" lon="-3.54252">
        <ele>170.77</ele>
        <time>2013-05-13T14:33:10Z</time>
      </trkpt>
      <trkpt lat="48.57432" lon="-3.54244">
        <ele>171.25</ele>
        <time>2013-05-13T14:33:13Z</time>
      </trkpt>
      <trkpt lat="48.57421" lon="-3.54237">
        <ele>172.21</ele>
        <time>2013-05-13T14:33:16Z</time>
      </trkpt>
      <trkpt lat="48.57405" lon="-3.54227">
        <ele>173.66</ele>
        <time>2013-05-13T14:33:20Z</time>
      </trkpt>
      <trkpt lat="48.57387" lon="-3.54222">
        <ele>174.62</ele>
        <time>2013-05-13T14:33:24Z</time>
      </trkpt>
      <trkpt lat="48.57384" lon="-3.54221">
        <ele>174.62</ele>
        <time>2013-05-13T14:33:25Z</time>
      </trkpt>
      <trkpt lat="48.57344" lon="-3.54228">
        <ele>177.98</ele>
        <time>2013-05-13T14:33:35Z</time>
      </trkpt>
      <trkpt lat="48.57308" lon="-3.54238">
        <ele>180.87</ele>
        <time>2013-05-13T14:33:44Z</time>
      </trkpt>
      <trkpt lat="48.57288" lon="-3.54245">
        <ele>181.35</ele>
        <time>2013-05-13T14:33:49Z</time>
      </trkpt>
      <trkpt lat="48.57284" lon="-3.54247">
        <ele>182.31</ele>
        <time>2013-05-13T14:33:50Z</time>
      </trkpt>
      <trkpt lat="48.57222" lon="-3.5426">
        <ele>185.19</ele>
        <time>2013-05-13T14:34:06Z</time>
      </trkpt>
      <trkpt lat="48.57178" lon="-3.54268">
        <ele>188.56</ele>
        <time>2013-05-13T14:34:17Z</time>
      </trkpt>
      <trkpt lat="48.57139" lon="-3.54272">
        <ele>191.92</ele>
        <time>2013-05-13T14:34:28Z</time>
      </trkpt>
      <trkpt lat="48.57087" lon="-3.54271">
        <ele>195.28</ele>
        <time>2013-05-13T14:34:40Z</time>
      </trkpt>
      <trkpt lat="48.57079" lon="-3.54272">
        <ele>194.8</ele>
        <time>2013-05-13T14:34:42Z</time>
      </trkpt>
      <trkpt lat="48.57074" lon="-3.54274">
        <ele>195.28</ele>
        <time>2013-05-13T14:34:43Z</time>
      </trkpt>
      <trkpt lat="48.5707" lon="-3.54276">
        <ele>195.28</ele>
        <time>2013-05-13T14:34:44Z</time>
      </trkpt>
      <trkpt lat="48.57061" lon="-3.5428">
        <ele>195.77</ele>
        <time>2013-05-13T14:34:46Z</time>
      </trkpt>
      <trkpt lat="48.57056" lon="-3.54283">
        <ele>195.77</ele>
        <time>2013-05-13T14:34:47Z</time>
      </trkpt>
      <trkpt lat="48.56999" lon="-3.54337">
        <ele>199.13</ele>
        <time>2013-05-13T14:35:03Z</time>
      </trkpt>
      <trkpt lat="48.56996" lon="-3.54339">
        <ele>199.61</ele>
        <time>2013-05-13T14:35:04Z</time>
      </trkpt>
      <trkpt lat="48.56984" lon="-3.54343">
        <ele>199.61</ele>
        <time>2013-05-13T14:35:07Z</time>
      </trkpt>
      <trkpt lat="48.56971" lon="-3.54341">
        <ele>201.05</ele>
        <time>2013-05-13T14:35:10Z</time>
      </trkpt>
      <trkpt lat="48.56967" lon="-3.54339">
        <ele>201.05</ele>
        <time>2013-05-13T14:35:11Z</time>
      </trkpt>
      <trkpt lat="48.56919" lon="-3.54305">
        <ele>203.94</ele>
        <time>2013-05-13T14:35:24Z</time>
      </trkpt>
      <trkpt lat="48.56881" lon="-3.54279">
        <ele>207.3</ele>
        <time>2013-05-13T14:35:35Z</time>
      </trkpt>
      <trkpt lat="48.56848" lon="-3.54263">
        <ele>209.7</ele>
        <time>2013-05-13T14:35:45Z</time>
      </trkpt>
      <trkpt lat="48.56829" lon="-3.54245">
        <ele>209.7</ele>
        <time>2013-05-13T14:35:51Z</time>
      </trkpt>
      <trkpt lat="48.56827" lon="-3.5424">
        <ele>209.22</ele>
        <time>2013-05-13T14:35:52Z</time>
      </trkpt>
      <trkpt lat="48.56806" lon="-3.5418">
        <ele>209.7</ele>
        <time>2013-05-13T14:36:02Z</time>
      </trkpt>
      <trkpt lat="48.56802" lon="-3.54176">
        <ele>209.22</ele>
        <time>2013-05-13T14:36:03Z</time>
      </trkpt>
      <trkpt lat="48.56798" lon="-3.54172">
        <ele>209.22</ele>
        <time>2013-05-13T14:36:04Z</time>
      </trkpt>
      <trkpt lat="48.56794" lon="-3.54169">
        <ele>209.22</ele>
        <time>2013-05-13T14:36:05Z</time>
      </trkpt>
      <trkpt lat="48.56789" lon="-3.54167">
        <ele>209.22</ele>
        <time>2013-05-13T14:36:06Z</time>
      </trkpt>
      <trkpt lat="48.56784" lon="-3.54165">
        <ele>209.22</ele>
        <time>2013-05-13T14:36:07Z</time>
      </trkpt>
      <trkpt lat="48.56743" lon="-3.54152">
        <ele>208.26</ele>
        <time>2013-05-13T14:36:14Z</time>
      </trkpt>
      <trkpt lat="48.56736" lon="-3.54153">
        <ele>207.78</ele>
        <time>2013-05-13T14:36:15Z</time>
      </trkpt>
      <trkpt lat="48.56729" lon="-3.54155">
        <ele>207.78</ele>
        <time>2013-05-13T14:36:16Z</time>
      </trkpt>
      <trkpt lat="48.56672" lon="-3.54165">
        <ele>204.42</ele>
        <time>2013-05-13T14:36:24Z</time>
      </trkpt>
      <trkpt lat="48.56645" lon="-3.54165">
        <ele>201.05</ele>
        <time>2013-05-13T14:36:28Z</time>
      </trkpt>
      <trkpt lat="48.56625" lon="-3.54163">
        <ele>199.61</ele>
        <time>2013-05-13T14:36:36Z</time>
      </trkpt>
      <trkpt lat="48.56623" lon="-3.54164">
        <ele>200.09</ele>
        <time>2013-05-13T14:36:39Z</time>
      </trkpt>
      <trkpt lat="48.56621" lon="-3.54163">
        <ele>200.09</ele>
        <time>2013-05-13T14:36:40Z</time>
      </trkpt>
      <trkpt lat="48.56619" lon="-3.54159">
        <ele>200.09</ele>
        <time>2013-05-13T14:36:41Z</time>
      </trkpt>
      <trkpt lat="48.56619" lon="-3.54154">
        <ele>200.09</ele>
        <time>2013-05-13T14:36:42Z</time>
      </trkpt>
      <trkpt lat="48.56619" lon="-3.54148">
        <ele>200.57</ele>
        <time>2013-05-13T14:36:43Z</time>
      </trkpt>
      <trkpt lat="48.56618" lon="-3.54143">
        <ele>201.05</ele>
        <time>2013-05-13T14:36:44Z</time>
      </trkpt>
      <trkpt lat="48.56617" lon="-3.54137">
        <ele>201.05</ele>
        <time>2013-05-13T14:36:45Z</time>
      </trkpt>
      <trkpt lat="48.56613" lon="-3.54075">
        <ele>203.94</ele>
        <time>2013-05-13T14:36:55Z</time>
      </trkpt>
      <trkpt lat="48.56608" lon="-3.54034">
        <ele>206.34</ele>
        <time>2013-05-13T14:37:02Z</time>
      </trkpt>
      <trkpt lat="48.56602" lon="-3.53961">
        <ele>209.7</ele>
        <time>2013-05-13T14:37:14Z</time>
      </trkpt>
      <trkpt lat="48.56592" lon="-3.53866">
        <ele>212.59</ele>
        <time>2013-05-13T14:37:28Z</time>
      </trkpt>
      <trkpt lat="48.56578" lon="-3.53731">
        <ele>213.07</ele>
        <time>2013-05-13T14:37:45Z</time>
      </trkpt>
      <trkpt lat="48.56567" lon="-3.53593">
        <ele>210.19</ele>
        <time>2013-05-13T14:37:57Z</time>
      </trkpt>
      <trkpt lat="48.56546" lon="-3.53384">
        <ele>207.3</ele>
        <time>2013-05-13T14:38:13Z</time>
      </trkpt>
      <trkpt lat="48.56526" lon="-3.53198">
        <ele>207.78</ele>
        <time>2013-05-13T14:38:29Z</time>
      </trkpt>
      <trkpt lat="48.56505" lon="-3.5299">
        <ele>206.34</ele>
        <time>2013-05-13T14:38:47Z</time>
      </trkpt>
      <trkpt lat="48.56482" lon="-3.5278">
        <ele>204.9</ele>
        <time>2013-05-13T14:39:05Z</time>
      </trkpt>
      <trkpt lat="48.56478" lon="-3.52743">
        <ele>203.46</ele>
        <time>2013-05-13T14:39:08Z</time>
      </trkpt>
      <trkpt lat="48.56467" lon="-3.52657">
        <ele>201.53</ele>
        <time>2013-05-13T14:39:14Z</time>
      </trkpt>
      <trkpt lat="48.56457" lon="-3.52556">
        <ele>197.21</ele>
        <time>2013-05-13T14:39:20Z</time>
      </trkpt>
      <trkpt lat="48.56446" lon="-3.52463">
        <ele>193.84</ele>
        <time>2013-05-13T14:39:25Z</time>
      </trkpt>
      <trkpt lat="48.56442" lon="-3.52425">
        <ele>192.88</ele>
        <time>2013-05-13T14:39:27Z</time>
      </trkpt>
      <trkpt lat="48.56433" lon="-3.52332">
        <ele>190</ele>
        <time>2013-05-13T14:39:32Z</time>
      </trkpt>
      <trkpt lat="48.5641" lon="-3.52113">
        <ele>188.56</ele>
        <time>2013-05-13T14:39:45Z</time>
      </trkpt>
      <trkpt lat="48.56387" lon="-3.51891">
        <ele>187.11</ele>
        <time>2013-05-13T14:40:02Z</time>
      </trkpt>
      <trkpt lat="48.56367" lon="-3.51702">
        <ele>187.11</ele>
        <time>2013-05-13T14:40:17Z</time>
      </trkpt>
      <trkpt lat="48.56349" lon="-3.51534">
        <ele>188.08</ele>
        <time>2013-05-13T14:40:31Z</time>
      </trkpt>
      <trkpt lat="48.56327" lon="-3.51323">
        <ele>187.11</ele>
        <time>2013-05-13T14:40:48Z</time>
      </trkpt>
      <trkpt lat="48.56311" lon="-3.51159">
        <ele>183.75</ele>
        <time>2013-05-13T14:41:00Z</time>
      </trkpt>
      <trkpt lat="48.56298" lon="-3.51035">
        <ele>180.38</ele>
        <time>2013-05-13T14:41:08Z</time>
      </trkpt>
      <trkpt lat="48.56278" lon="-3.50843">
        <ele>179.42</ele>
        <time>2013-05-13T14:41:22Z</time>
      </trkpt>
      <trkpt lat="48.56258" lon="-3.50664">
        <ele>181.83</ele>
        <time>2013-05-13T14:41:38Z</time>
      </trkpt>
      <trkpt lat="48.56251" lon="-3.50571">
        <ele>185.19</ele>
        <time>2013-05-13T14:41:48Z</time>
      </trkpt>
      <trkpt lat="48.56242" lon="-3.50482">
        <ele>188.08</ele>
        <time>2013-05-13T14:41:58Z</time>
      </trkpt>
      <trkpt lat="48.56236" lon="-3.5041">
        <ele>191.44</ele>
        <time>2013-05-13T14:42:06Z</time>
      </trkpt>
      <trkpt lat="48.56224" lon="-3.50299">
        <ele>194.32</ele>
        <time>2013-05-13T14:42:19Z</time>
      </trkpt>
      <trkpt lat="48.5621" lon="-3.50172">
        <ele>198.17</ele>
        <time>2013-05-13T14:42:35Z</time>
      </trkpt>
      <trkpt lat="48.56205" lon="-3.50111">
        <ele>199.13</ele>
        <time>2013-05-13T14:42:44Z</time>
      </trkpt>
      <trkpt lat="48.56192" lon="-3.50006">
        <ele>201.05</ele>
        <time>2013-05-13T14:42:59Z</time>
      </trkpt>
      <trkpt lat="48.56177" lon="-3.49939">
        <ele>199.61</ele>
        <time>2013-05-13T14:43:12Z</time>
      </trkpt>
      <trkpt lat="48.56174" lon="-3.49939">
        <ele>199.61</ele>
        <time>2013-05-13T14:43:13Z</time>
      </trkpt>
      <trkpt lat="48.56171" lon="-3.4994">
        <ele>199.61</ele>
        <time>2013-05-13T14:43:14Z</time>
      </trkpt>
      <trkpt lat="48.56168" lon="-3.49942">
        <ele>199.61</ele>
        <time>2013-05-13T14:43:15Z</time>
      </trkpt>
      <trkpt lat="48.56121" lon="-3.5">
        <ele>199.13</ele>
        <time>2013-05-13T14:43:28Z</time>
      </trkpt>
      <trkpt lat="48.56051" lon="-3.50109">
        <ele>196.73</ele>
        <time>2013-05-13T14:43:44Z</time>
      </trkpt>
      <trkpt lat="48.55967" lon="-3.50217">
        <ele>195.77</ele>
        <time>2013-05-13T14:44:01Z</time>
      </trkpt>
      <trkpt lat="48.55878" lon="-3.50316">
        <ele>192.88</ele>
        <time>2013-05-13T14:44:17Z</time>
      </trkpt>
      <trkpt lat="48.55802" lon="-3.50395">
        <ele>189.52</ele>
        <time>2013-05-13T14:44:29Z</time>
      </trkpt>
      <trkpt lat="48.55704" lon="-3.50494">
        <ele>187.59</ele>
        <time>2013-05-13T14:44:44Z</time>
      </trkpt>
      <trkpt lat="48.55596" lon="-3.50582">
        <ele>185.19</ele>
        <time>2013-05-13T14:45:01Z</time>
      </trkpt>
      <trkpt lat="48.55496" lon="-3.50648">
        <ele>183.27</ele>
        <time>2013-05-13T14:45:16Z</time>
      </trkpt>
      <trkpt lat="48.55458" lon="-3.50661">
        <ele>181.35</ele>
        <time>2013-05-13T14:45:21Z</time>
      </trkpt>
      <trkpt lat="48.55372" lon="-3.50661">
        <ele>177.98</ele>
        <time>2013-05-13T14:45:32Z</time>
      </trkpt>
      <trkpt lat="48.55276" lon="-3.50626">
        <ele>176.06</ele>
        <time>2013-05-13T14:45:45Z</time>
      </trkpt>
      <trkpt lat="48.55204" lon="-3.50553">
        <ele>173.17</ele>
        <time>2013-05-13T14:45:56Z</time>
      </trkpt>
      <trkpt lat="48.55197" lon="-3.50545">
        <ele>172.69</ele>
        <time>2013-05-13T14:45:57Z</time>
      </trkpt>
      <trkpt lat="48.55105" lon="-3.50457">
        <ele>169.33</ele>
        <time>2013-05-13T14:46:10Z</time>
      </trkpt>
      <trkpt lat="48.55018" lon="-3.50416">
        <ele>166.45</ele>
        <time>2013-05-13T14:46:20Z</time>
      </trkpt>
      <trkpt lat="48.54918" lon="-3.50374">
        <ele>165.48</ele>
        <time>2013-05-13T14:46:33Z</time>
      </trkpt>
      <trkpt lat="48.54825" lon="-3.50342">
        <ele>168.37</ele>
        <time>2013-05-13T14:46:49Z</time>
      </trkpt>
      <trkpt lat="48.54703" lon="-3.50298">
        <ele>167.89</ele>
        <time>2013-05-13T14:47:09Z</time>
      </trkpt>
      <trkpt lat="48.54596" lon="-3.50259">
        <ele>165</ele>
        <time>2013-05-13T14:47:23Z</time>
      </trkpt>
      <trkpt lat="48.5449" lon="-3.50227">
        <ele>165</ele>
        <time>2013-05-13T14:47:38Z</time>
      </trkpt>
      <trkpt lat="48.54399" lon="-3.50195">
        <ele>167.41</ele>
        <time>2013-05-13T14:47:53Z</time>
      </trkpt>
      <trkpt lat="48.54324" lon="-3.50152">
        <ele>168.37</ele>
        <time>2013-05-13T14:48:06Z</time>
      </trkpt>
      <trkpt lat="48.54252" lon="-3.50113">
        <ele>171.25</ele>
        <time>2013-05-13T14:48:20Z</time>
      </trkpt>
      <trkpt lat="48.5418" lon="-3.50083">
        <ele>174.14</ele>
        <time>2013-05-13T14:48:35Z</time>
      </trkpt>
      <trkpt lat="48.54104" lon="-3.50061">
        <ele>177.5</ele>
        <time>2013-05-13T14:48:52Z</time>
      </trkpt>
      <trkpt lat="48.54095" lon="-3.50058">
        <ele>177.5</ele>
        <time>2013-05-13T14:48:54Z</time>
      </trkpt>
      <trkpt lat="48.54077" lon="-3.50053">
        <ele>177.98</ele>
        <time>2013-05-13T14:48:58Z</time>
      </trkpt>
      <trkpt lat="48.53981" lon="-3.50028">
        <ele>178.94</ele>
        <time>2013-05-13T14:49:17Z</time>
      </trkpt>
      <trkpt lat="48.53907" lon="-3.5004">
        <ele>180.87</ele>
        <time>2013-05-13T14:49:31Z</time>
      </trkpt>
      <trkpt lat="48.53903" lon="-3.50042">
        <ele>181.35</ele>
        <time>2013-05-13T14:49:32Z</time>
      </trkpt>
      <trkpt lat="48.5389" lon="-3.50049">
        <ele>181.83</ele>
        <time>2013-05-13T14:49:35Z</time>
      </trkpt>
      <trkpt lat="48.53885" lon="-3.50052">
        <ele>182.31</ele>
        <time>2013-05-13T14:49:36Z</time>
      </trkpt>
      <trkpt lat="48.5388" lon="-3.50056">
        <ele>182.31</ele>
        <time>2013-05-13T14:49:37Z</time>
      </trkpt>
      <trkpt lat="48.5385" lon="-3.50087">
        <ele>184.23</ele>
        <time>2013-05-13T14:49:44Z</time>
      </trkpt>
      <trkpt lat="48.5384" lon="-3.50101">
        <ele>184.71</ele>
        <time>2013-05-13T14:49:47Z</time>
      </trkpt>
      <trkpt lat="48.53836" lon="-3.50106">
        <ele>185.19</ele>
        <time>2013-05-13T14:49:48Z</time>
      </trkpt>
      <trkpt lat="48.53828" lon="-3.50115">
        <ele>185.19</ele>
        <time>2013-05-13T14:49:50Z</time>
      </trkpt>
      <trkpt lat="48.53746" lon="-3.50159">
        <ele>184.71</ele>
        <time>2013-05-13T14:50:06Z</time>
      </trkpt>
      <trkpt lat="48.53651" lon="-3.5018">
        <ele>184.71</ele>
        <time>2013-05-13T14:50:22Z</time>
      </trkpt>
      <trkpt lat="48.53539" lon="-3.50177">
        <ele>182.79</ele>
        <time>2013-05-13T14:50:39Z</time>
      </trkpt>
      <trkpt lat="48.53451" lon="-3.50164">
        <ele>178.94</ele>
        <time>2013-05-13T14:50:52Z</time>
      </trkpt>
      <trkpt lat="48.53336" lon="-3.50144">
        <ele>177.02</ele>
        <time>2013-05-13T14:51:08Z</time>
      </trkpt>
      <trkpt lat="48.53202" lon="-3.50103">
        <ele>175.58</ele>
        <time>2013-05-13T14:51:27Z</time>
      </trkpt>
      <trkpt lat="48.53118" lon="-3.50045">
        <ele>174.14</ele>
        <time>2013-05-13T14:51:41Z</time>
      </trkpt>
      <trkpt lat="48.53053" lon="-3.49949">
        <ele>170.77</ele>
        <time>2013-05-13T14:51:53Z</time>
      </trkpt>
      <trkpt lat="48.52988" lon="-3.49855">
        <ele>168.37</ele>
        <time>2013-05-13T14:52:04Z</time>
      </trkpt>
      <trkpt lat="48.52919" lon="-3.49786">
        <ele>168.85</ele>
        <time>2013-05-13T14:52:15Z</time>
      </trkpt>
      <trkpt lat="48.52862" lon="-3.49739">
        <ele>167.41</ele>
        <time>2013-05-13T14:52:24Z</time>
      </trkpt>
      <trkpt lat="48.52783" lon="-3.49726">
        <ele>168.85</ele>
        <time>2013-05-13T14:52:36Z</time>
      </trkpt>
      <trkpt lat="48.52714" lon="-3.49706">
        <ele>167.41</ele>
        <time>2013-05-13T14:52:47Z</time>
      </trkpt>
      <trkpt lat="48.5269" lon="-3.49687">
        <ele>166.93</ele>
        <time>2013-05-13T14:52:51Z</time>
      </trkpt>
      <trkpt lat="48.52636" lon="-3.49605">
        <ele>165.48</ele>
        <time>2013-05-13T14:53:02Z</time>
      </trkpt>
      <trkpt lat="48.52633" lon="-3.49596">
        <ele>165.48</ele>
        <time>2013-05-13T14:53:03Z</time>
      </trkpt>
      <trkpt lat="48.52612" lon="-3.49471">
        <ele>163.08</ele>
        <time>2013-05-13T14:53:15Z</time>
      </trkpt>
      <trkpt lat="48.52602" lon="-3.49321">
        <ele>160.2</ele>
        <time>2013-05-13T14:53:28Z</time>
      </trkpt>
      <trkpt lat="48.52591" lon="-3.49153">
        <ele>160.68</ele>
        <time>2013-05-13T14:53:43Z</time>
      </trkpt>
      <trkpt lat="48.52585" lon="-3.49083">
        <ele>160.2</ele>
        <time>2013-05-13T14:53:50Z</time>
      </trkpt>
      <trkpt lat="48.52583" lon="-3.49074">
        <ele>160.2</ele>
        <time>2013-05-13T14:53:51Z</time>
      </trkpt>
      <trkpt lat="48.5258" lon="-3.49064">
        <ele>160.2</ele>
        <time>2013-05-13T14:53:52Z</time>
      </trkpt>
      <trkpt lat="48.52578" lon="-3.49056">
        <ele>160.68</ele>
        <time>2013-05-13T14:53:53Z</time>
      </trkpt>
      <trkpt lat="48.52574" lon="-3.49047">
        <ele>160.68</ele>
        <time>2013-05-13T14:53:54Z</time>
      </trkpt>
      <trkpt lat="48.52526" lon="-3.48969">
        <ele>160.68</ele>
        <time>2013-05-13T14:54:05Z</time>
      </trkpt>
      <trkpt lat="48.52493" lon="-3.48921">
        <ele>160.2</ele>
        <time>2013-05-13T14:54:12Z</time>
      </trkpt>
      <trkpt lat="48.52488" lon="-3.48915">
        <ele>159.72</ele>
        <time>2013-05-13T14:54:13Z</time>
      </trkpt>
      <trkpt lat="48.52419" lon="-3.48817">
        <ele>157.79</ele>
        <time>2013-05-13T14:54:26Z</time>
      </trkpt>
      <trkpt lat="48.52408" lon="-3.48802">
        <ele>157.79</ele>
        <time>2013-05-13T14:54:28Z</time>
      </trkpt>
      <trkpt lat="48.52371" lon="-3.48765">
        <ele>155.39</ele>
        <time>2013-05-13T14:54:34Z</time>
      </trkpt>
      <trkpt lat="48.52366" lon="-3.48761">
        <ele>154.91</ele>
        <time>2013-05-13T14:54:35Z</time>
      </trkpt>
      <trkpt lat="48.52362" lon="-3.48757">
        <ele>154.91</ele>
        <time>2013-05-13T14:54:36Z</time>
      </trkpt>
      <trkpt lat="48.52359" lon="-3.48755">
        <ele>155.39</ele>
        <time>2013-05-13T14:54:37Z</time>
      </trkpt>
      <trkpt lat="48.52356" lon="-3.48754">
        <ele>154.43</ele>
        <time>2013-05-13T14:54:38Z</time>
      </trkpt>
      <trkpt lat="48.52354" lon="-3.48753">
        <ele>153.95</ele>
        <time>2013-05-13T14:54:39Z</time>
      </trkpt>
      <trkpt lat="48.52351" lon="-3.48751">
        <ele>154.43</ele>
        <time>2013-05-13T14:54:40Z</time>
      </trkpt>
      <trkpt lat="48.52341" lon="-3.48742">
        <ele>153.95</ele>
        <time>2013-05-13T14:54:43Z</time>
      </trkpt>
      <trkpt lat="48.52286" lon="-3.48705">
        <ele>152.99</ele>
        <time>2013-05-13T14:54:54Z</time>
      </trkpt>
      <trkpt lat="48.52264" lon="-3.48692">
        <ele>152.51</ele>
        <time>2013-05-13T14:54:58Z</time>
      </trkpt>
      <trkpt lat="48.5225" lon="-3.48687">
        <ele>152.03</ele>
        <time>2013-05-13T14:55:01Z</time>
      </trkpt>
      <trkpt lat="48.52246" lon="-3.48687">
        <ele>151.54</ele>
        <time>2013-05-13T14:55:02Z</time>
      </trkpt>
      <trkpt lat="48.52225" lon="-3.48686">
        <ele>151.06</ele>
        <time>2013-05-13T14:55:08Z</time>
      </trkpt>
      <trkpt lat="48.52224" lon="-3.48683">
        <ele>151.54</ele>
        <time>2013-05-13T14:55:09Z</time>
      </trkpt>
      <trkpt lat="48.52224" lon="-3.48679">
        <ele>151.06</ele>
        <time>2013-05-13T14:55:10Z</time>
      </trkpt>
      <trkpt lat="48.52225" lon="-3.48675">
        <ele>150.58</ele>
        <time>2013-05-13T14:55:11Z</time>
      </trkpt>
      <trkpt lat="48.52227" lon="-3.48671">
        <ele>150.58</ele>
        <time>2013-05-13T14:55:12Z</time>
      </trkpt>
      <trkpt lat="48.52229" lon="-3.48667">
        <ele>150.58</ele>
        <time>2013-05-13T14:55:13Z</time>
      </trkpt>
      <trkpt lat="48.52231" lon="-3.48655">
        <ele>150.58</ele>
        <time>2013-05-13T14:55:21Z</time>
      </trkpt>
      <trkpt lat="48.52232" lon="-3.48655">
        <ele>149.14</ele>
        <time>2013-05-13T14:55:36Z</time>
      </trkpt>
      <trkpt lat="48.52232" lon="-3.48656">
        <ele>150.58</ele>
        <time>2013-05-13T14:56:09Z</time>
      </trkpt>
      <trkpt lat="48.52231" lon="-3.48654">
        <ele>150.1</ele>
        <time>2013-05-13T14:56:28Z</time>
      </trkpt>
      <trkpt lat="48.52231" lon="-3.48653">
        <ele>150.1</ele>
        <time>2013-05-13T14:56:49Z</time>
      </trkpt>
      <trkpt lat="48.52231" lon="-3.48654">
        <ele>150.58</ele>
        <time>2013-05-13T14:57:09Z</time>
      </trkpt>
      <trkpt lat="48.5223" lon="-3.48656">
        <ele>150.58</ele>
        <time>2013-05-13T14:57:36Z</time>
      </trkpt>
      <trkpt lat="48.5223" lon="-3.48657">
        <ele>151.06</ele>
        <time>2013-05-13T14:57:56Z</time>
      </trkpt>
      <trkpt lat="48.5223" lon="-3.48656">
        <ele>151.06</ele>
        <time>2013-05-13T14:58:10Z</time>
      </trkpt>
      <trkpt lat="48.5223" lon="-3.48656">
        <ele>151.06</ele>
        <time>2013-05-13T14:58:25Z</time>
      </trkpt>
      <trkpt lat="48.5223" lon="-3.48656">
        <ele>151.06</ele>
        <time>2013-05-13T14:58:26Z</time>
      </trkpt>
      <trkpt lat="48.52233" lon="-3.48655">
        <ele>151.54</ele>
        <time>2013-05-13T14:58:28Z</time>
      </trkpt>
      <trkpt lat="48.52234" lon="-3.48654">
        <ele>151.54</ele>
        <time>2013-05-13T14:58:29Z</time>
      </trkpt>
      <trkpt lat="48.52235" lon="-3.48654">
        <ele>151.54</ele>
        <time>2013-05-13T14:58:30Z</time>
      </trkpt>
      <trkpt lat="48.52237" lon="-3.48652">
        <ele>151.54</ele>
        <time>2013-05-13T14:58:31Z</time>
      </trkpt>
      <trkpt lat="48.52238" lon="-3.4865">
        <ele>151.54</ele>
        <time>2013-05-13T14:58:32Z</time>
      </trkpt>
      <trkpt lat="48.5224" lon="-3.48646">
        <ele>151.54</ele>
        <time>2013-05-13T14:58:33Z</time>
      </trkpt>
      <trkpt lat="48.52253" lon="-3.48628">
        <ele>151.54</ele>
        <time>2013-05-13T14:58:38Z</time>
      </trkpt>
      <trkpt lat="48.52256" lon="-3.48623">
        <ele>151.54</ele>
        <time>2013-05-13T14:58:39Z</time>
      </trkpt>
      <trkpt lat="48.52296" lon="-3.48552">
        <ele>151.06</ele>
        <time>2013-05-13T14:58:51Z</time>
      </trkpt>
      <trkpt lat="48.52342" lon="-3.48454">
        <ele>151.06</ele>
        <time>2013-05-13T14:59:04Z</time>
      </trkpt>
      <trkpt lat="48.52418" lon="-3.4836">
        <ele>151.54</ele>
        <time>2013-05-13T14:59:19Z</time>
      </trkpt>
      <trkpt lat="48.5249" lon="-3.48254">
        <ele>150.58</ele>
        <time>2013-05-13T14:59:35Z</time>
      </trkpt>
      <trkpt lat="48.525" lon="-3.48244">
        <ele>150.58</ele>
        <time>2013-05-13T14:59:37Z</time>
      </trkpt>
      <trkpt lat="48.52505" lon="-3.4824">
        <ele>150.1</ele>
        <time>2013-05-13T14:59:38Z</time>
      </trkpt>
      <trkpt lat="48.52509" lon="-3.48237">
        <ele>150.1</ele>
        <time>2013-05-13T14:59:39Z</time>
      </trkpt>
      <trkpt lat="48.52514" lon="-3.48233">
        <ele>150.1</ele>
        <time>2013-05-13T14:59:40Z</time>
      </trkpt>
      <trkpt lat="48.52518" lon="-3.4823">
        <ele>150.1</ele>
        <time>2013-05-13T14:59:41Z</time>
      </trkpt>
      <trkpt lat="48.52579" lon="-3.48171">
        <ele>150.1</ele>
        <time>2013-05-13T14:59:52Z</time>
      </trkpt>
      <trkpt lat="48.52601" lon="-3.48151">
        <ele>150.58</ele>
        <time>2013-05-13T14:59:56Z</time>
      </trkpt>
      <trkpt lat="48.52605" lon="-3.48145">
        <ele>150.58</ele>
        <time>2013-05-13T14:59:57Z</time>
      </trkpt>
      <trkpt lat="48.52609" lon="-3.48138">
        <ele>150.1</ele>
        <time>2013-05-13T14:59:58Z</time>
      </trkpt>
      <trkpt lat="48.52613" lon="-3.48131">
        <ele>150.1</ele>
        <time>2013-05-13T14:59:59Z</time>
      </trkpt>
      <trkpt lat="48.52616" lon="-3.48123">
        <ele>150.58</ele>
        <time>2013-05-13T15:00:00Z</time>
      </trkpt>
      <trkpt lat="48.52618" lon="-3.48116">
        <ele>150.58</ele>
        <time>2013-05-13T15:00:01Z</time>
      </trkpt>
      <trkpt lat="48.52625" lon="-3.48091">
        <ele>151.54</ele>
        <time>2013-05-13T15:00:04Z</time>
      </trkpt>
      <trkpt lat="48.52657" lon="-3.47992">
        <ele>151.54</ele>
        <time>2013-05-13T15:00:16Z</time>
      </trkpt>
      <trkpt lat="48.52661" lon="-3.47985">
        <ele>151.54</ele>
        <time>2013-05-13T15:00:17Z</time>
      </trkpt>
      <trkpt lat="48.52675" lon="-3.47966">
        <ele>151.54</ele>
        <time>2013-05-13T15:00:20Z</time>
      </trkpt>
      <trkpt lat="48.5272" lon="-3.47921">
        <ele>152.03</ele>
        <time>2013-05-13T15:00:29Z</time>
      </trkpt>
      <trkpt lat="48.52788" lon="-3.47877">
        <ele>152.03</ele>
        <time>2013-05-13T15:00:41Z</time>
      </trkpt>
      <trkpt lat="48.52816" lon="-3.47862">
        <ele>151.54</ele>
        <time>2013-05-13T15:00:46Z</time>
      </trkpt>
      <trkpt lat="48.52823" lon="-3.4786">
        <ele>151.54</ele>
        <time>2013-05-13T15:00:47Z</time>
      </trkpt>
      <trkpt lat="48.52829" lon="-3.47858">
        <ele>151.54</ele>
        <time>2013-05-13T15:00:48Z</time>
      </trkpt>
      <trkpt lat="48.5285" lon="-3.47848">
        <ele>151.06</ele>
        <time>2013-05-13T15:00:52Z</time>
      </trkpt>
      <trkpt lat="48.5287" lon="-3.47843">
        <ele>151.54</ele>
        <time>2013-05-13T15:00:55Z</time>
      </trkpt>
      <trkpt lat="48.52882" lon="-3.4784">
        <ele>151.54</ele>
        <time>2013-05-13T15:00:57Z</time>
      </trkpt>
      <trkpt lat="48.52897" lon="-3.47832">
        <ele>151.54</ele>
        <time>2013-05-13T15:01:00Z</time>
      </trkpt>
      <trkpt lat="48.52901" lon="-3.47832">
        <ele>151.54</ele>
        <time>2013-05-13T15:01:01Z</time>
      </trkpt>
      <trkpt lat="48.5292" lon="-3.47828">
        <ele>151.54</ele>
        <time>2013-05-13T15:01:05Z</time>
      </trkpt>
      <trkpt lat="48.5297" lon="-3.47796">
        <ele>152.03</ele>
        <time>2013-05-13T15:01:15Z</time>
      </trkpt>
      <trkpt lat="48.52976" lon="-3.47793">
        <ele>152.03</ele>
        <time>2013-05-13T15:01:16Z</time>
      </trkpt>
      <trkpt lat="48.52982" lon="-3.47791">
        <ele>152.03</ele>
        <time>2013-05-13T15:01:17Z</time>
      </trkpt>
      <trkpt lat="48.52995" lon="-3.47788">
        <ele>152.03</ele>
        <time>2013-05-13T15:01:19Z</time>
      </trkpt>
      <trkpt lat="48.53007" lon="-3.47789">
        <ele>151.54</ele>
        <time>2013-05-13T15:01:21Z</time>
      </trkpt>
      <trkpt lat="48.53012" lon="-3.47791">
        <ele>151.54</ele>
        <time>2013-05-13T15:01:22Z</time>
      </trkpt>
      <trkpt lat="48.53018" lon="-3.4779">
        <ele>151.54</ele>
        <time>2013-05-13T15:01:23Z</time>
      </trkpt>
      <trkpt lat="48.53025" lon="-3.47788">
        <ele>151.54</ele>
        <time>2013-05-13T15:01:24Z</time>
      </trkpt>
      <trkpt lat="48.53032" lon="-3.47783">
        <ele>151.54</ele>
        <time>2013-05-13T15:01:25Z</time>
      </trkpt>
      <trkpt lat="48.53036" lon="-3.4778">
        <ele>151.06</ele>
        <time>2013-05-13T15:01:26Z</time>
      </trkpt>
      <trkpt lat="48.53072" lon="-3.47757">
        <ele>149.62</ele>
        <time>2013-05-13T15:01:32Z</time>
      </trkpt>
      <trkpt lat="48.53091" lon="-3.47746">
        <ele>148.66</ele>
        <time>2013-05-13T15:01:36Z</time>
      </trkpt>
      <trkpt lat="48.53095" lon="-3.4774">
        <ele>148.18</ele>
        <time>2013-05-13T15:01:37Z</time>
      </trkpt>
      <trkpt lat="48.53133" lon="-3.47678">
        <ele>146.74</ele>
        <time>2013-05-13T15:01:46Z</time>
      </trkpt>
      <trkpt lat="48.53138" lon="-3.47665">
        <ele>146.74</ele>
        <time>2013-05-13T15:01:48Z</time>
      </trkpt>
      <trkpt lat="48.5314" lon="-3.47659">
        <ele>146.74</ele>
        <time>2013-05-13T15:01:49Z</time>
      </trkpt>
      <trkpt lat="48.53155" lon="-3.4762">
        <ele>143.85</ele>
        <time>2013-05-13T15:01:57Z</time>
      </trkpt>
      <trkpt lat="48.53157" lon="-3.47612">
        <ele>143.37</ele>
        <time>2013-05-13T15:01:58Z</time>
      </trkpt>
      <trkpt lat="48.53191" lon="-3.47483">
        <ele>141.45</ele>
        <time>2013-05-13T15:02:08Z</time>
      </trkpt>
      <trkpt lat="48.53231" lon="-3.47301">
        <ele>139.05</ele>
        <time>2013-05-13T15:02:22Z</time>
      </trkpt>
      <trkpt lat="48.53233" lon="-3.47292">
        <ele>139.05</ele>
        <time>2013-05-13T15:02:23Z</time>
      </trkpt>
      <trkpt lat="48.53246" lon="-3.4715">
        <ele>138.57</ele>
        <time>2013-05-13T15:02:36Z</time>
      </trkpt>
      <trkpt lat="48.53271" lon="-3.46978">
        <ele>137.61</ele>
        <time>2013-05-13T15:02:52Z</time>
      </trkpt>
      <trkpt lat="48.53303" lon="-3.46831">
        <ele>137.61</ele>
        <time>2013-05-13T15:03:06Z</time>
      </trkpt>
      <trkpt lat="48.53354" lon="-3.46681">
        <ele>137.61</ele>
        <time>2013-05-13T15:03:21Z</time>
      </trkpt>
      <trkpt lat="48.53357" lon="-3.46671">
        <ele>137.61</ele>
        <time>2013-05-13T15:03:22Z</time>
      </trkpt>
      <trkpt lat="48.53403" lon="-3.46522">
        <ele>138.09</ele>
        <time>2013-05-13T15:03:38Z</time>
      </trkpt>
      <trkpt lat="48.53434" lon="-3.46425">
        <ele>138.57</ele>
        <time>2013-05-13T15:03:49Z</time>
      </trkpt>
      <trkpt lat="48.53437" lon="-3.46416">
        <ele>139.05</ele>
        <time>2013-05-13T15:03:50Z</time>
      </trkpt>
      <trkpt lat="48.53471" lon="-3.46311">
        <ele>140.49</ele>
        <time>2013-05-13T15:04:03Z</time>
      </trkpt>
      <trkpt lat="48.53474" lon="-3.46305">
        <ele>140.49</ele>
        <time>2013-05-13T15:04:04Z</time>
      </trkpt>
      <trkpt lat="48.53478" lon="-3.46299">
        <ele>140.97</ele>
        <time>2013-05-13T15:04:05Z</time>
      </trkpt>
      <trkpt lat="48.53528" lon="-3.46214">
        <ele>142.89</ele>
        <time>2013-05-13T15:04:18Z</time>
      </trkpt>
      <trkpt lat="48.53536" lon="-3.46198">
        <ele>142.89</ele>
        <time>2013-05-13T15:04:20Z</time>
      </trkpt>
      <trkpt lat="48.53595" lon="-3.4605">
        <ele>145.78</ele>
        <time>2013-05-13T15:04:38Z</time>
      </trkpt>
      <trkpt lat="48.53661" lon="-3.45945">
        <ele>146.74</ele>
        <time>2013-05-13T15:04:53Z</time>
      </trkpt>
      <trkpt lat="48.53724" lon="-3.45846">
        <ele>146.74</ele>
        <time>2013-05-13T15:05:07Z</time>
      </trkpt>
      <trkpt lat="48.53788" lon="-3.45716">
        <ele>146.26</ele>
        <time>2013-05-13T15:05:23Z</time>
      </trkpt>
      <trkpt lat="48.53807" lon="-3.45624">
        <ele>148.18</ele>
        <time>2013-05-13T15:05:33Z</time>
      </trkpt>
      <trkpt lat="48.53807" lon="-3.45615">
        <ele>148.18</ele>
        <time>2013-05-13T15:05:34Z</time>
      </trkpt>
      <trkpt lat="48.53807" lon="-3.45598">
        <ele>149.14</ele>
        <time>2013-05-13T15:05:36Z</time>
      </trkpt>
      <trkpt lat="48.53806" lon="-3.45591">
        <ele>149.14</ele>
        <time>2013-05-13T15:05:37Z</time>
      </trkpt>
      <trkpt lat="48.53804" lon="-3.45583">
        <ele>149.62</ele>
        <time>2013-05-13T15:05:38Z</time>
      </trkpt>
      <trkpt lat="48.53803" lon="-3.45576">
        <ele>149.62</ele>
        <time>2013-05-13T15:05:39Z</time>
      </trkpt>
      <trkpt lat="48.53802" lon="-3.45569">
        <ele>150.1</ele>
        <time>2013-05-13T15:05:40Z</time>
      </trkpt>
      <trkpt lat="48.53785" lon="-3.45504">
        <ele>152.99</ele>
        <time>2013-05-13T15:05:49Z</time>
      </trkpt>
      <trkpt lat="48.53782" lon="-3.45498">
        <ele>152.99</ele>
        <time>2013-05-13T15:05:50Z</time>
      </trkpt>
      <trkpt lat="48.53762" lon="-3.45454">
        <ele>155.39</ele>
        <time>2013-05-13T15:05:57Z</time>
      </trkpt>
      <trkpt lat="48.53725" lon="-3.45397">
        <ele>158.27</ele>
        <time>2013-05-13T15:06:08Z</time>
      </trkpt>
      <trkpt lat="48.53722" lon="-3.45391">
        <ele>158.75</ele>
        <time>2013-05-13T15:06:09Z</time>
      </trkpt>
      <trkpt lat="48.53719" lon="-3.45385">
        <ele>158.75</ele>
        <time>2013-05-13T15:06:10Z</time>
      </trkpt>
      <trkpt lat="48.53713" lon="-3.45372">
        <ele>159.24</ele>
        <time>2013-05-13T15:06:12Z</time>
      </trkpt>
      <trkpt lat="48.53711" lon="-3.45365">
        <ele>159.72</ele>
        <time>2013-05-13T15:06:13Z</time>
      </trkpt>
      <trkpt lat="48.53708" lon="-3.45351">
        <ele>160.2</ele>
        <time>2013-05-13T15:06:15Z</time>
      </trkpt>
      <trkpt lat="48.53706" lon="-3.45344">
        <ele>160.68</ele>
        <time>2013-05-13T15:06:16Z</time>
      </trkpt>
      <trkpt lat="48.53696" lon="-3.45269">
        <ele>163.56</ele>
        <time>2013-05-13T15:06:28Z</time>
      </trkpt>
      <trkpt lat="48.53689" lon="-3.45205">
        <ele>166.45</ele>
        <time>2013-05-13T15:06:38Z</time>
      </trkpt>
      <trkpt lat="48.53682" lon="-3.45172">
        <ele>166.93</ele>
        <time>2013-05-13T15:06:43Z</time>
      </trkpt>
      <trkpt lat="48.53679" lon="-3.45166">
        <ele>166.93</ele>
        <time>2013-05-13T15:06:44Z</time>
      </trkpt>
      <trkpt lat="48.53655" lon="-3.45123">
        <ele>168.85</ele>
        <time>2013-05-13T15:06:52Z</time>
      </trkpt>
      <trkpt lat="48.53652" lon="-3.45119">
        <ele>169.33</ele>
        <time>2013-05-13T15:06:53Z</time>
      </trkpt>
      <trkpt lat="48.53626" lon="-3.45089">
        <ele>170.77</ele>
        <time>2013-05-13T15:07:00Z</time>
      </trkpt>
      <trkpt lat="48.53622" lon="-3.45086">
        <ele>171.73</ele>
        <time>2013-05-13T15:07:01Z</time>
      </trkpt>
      <trkpt lat="48.53607" lon="-3.45068">
        <ele>171.73</ele>
        <time>2013-05-13T15:07:05Z</time>
      </trkpt>
      <trkpt lat="48.53598" lon="-3.45054">
        <ele>172.21</ele>
        <time>2013-05-13T15:07:08Z</time>
      </trkpt>
      <trkpt lat="48.53594" lon="-3.45048">
        <ele>172.69</ele>
        <time>2013-05-13T15:07:09Z</time>
      </trkpt>
      <trkpt lat="48.53592" lon="-3.45042">
        <ele>173.17</ele>
        <time>2013-05-13T15:07:10Z</time>
      </trkpt>
      <trkpt lat="48.5359" lon="-3.45036">
        <ele>173.17</ele>
        <time>2013-05-13T15:07:11Z</time>
      </trkpt>
      <trkpt lat="48.53588" lon="-3.45029">
        <ele>173.66</ele>
        <time>2013-05-13T15:07:12Z</time>
      </trkpt>
      <trkpt lat="48.53588" lon="-3.45022">
        <ele>173.66</ele>
        <time>2013-05-13T15:07:13Z</time>
      </trkpt>
      <trkpt lat="48.53587" lon="-3.45015">
        <ele>173.66</ele>
        <time>2013-05-13T15:07:14Z</time>
      </trkpt>
      <trkpt lat="48.53587" lon="-3.45008">
        <ele>174.14</ele>
        <time>2013-05-13T15:07:15Z</time>
      </trkpt>
      <trkpt lat="48.53588" lon="-3.45001">
        <ele>174.62</ele>
        <time>2013-05-13T15:07:16Z</time>
      </trkpt>
      <trkpt lat="48.53589" lon="-3.44995">
        <ele>174.62</ele>
        <time>2013-05-13T15:07:17Z</time>
      </trkpt>
      <trkpt lat="48.53591" lon="-3.44988">
        <ele>175.1</ele>
        <time>2013-05-13T15:07:18Z</time>
      </trkpt>
      <trkpt lat="48.53593" lon="-3.44982">
        <ele>175.58</ele>
        <time>2013-05-13T15:07:19Z</time>
      </trkpt>
      <trkpt lat="48.53595" lon="-3.44976">
        <ele>176.06</ele>
        <time>2013-05-13T15:07:20Z</time>
      </trkpt>
      <trkpt lat="48.53598" lon="-3.44971">
        <ele>176.06</ele>
        <time>2013-05-13T15:07:21Z</time>
      </trkpt>
      <trkpt lat="48.53601" lon="-3.44966">
        <ele>176.06</ele>
        <time>2013-05-13T15:07:22Z</time>
      </trkpt>
      <trkpt lat="48.53604" lon="-3.44961">
        <ele>176.54</ele>
        <time>2013-05-13T15:07:23Z</time>
      </trkpt>
      <trkpt lat="48.53607" lon="-3.44957">
        <ele>176.54</ele>
        <time>2013-05-13T15:07:24Z</time>
      </trkpt>
      <trkpt lat="48.53664" lon="-3.44887">
        <ele>178.94</ele>
        <time>2013-05-13T15:07:39Z</time>
      </trkpt>
      <trkpt lat="48.53733" lon="-3.44795">
        <ele>178.94</ele>
        <time>2013-05-13T15:07:54Z</time>
      </trkpt>
      <trkpt lat="48.53802" lon="-3.44714">
        <ele>179.42</ele>
        <time>2013-05-13T15:08:08Z</time>
      </trkpt>
      <trkpt lat="48.5389" lon="-3.44601">
        <ele>181.35</ele>
        <time>2013-05-13T15:08:26Z</time>
      </trkpt>
      <trkpt lat="48.53985" lon="-3.44486">
        <ele>183.27</ele>
        <time>2013-05-13T15:08:45Z</time>
      </trkpt>
      <trkpt lat="48.54063" lon="-3.44384">
        <ele>185.19</ele>
        <time>2013-05-13T15:09:01Z</time>
      </trkpt>
      <trkpt lat="48.54175" lon="-3.44307">
        <ele>186.63</ele>
        <time>2013-05-13T15:09:20Z</time>
      </trkpt>
      <trkpt lat="48.54267" lon="-3.44232">
        <ele>188.08</ele>
        <time>2013-05-13T15:09:36Z</time>
      </trkpt>
      <trkpt lat="48.54359" lon="-3.44163">
        <ele>191.44</ele>
        <time>2013-05-13T15:09:53Z</time>
      </trkpt>
      <trkpt lat="48.54463" lon="-3.44108">
        <ele>193.84</ele>
        <time>2013-05-13T15:10:12Z</time>
      </trkpt>
      <trkpt lat="48.54558" lon="-3.4409">
        <ele>193.84</ele>
        <time>2013-05-13T15:10:28Z</time>
      </trkpt>
      <trkpt lat="48.54616" lon="-3.44085">
        <ele>193.36</ele>
        <time>2013-05-13T15:10:37Z</time>
      </trkpt>
      <trkpt lat="48.54623" lon="-3.44086">
        <ele>192.88</ele>
        <time>2013-05-13T15:10:38Z</time>
      </trkpt>
      <trkpt lat="48.54722" lon="-3.44091">
        <ele>192.4</ele>
        <time>2013-05-13T15:10:53Z</time>
      </trkpt>
      <trkpt lat="48.54837" lon="-3.44099">
        <ele>191.44</ele>
        <time>2013-05-13T15:11:10Z</time>
      </trkpt>
      <trkpt lat="48.54949" lon="-3.44093">
        <ele>192.4</ele>
        <time>2013-05-13T15:11:27Z</time>
      </trkpt>
      <trkpt lat="48.55067" lon="-3.44101">
        <ele>193.84</ele>
        <time>2013-05-13T15:11:45Z</time>
      </trkpt>
      <trkpt lat="48.55074" lon="-3.441">
        <ele>193.84</ele>
        <time>2013-05-13T15:11:46Z</time>
      </trkpt>
      <trkpt lat="48.55116" lon="-3.44085">
        <ele>193.36</ele>
        <time>2013-05-13T15:11:53Z</time>
      </trkpt>
      <trkpt lat="48.55141" lon="-3.44084">
        <ele>193.36</ele>
        <time>2013-05-13T15:11:57Z</time>
      </trkpt>
      <trkpt lat="48.55147" lon="-3.44085">
        <ele>193.36</ele>
        <time>2013-05-13T15:11:58Z</time>
      </trkpt>
      <trkpt lat="48.55153" lon="-3.44087">
        <ele>193.36</ele>
        <time>2013-05-13T15:11:59Z</time>
      </trkpt>
      <trkpt lat="48.55158" lon="-3.4409">
        <ele>193.36</ele>
        <time>2013-05-13T15:12:00Z</time>
      </trkpt>
      <trkpt lat="48.55164" lon="-3.44093">
        <ele>193.36</ele>
        <time>2013-05-13T15:12:01Z</time>
      </trkpt>
      <trkpt lat="48.55227" lon="-3.44132">
        <ele>195.28</ele>
        <time>2013-05-13T15:12:12Z</time>
      </trkpt>
      <trkpt lat="48.55232" lon="-3.44135">
        <ele>194.8</ele>
        <time>2013-05-13T15:12:13Z</time>
      </trkpt>
      <trkpt lat="48.55238" lon="-3.44137">
        <ele>194.8</ele>
        <time>2013-05-13T15:12:14Z</time>
      </trkpt>
      <trkpt lat="48.55244" lon="-3.44138">
        <ele>195.28</ele>
        <time>2013-05-13T15:12:15Z</time>
      </trkpt>
      <trkpt lat="48.55251" lon="-3.44139">
        <ele>195.28</ele>
        <time>2013-05-13T15:12:16Z</time>
      </trkpt>
      <trkpt lat="48.55269" lon="-3.44139">
        <ele>196.25</ele>
        <time>2013-05-13T15:12:19Z</time>
      </trkpt>
      <trkpt lat="48.55275" lon="-3.44137">
        <ele>196.25</ele>
        <time>2013-05-13T15:12:20Z</time>
      </trkpt>
      <trkpt lat="48.55351" lon="-3.44121">
        <ele>198.17</ele>
        <time>2013-05-13T15:12:33Z</time>
      </trkpt>
      <trkpt lat="48.55438" lon="-3.44126">
        <ele>199.61</ele>
        <time>2013-05-13T15:12:49Z</time>
      </trkpt>
      <trkpt lat="48.55493" lon="-3.44103">
        <ele>200.57</ele>
        <time>2013-05-13T15:13:00Z</time>
      </trkpt>
      <trkpt lat="48.55496" lon="-3.441">
        <ele>201.05</ele>
        <time>2013-05-13T15:13:01Z</time>
      </trkpt>
      <trkpt lat="48.555" lon="-3.44098">
        <ele>201.53</ele>
        <time>2013-05-13T15:13:02Z</time>
      </trkpt>
      <trkpt lat="48.55504" lon="-3.44097">
        <ele>201.53</ele>
        <time>2013-05-13T15:13:03Z</time>
      </trkpt>
      <trkpt lat="48.55508" lon="-3.44094">
        <ele>202.01</ele>
        <time>2013-05-13T15:13:04Z</time>
      </trkpt>
      <trkpt lat="48.55512" lon="-3.44091">
        <ele>202.49</ele>
        <time>2013-05-13T15:13:05Z</time>
      </trkpt>
      <trkpt lat="48.55515" lon="-3.44089">
        <ele>202.98</ele>
        <time>2013-05-13T15:13:06Z</time>
      </trkpt>
      <trkpt lat="48.55519" lon="-3.44085">
        <ele>202.98</ele>
        <time>2013-05-13T15:13:07Z</time>
      </trkpt>
      <trkpt lat="48.55528" lon="-3.44074">
        <ele>203.94</ele>
        <time>2013-05-13T15:13:10Z</time>
      </trkpt>
      <trkpt lat="48.55531" lon="-3.44071">
        <ele>203.94</ele>
        <time>2013-05-13T15:13:11Z</time>
      </trkpt>
      <trkpt lat="48.55535" lon="-3.4407">
        <ele>203.94</ele>
        <time>2013-05-13T15:13:12Z</time>
      </trkpt>
      <trkpt lat="48.55538" lon="-3.44073">
        <ele>204.42</ele>
        <time>2013-05-13T15:13:13Z</time>
      </trkpt>
      <trkpt lat="48.5554" lon="-3.44078">
        <ele>204.42</ele>
        <time>2013-05-13T15:13:14Z</time>
      </trkpt>
      <trkpt lat="48.55542" lon="-3.44083">
        <ele>204.42</ele>
        <time>2013-05-13T15:13:15Z</time>
      </trkpt>
      <trkpt lat="48.55543" lon="-3.4409">
        <ele>204.42</ele>
        <time>2013-05-13T15:13:16Z</time>
      </trkpt>
      <trkpt lat="48.55544" lon="-3.44096">
        <ele>203.94</ele>
        <time>2013-05-13T15:13:17Z</time>
      </trkpt>
      <trkpt lat="48.55546" lon="-3.4411">
        <ele>204.42</ele>
        <time>2013-05-13T15:13:19Z</time>
      </trkpt>
      <trkpt lat="48.55553" lon="-3.44135">
        <ele>204.42</ele>
        <time>2013-05-13T15:13:23Z</time>
      </trkpt>
      <trkpt lat="48.55573" lon="-3.44244">
        <ele>207.78</ele>
        <time>2013-05-13T15:13:40Z</time>
      </trkpt>
      <trkpt lat="48.55574" lon="-3.4425">
        <ele>207.78</ele>
        <time>2013-05-13T15:13:41Z</time>
      </trkpt>
      <trkpt lat="48.55583" lon="-3.44287">
        <ele>209.22</ele>
        <time>2013-05-13T15:13:47Z</time>
      </trkpt>
      <trkpt lat="48.55587" lon="-3.44306">
        <ele>209.7</ele>
        <time>2013-05-13T15:13:50Z</time>
      </trkpt>
      <trkpt lat="48.55588" lon="-3.44312">
        <ele>209.7</ele>
        <time>2013-05-13T15:13:51Z</time>
      </trkpt>
      <trkpt lat="48.55603" lon="-3.44351">
        <ele>211.15</ele>
        <time>2013-05-13T15:13:58Z</time>
      </trkpt>
      <trkpt lat="48.55609" lon="-3.44369">
        <ele>211.63</ele>
        <time>2013-05-13T15:14:01Z</time>
      </trkpt>
      <trkpt lat="48.55631" lon="-3.44439">
        <ele>214.03</ele>
        <time>2013-05-13T15:14:14Z</time>
      </trkpt>
      <trkpt lat="48.55636" lon="-3.44457">
        <ele>213.55</ele>
        <time>2013-05-13T15:14:17Z</time>
      </trkpt>
      <trkpt lat="48.55643" lon="-3.44487">
        <ele>214.03</ele>
        <time>2013-05-13T15:14:22Z</time>
      </trkpt>
      <trkpt lat="48.55645" lon="-3.44493">
        <ele>214.03</ele>
        <time>2013-05-13T15:14:23Z</time>
      </trkpt>
      <trkpt lat="48.55687" lon="-3.44601">
        <ele>212.59</ele>
        <time>2013-05-13T15:14:38Z</time>
      </trkpt>
      <trkpt lat="48.55697" lon="-3.44632">
        <ele>211.63</ele>
        <time>2013-05-13T15:14:42Z</time>
      </trkpt>
      <trkpt lat="48.55724" lon="-3.44703">
        <ele>211.63</ele>
        <time>2013-05-13T15:14:51Z</time>
      </trkpt>
      <trkpt lat="48.55727" lon="-3.44719">
        <ele>210.67</ele>
        <time>2013-05-13T15:14:53Z</time>
      </trkpt>
      <trkpt lat="48.55729" lon="-3.44727">
        <ele>210.67</ele>
        <time>2013-05-13T15:14:54Z</time>
      </trkpt>
      <trkpt lat="48.55735" lon="-3.44755">
        <ele>210.19</ele>
        <time>2013-05-13T15:14:57Z</time>
      </trkpt>
      <trkpt lat="48.55737" lon="-3.44764">
        <ele>210.19</ele>
        <time>2013-05-13T15:14:58Z</time>
      </trkpt>
      <trkpt lat="48.5574" lon="-3.44773">
        <ele>210.19</ele>
        <time>2013-05-13T15:14:59Z</time>
      </trkpt>
      <trkpt lat="48.55742" lon="-3.44782">
        <ele>210.19</ele>
        <time>2013-05-13T15:15:00Z</time>
      </trkpt>
      <trkpt lat="48.55745" lon="-3.44791">
        <ele>209.7</ele>
        <time>2013-05-13T15:15:01Z</time>
      </trkpt>
      <trkpt lat="48.55779" lon="-3.44884">
        <ele>208.74</ele>
        <time>2013-05-13T15:15:11Z</time>
      </trkpt>
      <trkpt lat="48.55786" lon="-3.44904">
        <ele>208.26</ele>
        <time>2013-05-13T15:15:13Z</time>
      </trkpt>
      <trkpt lat="48.5581" lon="-3.44959">
        <ele>205.86</ele>
        <time>2013-05-13T15:15:19Z</time>
      </trkpt>
      <trkpt lat="48.55815" lon="-3.44968">
        <ele>206.34</ele>
        <time>2013-05-13T15:15:20Z</time>
      </trkpt>
      <trkpt lat="48.5582" lon="-3.44976">
        <ele>205.86</ele>
        <time>2013-05-13T15:15:21Z</time>
      </trkpt>
      <trkpt lat="48.55892" lon="-3.45073">
        <ele>202.98</ele>
        <time>2013-05-13T15:15:34Z</time>
      </trkpt>
      <trkpt lat="48.55906" lon="-3.45085">
        <ele>202.01</ele>
        <time>2013-05-13T15:15:36Z</time>
      </trkpt>
      <trkpt lat="48.55951" lon="-3.45124">
        <ele>198.65</ele>
        <time>2013-05-13T15:15:42Z</time>
      </trkpt>
      <trkpt lat="48.55975" lon="-3.45146">
        <ele>196.73</ele>
        <time>2013-05-13T15:15:45Z</time>
      </trkpt>
      <trkpt lat="48.56036" lon="-3.45183">
        <ele>193.36</ele>
        <time>2013-05-13T15:15:52Z</time>
      </trkpt>
      <trkpt lat="48.56053" lon="-3.45193">
        <ele>192.4</ele>
        <time>2013-05-13T15:15:54Z</time>
      </trkpt>
      <trkpt lat="48.56084" lon="-3.45219">
        <ele>191.92</ele>
        <time>2013-05-13T15:15:58Z</time>
      </trkpt>
      <trkpt lat="48.56113" lon="-3.45254">
        <ele>189.52</ele>
        <time>2013-05-13T15:16:02Z</time>
      </trkpt>
      <trkpt lat="48.56127" lon="-3.45272">
        <ele>188.56</ele>
        <time>2013-05-13T15:16:04Z</time>
      </trkpt>
      <trkpt lat="48.56194" lon="-3.45365">
        <ele>187.59</ele>
        <time>2013-05-13T15:16:16Z</time>
      </trkpt>
      <trkpt lat="48.56203" lon="-3.45377">
        <ele>188.56</ele>
        <time>2013-05-13T15:16:18Z</time>
      </trkpt>
      <trkpt lat="48.56241" lon="-3.45442">
        <ele>188.56</ele>
        <time>2013-05-13T15:16:29Z</time>
      </trkpt>
      <trkpt lat="48.56246" lon="-3.45447">
        <ele>188.56</ele>
        <time>2013-05-13T15:16:30Z</time>
      </trkpt>
      <trkpt lat="48.56252" lon="-3.4545">
        <ele>188.08</ele>
        <time>2013-05-13T15:16:31Z</time>
      </trkpt>
      <trkpt lat="48.5626" lon="-3.45452">
        <ele>188.08</ele>
        <time>2013-05-13T15:16:32Z</time>
      </trkpt>
      <trkpt lat="48.56267" lon="-3.45451">
        <ele>188.08</ele>
        <time>2013-05-13T15:16:33Z</time>
      </trkpt>
      <trkpt lat="48.56275" lon="-3.45449">
        <ele>188.08</ele>
        <time>2013-05-13T15:16:34Z</time>
      </trkpt>
      <trkpt lat="48.56282" lon="-3.45445">
        <ele>187.59</ele>
        <time>2013-05-13T15:16:35Z</time>
      </trkpt>
      <trkpt lat="48.56308" lon="-3.45436">
        <ele>188.56</ele>
        <time>2013-05-13T15:16:39Z</time>
      </trkpt>
      <trkpt lat="48.56325" lon="-3.45438">
        <ele>188.56</ele>
        <time>2013-05-13T15:16:42Z</time>
      </trkpt>
      <trkpt lat="48.56336" lon="-3.45442">
        <ele>188.56</ele>
        <time>2013-05-13T15:16:44Z</time>
      </trkpt>
      <trkpt lat="48.56346" lon="-3.45447">
        <ele>189.04</ele>
        <time>2013-05-13T15:16:46Z</time>
      </trkpt>
      <trkpt lat="48.56355" lon="-3.4545">
        <ele>190</ele>
        <time>2013-05-13T15:16:48Z</time>
      </trkpt>
      <trkpt lat="48.56359" lon="-3.45453">
        <ele>190</ele>
        <time>2013-05-13T15:16:49Z</time>
      </trkpt>
      <trkpt lat="48.56364" lon="-3.45456">
        <ele>190.48</ele>
        <time>2013-05-13T15:16:50Z</time>
      </trkpt>
      <trkpt lat="48.56383" lon="-3.45465">
        <ele>190.96</ele>
        <time>2013-05-13T15:16:54Z</time>
      </trkpt>
      <trkpt lat="48.56408" lon="-3.45472">
        <ele>191.92</ele>
        <time>2013-05-13T15:16:59Z</time>
      </trkpt>
      <trkpt lat="48.56429" lon="-3.45472">
        <ele>193.36</ele>
        <time>2013-05-13T15:17:03Z</time>
      </trkpt>
      <trkpt lat="48.56434" lon="-3.45473">
        <ele>193.84</ele>
        <time>2013-05-13T15:17:04Z</time>
      </trkpt>
      <trkpt lat="48.5645" lon="-3.45477">
        <ele>194.32</ele>
        <time>2013-05-13T15:17:07Z</time>
      </trkpt>
      <trkpt lat="48.56455" lon="-3.4548">
        <ele>193.36</ele>
        <time>2013-05-13T15:17:08Z</time>
      </trkpt>
      <trkpt lat="48.56482" lon="-3.45488">
        <ele>193.36</ele>
        <time>2013-05-13T15:17:13Z</time>
      </trkpt>
      <trkpt lat="48.56493" lon="-3.4549">
        <ele>192.88</ele>
        <time>2013-05-13T15:17:15Z</time>
      </trkpt>
      <trkpt lat="48.56514" lon="-3.45499">
        <ele>192.88</ele>
        <time>2013-05-13T15:17:19Z</time>
      </trkpt>
      <trkpt lat="48.5652" lon="-3.45503">
        <ele>192.88</ele>
        <time>2013-05-13T15:17:20Z</time>
      </trkpt>
      <trkpt lat="48.56525" lon="-3.45508">
        <ele>192.88</ele>
        <time>2013-05-13T15:17:21Z</time>
      </trkpt>
      <trkpt lat="48.5653" lon="-3.45514">
        <ele>192.4</ele>
        <time>2013-05-13T15:17:22Z</time>
      </trkpt>
      <trkpt lat="48.56535" lon="-3.4552">
        <ele>191.92</ele>
        <time>2013-05-13T15:17:23Z</time>
      </trkpt>
      <trkpt lat="48.56539" lon="-3.45527">
        <ele>191.92</ele>
        <time>2013-05-13T15:17:24Z</time>
      </trkpt>
      <trkpt lat="48.56544" lon="-3.45534">
        <ele>191.44</ele>
        <time>2013-05-13T15:17:25Z</time>
      </trkpt>
      <trkpt lat="48.56596" lon="-3.45602">
        <ele>193.36</ele>
        <time>2013-05-13T15:17:37Z</time>
      </trkpt>
      <trkpt lat="48.56636" lon="-3.45652">
        <ele>196.25</ele>
        <time>2013-05-13T15:17:48Z</time>
      </trkpt>
      <trkpt lat="48.56694" lon="-3.45723">
        <ele>197.21</ele>
        <time>2013-05-13T15:18:02Z</time>
      </trkpt>
      <trkpt lat="48.56758" lon="-3.4581">
        <ele>197.21</ele>
        <time>2013-05-13T15:18:16Z</time>
      </trkpt>
      <trkpt lat="48.56829" lon="-3.45901">
        <ele>198.65</ele>
        <time>2013-05-13T15:18:32Z</time>
      </trkpt>
      <trkpt lat="48.56867" lon="-3.4595">
        <ele>198.17</ele>
        <time>2013-05-13T15:18:40Z</time>
      </trkpt>
      <trkpt lat="48.56956" lon="-3.46035">
        <ele>196.73</ele>
        <time>2013-05-13T15:18:55Z</time>
      </trkpt>
      <trkpt lat="48.57038" lon="-3.46107">
        <ele>197.21</ele>
        <time>2013-05-13T15:19:10Z</time>
      </trkpt>
      <trkpt lat="48.57137" lon="-3.46172">
        <ele>198.17</ele>
        <time>2013-05-13T15:19:27Z</time>
      </trkpt>
      <trkpt lat="48.57261" lon="-3.4622">
        <ele>197.21</ele>
        <time>2013-05-13T15:19:46Z</time>
      </trkpt>
      <trkpt lat="48.57287" lon="-3.46225">
        <ele>197.21</ele>
        <time>2013-05-13T15:19:50Z</time>
      </trkpt>
      <trkpt lat="48.57396" lon="-3.46252">
        <ele>199.61</ele>
        <time>2013-05-13T15:20:08Z</time>
      </trkpt>
      <trkpt lat="48.57483" lon="-3.46273">
        <ele>201.53</ele>
        <time>2013-05-13T15:20:23Z</time>
      </trkpt>
      <trkpt lat="48.57574" lon="-3.46295">
        <ele>201.53</ele>
        <time>2013-05-13T15:20:38Z</time>
      </trkpt>
      <trkpt lat="48.57677" lon="-3.46319">
        <ele>199.13</ele>
        <time>2013-05-13T15:20:53Z</time>
      </trkpt>
      <trkpt lat="48.57772" lon="-3.46334">
        <ele>198.65</ele>
        <time>2013-05-13T15:21:06Z</time>
      </trkpt>
      <trkpt lat="48.57799" lon="-3.46325">
        <ele>198.65</ele>
        <time>2013-05-13T15:21:10Z</time>
      </trkpt>
      <trkpt lat="48.57806" lon="-3.46321">
        <ele>198.17</ele>
        <time>2013-05-13T15:21:11Z</time>
      </trkpt>
      <trkpt lat="48.57812" lon="-3.46317">
        <ele>198.17</ele>
        <time>2013-05-13T15:21:12Z</time>
      </trkpt>
      <trkpt lat="48.57846" lon="-3.46273">
        <ele>197.21</ele>
        <time>2013-05-13T15:21:18Z</time>
      </trkpt>
      <trkpt lat="48.57895" lon="-3.46173">
        <ele>193.84</ele>
        <time>2013-05-13T15:21:28Z</time>
      </trkpt>
      <trkpt lat="48.57927" lon="-3.46108">
        <ele>191.92</ele>
        <time>2013-05-13T15:21:34Z</time>
      </trkpt>
      <trkpt lat="48.5798" lon="-3.46007">
        <ele>188.56</ele>
        <time>2013-05-13T15:21:43Z</time>
      </trkpt>
      <trkpt lat="48.58015" lon="-3.45952">
        <ele>185.19</ele>
        <time>2013-05-13T15:21:48Z</time>
      </trkpt>
      <trkpt lat="48.58023" lon="-3.45942">
        <ele>185.19</ele>
        <time>2013-05-13T15:21:49Z</time>
      </trkpt>
      <trkpt lat="48.58087" lon="-3.45861">
        <ele>182.31</ele>
        <time>2013-05-13T15:21:57Z</time>
      </trkpt>
      <trkpt lat="48.5811" lon="-3.45829">
        <ele>182.31</ele>
        <time>2013-05-13T15:22:00Z</time>
      </trkpt>
      <trkpt lat="48.58203" lon="-3.45712">
        <ele>180.87</ele>
        <time>2013-05-13T15:22:12Z</time>
      </trkpt>
      <trkpt lat="48.58265" lon="-3.45635">
        <ele>177.98</ele>
        <time>2013-05-13T15:22:21Z</time>
      </trkpt>
      <trkpt lat="48.58305" lon="-3.45598">
        <ele>176.06</ele>
        <time>2013-05-13T15:22:26Z</time>
      </trkpt>
      <trkpt lat="48.58366" lon="-3.45545">
        <ele>172.69</ele>
        <time>2013-05-13T15:22:33Z</time>
      </trkpt>
      <trkpt lat="48.58391" lon="-3.45519">
        <ele>171.25</ele>
        <time>2013-05-13T15:22:36Z</time>
      </trkpt>
      <trkpt lat="48.58438" lon="-3.45453">
        <ele>167.89</ele>
        <time>2013-05-13T15:22:42Z</time>
      </trkpt>
      <trkpt lat="48.58444" lon="-3.45441">
        <ele>167.89</ele>
        <time>2013-05-13T15:22:43Z</time>
      </trkpt>
      <trkpt lat="48.5848" lon="-3.45346">
        <ele>164.52</ele>
        <time>2013-05-13T15:22:50Z</time>
      </trkpt>
      <trkpt lat="48.58534" lon="-3.4516">
        <ele>161.16</ele>
        <time>2013-05-13T15:23:04Z</time>
      </trkpt>
      <trkpt lat="48.58551" lon="-3.45114">
        <ele>161.64</ele>
        <time>2013-05-13T15:23:08Z</time>
      </trkpt>
      <trkpt lat="48.58618" lon="-3.45041">
        <ele>160.68</ele>
        <time>2013-05-13T15:23:18Z</time>
      </trkpt>
      <trkpt lat="48.58634" lon="-3.45036">
        <ele>160.68</ele>
        <time>2013-05-13T15:23:20Z</time>
      </trkpt>
      <trkpt lat="48.58667" lon="-3.45035">
        <ele>159.24</ele>
        <time>2013-05-13T15:23:24Z</time>
      </trkpt>
      <trkpt lat="48.58806" lon="-3.45035">
        <ele>156.35</ele>
        <time>2013-05-13T15:23:40Z</time>
      </trkpt>
      <trkpt lat="48.58936" lon="-3.45035">
        <ele>152.99</ele>
        <time>2013-05-13T15:23:55Z</time>
      </trkpt>
      <trkpt lat="48.58944" lon="-3.45036">
        <ele>152.51</ele>
        <time>2013-05-13T15:23:56Z</time>
      </trkpt>
      <trkpt lat="48.59083" lon="-3.45056">
        <ele>150.1</ele>
        <time>2013-05-13T15:24:12Z</time>
      </trkpt>
      <trkpt lat="48.59192" lon="-3.45131">
        <ele>146.74</ele>
        <time>2013-05-13T15:24:26Z</time>
      </trkpt>
      <trkpt lat="48.59313" lon="-3.45186">
        <ele>143.37</ele>
        <time>2013-05-13T15:24:41Z</time>
      </trkpt>
      <trkpt lat="48.59426" lon="-3.45171">
        <ele>140.49</ele>
        <time>2013-05-13T15:24:54Z</time>
      </trkpt>
      <trkpt lat="48.59541" lon="-3.45171">
        <ele>140.01</ele>
        <time>2013-05-13T15:25:08Z</time>
      </trkpt>
      <trkpt lat="48.5966" lon="-3.45197">
        <ele>140.97</ele>
        <time>2013-05-13T15:25:25Z</time>
      </trkpt>
      <trkpt lat="48.59752" lon="-3.45206">
        <ele>142.89</ele>
        <time>2013-05-13T15:25:39Z</time>
      </trkpt>
      <trkpt lat="48.59821" lon="-3.45281">
        <ele>144.34</ele>
        <time>2013-05-13T15:25:53Z</time>
      </trkpt>
      <trkpt lat="48.59886" lon="-3.45361">
        <ele>141.45</ele>
        <time>2013-05-13T15:26:06Z</time>
      </trkpt>
      <trkpt lat="48.59903" lon="-3.45385">
        <ele>140.01</ele>
        <time>2013-05-13T15:26:09Z</time>
      </trkpt>
      <trkpt lat="48.59977" lon="-3.4548">
        <ele>136.16</ele>
        <time>2013-05-13T15:26:21Z</time>
      </trkpt>
      <trkpt lat="48.59983" lon="-3.45489">
        <ele>136.16</ele>
        <time>2013-05-13T15:26:22Z</time>
      </trkpt>
      <trkpt lat="48.60022" lon="-3.45536">
        <ele>134.72</ele>
        <time>2013-05-13T15:26:28Z</time>
      </trkpt>
      <trkpt lat="48.60063" lon="-3.45588">
        <ele>133.76</ele>
        <time>2013-05-13T15:26:35Z</time>
      </trkpt>
      <trkpt lat="48.60126" lon="-3.45671">
        <ele>133.28</ele>
        <time>2013-05-13T15:26:46Z</time>
      </trkpt>
      <trkpt lat="48.60199" lon="-3.45766">
        <ele>132.32</ele>
        <time>2013-05-13T15:26:59Z</time>
      </trkpt>
      <trkpt lat="48.60249" lon="-3.45838">
        <ele>131.36</ele>
        <time>2013-05-13T15:27:09Z</time>
      </trkpt>
      <trkpt lat="48.60253" lon="-3.45845">
        <ele>131.36</ele>
        <time>2013-05-13T15:27:10Z</time>
      </trkpt>
      <trkpt lat="48.60257" lon="-3.45853">
        <ele>131.36</ele>
        <time>2013-05-13T15:27:11Z</time>
      </trkpt>
      <trkpt lat="48.60262" lon="-3.45859">
        <ele>130.88</ele>
        <time>2013-05-13T15:27:12Z</time>
      </trkpt>
      <trkpt lat="48.60266" lon="-3.45867">
        <ele>130.88</ele>
        <time>2013-05-13T15:27:13Z</time>
      </trkpt>
      <trkpt lat="48.6027" lon="-3.45875">
        <ele>130.88</ele>
        <time>2013-05-13T15:27:14Z</time>
      </trkpt>
      <trkpt lat="48.60274" lon="-3.45883">
        <ele>130.88</ele>
        <time>2013-05-13T15:27:15Z</time>
      </trkpt>
      <trkpt lat="48.60281" lon="-3.45901">
        <ele>130.4</ele>
        <time>2013-05-13T15:27:17Z</time>
      </trkpt>
      <trkpt lat="48.60301" lon="-3.45974">
        <ele>129.43</ele>
        <time>2013-05-13T15:27:24Z</time>
      </trkpt>
      <trkpt lat="48.60299" lon="-3.46105">
        <ele>127.51</ele>
        <time>2013-05-13T15:27:36Z</time>
      </trkpt>
      <trkpt lat="48.60295" lon="-3.46165">
        <ele>127.03</ele>
        <time>2013-05-13T15:27:42Z</time>
      </trkpt>
      <trkpt lat="48.60309" lon="-3.46236">
        <ele>126.07</ele>
        <time>2013-05-13T15:27:49Z</time>
      </trkpt>
      <trkpt lat="48.60313" lon="-3.46246">
        <ele>125.59</ele>
        <time>2013-05-13T15:27:50Z</time>
      </trkpt>
      <trkpt lat="48.60321" lon="-3.46262">
        <ele>125.11</ele>
        <time>2013-05-13T15:27:52Z</time>
      </trkpt>
      <trkpt lat="48.60326" lon="-3.46269">
        <ele>125.11</ele>
        <time>2013-05-13T15:27:53Z</time>
      </trkpt>
      <trkpt lat="48.60331" lon="-3.46274">
        <ele>125.11</ele>
        <time>2013-05-13T15:27:54Z</time>
      </trkpt>
      <trkpt lat="48.60338" lon="-3.46277">
        <ele>124.63</ele>
        <time>2013-05-13T15:27:55Z</time>
      </trkpt>
      <trkpt lat="48.60346" lon="-3.46279">
        <ele>124.63</ele>
        <time>2013-05-13T15:27:56Z</time>
      </trkpt>
      <trkpt lat="48.60451" lon="-3.46328">
        <ele>121.74</ele>
        <time>2013-05-13T15:28:10Z</time>
      </trkpt>
      <trkpt lat="48.60457" lon="-3.46333">
        <ele>121.74</ele>
        <time>2013-05-13T15:28:11Z</time>
      </trkpt>
      <trkpt lat="48.60501" lon="-3.46378">
        <ele>121.74</ele>
        <time>2013-05-13T15:28:19Z</time>
      </trkpt>
      <trkpt lat="48.60507" lon="-3.4638">
        <ele>122.22</ele>
        <time>2013-05-13T15:28:20Z</time>
      </trkpt>
      <trkpt lat="48.60513" lon="-3.4638">
        <ele>122.22</ele>
        <time>2013-05-13T15:28:21Z</time>
      </trkpt>
      <trkpt lat="48.60519" lon="-3.46378">
        <ele>122.71</ele>
        <time>2013-05-13T15:28:22Z</time>
      </trkpt>
      <trkpt lat="48.60524" lon="-3.46375">
        <ele>123.19</ele>
        <time>2013-05-13T15:28:23Z</time>
      </trkpt>
      <trkpt lat="48.60529" lon="-3.46371">
        <ele>123.67</ele>
        <time>2013-05-13T15:28:24Z</time>
      </trkpt>
      <trkpt lat="48.60534" lon="-3.46367">
        <ele>123.67</ele>
        <time>2013-05-13T15:28:25Z</time>
      </trkpt>
      <trkpt lat="48.60539" lon="-3.46363">
        <ele>123.67</ele>
        <time>2013-05-13T15:28:26Z</time>
      </trkpt>
      <trkpt lat="48.60543" lon="-3.46359">
        <ele>124.15</ele>
        <time>2013-05-13T15:28:27Z</time>
      </trkpt>
      <trkpt lat="48.60547" lon="-3.46354">
        <ele>123.67</ele>
        <time>2013-05-13T15:28:28Z</time>
      </trkpt>
      <trkpt lat="48.60551" lon="-3.46349">
        <ele>123.67</ele>
        <time>2013-05-13T15:28:29Z</time>
      </trkpt>
      <trkpt lat="48.60554" lon="-3.46343">
        <ele>123.67</ele>
        <time>2013-05-13T15:28:30Z</time>
      </trkpt>
      <trkpt lat="48.60557" lon="-3.46336">
        <ele>123.67</ele>
        <time>2013-05-13T15:28:31Z</time>
      </trkpt>
      <trkpt lat="48.60561" lon="-3.46329">
        <ele>123.67</ele>
        <time>2013-05-13T15:28:32Z</time>
      </trkpt>
      <trkpt lat="48.60565" lon="-3.46323">
        <ele>123.67</ele>
        <time>2013-05-13T15:28:33Z</time>
      </trkpt>
      <trkpt lat="48.6057" lon="-3.46318">
        <ele>123.67</ele>
        <time>2013-05-13T15:28:34Z</time>
      </trkpt>
      <trkpt lat="48.60576" lon="-3.46314">
        <ele>123.67</ele>
        <time>2013-05-13T15:28:35Z</time>
      </trkpt>
      <trkpt lat="48.60582" lon="-3.46313">
        <ele>123.67</ele>
        <time>2013-05-13T15:28:36Z</time>
      </trkpt>
      <trkpt lat="48.60588" lon="-3.46313">
        <ele>123.19</ele>
        <time>2013-05-13T15:28:37Z</time>
      </trkpt>
      <trkpt lat="48.60619" lon="-3.46311">
        <ele>123.19</ele>
        <time>2013-05-13T15:28:45Z</time>
      </trkpt>
      <trkpt lat="48.60623" lon="-3.46315">
        <ele>123.19</ele>
        <time>2013-05-13T15:28:46Z</time>
      </trkpt>
      <trkpt lat="48.60629" lon="-3.46319">
        <ele>123.19</ele>
        <time>2013-05-13T15:28:47Z</time>
      </trkpt>
      <trkpt lat="48.60653" lon="-3.46365">
        <ele>124.15</ele>
        <time>2013-05-13T15:28:55Z</time>
      </trkpt>
      <trkpt lat="48.60654" lon="-3.46372">
        <ele>124.15</ele>
        <time>2013-05-13T15:28:56Z</time>
      </trkpt>
      <trkpt lat="48.60659" lon="-3.4644">
        <ele>125.11</ele>
        <time>2013-05-13T15:29:05Z</time>
      </trkpt>
      <trkpt lat="48.60661" lon="-3.46463">
        <ele>126.07</ele>
        <time>2013-05-13T15:29:08Z</time>
      </trkpt>
      <trkpt lat="48.60662" lon="-3.46471">
        <ele>126.07</ele>
        <time>2013-05-13T15:29:09Z</time>
      </trkpt>
      <trkpt lat="48.60665" lon="-3.46533">
        <ele>127.51</ele>
        <time>2013-05-13T15:29:17Z</time>
      </trkpt>
      <trkpt lat="48.60665" lon="-3.46542">
        <ele>127.03</ele>
        <time>2013-05-13T15:29:18Z</time>
      </trkpt>
      <trkpt lat="48.60664" lon="-3.46566">
        <ele>127.51</ele>
        <time>2013-05-13T15:29:21Z</time>
      </trkpt>
      <trkpt lat="48.60664" lon="-3.46574">
        <ele>127.51</ele>
        <time>2013-05-13T15:29:22Z</time>
      </trkpt>
      <trkpt lat="48.60665" lon="-3.46582">
        <ele>127.51</ele>
        <time>2013-05-13T15:29:23Z</time>
      </trkpt>
      <trkpt lat="48.60665" lon="-3.4659">
        <ele>127.51</ele>
        <time>2013-05-13T15:29:24Z</time>
      </trkpt>
      <trkpt lat="48.60665" lon="-3.46598">
        <ele>127.51</ele>
        <time>2013-05-13T15:29:25Z</time>
      </trkpt>
      <trkpt lat="48.60667" lon="-3.46605">
        <ele>127.99</ele>
        <time>2013-05-13T15:29:26Z</time>
      </trkpt>
      <trkpt lat="48.60673" lon="-3.46639">
        <ele>128.47</ele>
        <time>2013-05-13T15:29:31Z</time>
      </trkpt>
      <trkpt lat="48.60678" lon="-3.46659">
        <ele>128.95</ele>
        <time>2013-05-13T15:29:34Z</time>
      </trkpt>
      <trkpt lat="48.60694" lon="-3.46779">
        <ele>127.51</ele>
        <time>2013-05-13T15:29:49Z</time>
      </trkpt>
      <trkpt lat="48.60712" lon="-3.46875">
        <ele>126.07</ele>
        <time>2013-05-13T15:29:59Z</time>
      </trkpt>
      <trkpt lat="48.60716" lon="-3.46884">
        <ele>126.07</ele>
        <time>2013-05-13T15:30:00Z</time>
      </trkpt>
      <trkpt lat="48.6072" lon="-3.46892">
        <ele>126.07</ele>
        <time>2013-05-13T15:30:01Z</time>
      </trkpt>
      <trkpt lat="48.60724" lon="-3.46899">
        <ele>126.07</ele>
        <time>2013-05-13T15:30:02Z</time>
      </trkpt>
      <trkpt lat="48.60729" lon="-3.46906">
        <ele>125.59</ele>
        <time>2013-05-13T15:30:03Z</time>
      </trkpt>
      <trkpt lat="48.60734" lon="-3.46912">
        <ele>125.59</ele>
        <time>2013-05-13T15:30:04Z</time>
      </trkpt>
      <trkpt lat="48.6074" lon="-3.46918">
        <ele>125.59</ele>
        <time>2013-05-13T15:30:05Z</time>
      </trkpt>
      <trkpt lat="48.60774" lon="-3.4695">
        <ele>124.63</ele>
        <time>2013-05-13T15:30:11Z</time>
      </trkpt>
      <trkpt lat="48.60834" lon="-3.46997">
        <ele>121.26</ele>
        <time>2013-05-13T15:30:20Z</time>
      </trkpt>
      <trkpt lat="48.60863" lon="-3.47019">
        <ele>119.34</ele>
        <time>2013-05-13T15:30:24Z</time>
      </trkpt>
      <trkpt lat="48.60965" lon="-3.47096">
        <ele>117.42</ele>
        <time>2013-05-13T15:30:39Z</time>
      </trkpt>
      <trkpt lat="48.6097" lon="-3.471">
        <ele>117.42</ele>
        <time>2013-05-13T15:30:40Z</time>
      </trkpt>
      <trkpt lat="48.60974" lon="-3.47104">
        <ele>118.38</ele>
        <time>2013-05-13T15:30:41Z</time>
      </trkpt>
      <trkpt lat="48.60988" lon="-3.47114">
        <ele>117.9</ele>
        <time>2013-05-13T15:30:44Z</time>
      </trkpt>
      <trkpt lat="48.61001" lon="-3.47126">
        <ele>118.86</ele>
        <time>2013-05-13T15:30:47Z</time>
      </trkpt>
      <trkpt lat="48.61005" lon="-3.4713">
        <ele>119.82</ele>
        <time>2013-05-13T15:30:48Z</time>
      </trkpt>
      <trkpt lat="48.61026" lon="-3.47149">
        <ele>120.3</ele>
        <time>2013-05-13T15:30:53Z</time>
      </trkpt>
      <trkpt lat="48.61031" lon="-3.47153">
        <ele>120.78</ele>
        <time>2013-05-13T15:30:54Z</time>
      </trkpt>
      <trkpt lat="48.61088" lon="-3.47193">
        <ele>123.67</ele>
        <time>2013-05-13T15:31:07Z</time>
      </trkpt>
      <trkpt lat="48.61136" lon="-3.47232">
        <ele>126.55</ele>
        <time>2013-05-13T15:31:21Z</time>
      </trkpt>
      <trkpt lat="48.61178" lon="-3.47252">
        <ele>127.99</ele>
        <time>2013-05-13T15:31:34Z</time>
      </trkpt>
      <trkpt lat="48.61185" lon="-3.47253">
        <ele>127.99</ele>
        <time>2013-05-13T15:31:43Z</time>
      </trkpt>
      <trkpt lat="48.61185" lon="-3.47255">
        <ele>128.47</ele>
        <time>2013-05-13T15:32:07Z</time>
      </trkpt>
      <trkpt lat="48.61185" lon="-3.47255">
        <ele>127.99</ele>
        <time>2013-05-13T15:32:21Z</time>
      </trkpt>
      <trkpt lat="48.61187" lon="-3.47256">
        <ele>127.99</ele>
        <time>2013-05-13T15:32:22Z</time>
      </trkpt>
      <trkpt lat="48.61188" lon="-3.47256">
        <ele>127.99</ele>
        <time>2013-05-13T15:32:23Z</time>
      </trkpt>
      <trkpt lat="48.6119" lon="-3.47257">
        <ele>128.47</ele>
        <time>2013-05-13T15:32:24Z</time>
      </trkpt>
      <trkpt lat="48.61193" lon="-3.47257">
        <ele>128.47</ele>
        <time>2013-05-13T15:32:25Z</time>
      </trkpt>
      <trkpt lat="48.61211" lon="-3.47265">
        <ele>129.43</ele>
        <time>2013-05-13T15:32:30Z</time>
      </trkpt>
      <trkpt lat="48.61214" lon="-3.47266">
        <ele>129.43</ele>
        <time>2013-05-13T15:32:31Z</time>
      </trkpt>
      <trkpt lat="48.61232" lon="-3.47271">
        <ele>129.92</ele>
        <time>2013-05-13T15:32:35Z</time>
      </trkpt>
      <trkpt lat="48.61237" lon="-3.47271">
        <ele>129.92</ele>
        <time>2013-05-13T15:32:36Z</time>
      </trkpt>
      <trkpt lat="48.61264" lon="-3.47271">
        <ele>130.88</ele>
        <time>2013-05-13T15:32:41Z</time>
      </trkpt>
      <trkpt lat="48.6127" lon="-3.47275">
        <ele>129.92</ele>
        <time>2013-05-13T15:32:42Z</time>
      </trkpt>
      <trkpt lat="48.61318" lon="-3.47296">
        <ele>128.47</ele>
        <time>2013-05-13T15:32:49Z</time>
      </trkpt>
      <trkpt lat="48.61331" lon="-3.47291">
        <ele>127.99</ele>
        <time>2013-05-13T15:32:51Z</time>
      </trkpt>
      <trkpt lat="48.61337" lon="-3.47285">
        <ele>128.47</ele>
        <time>2013-05-13T15:32:52Z</time>
      </trkpt>
      <trkpt lat="48.61349" lon="-3.4727">
        <ele>127.03</ele>
        <time>2013-05-13T15:32:54Z</time>
      </trkpt>
      <trkpt lat="48.6136" lon="-3.47245">
        <ele>125.59</ele>
        <time>2013-05-13T15:32:56Z</time>
      </trkpt>
      <trkpt lat="48.61413" lon="-3.47106">
        <ele>121.74</ele>
        <time>2013-05-13T15:33:06Z</time>
      </trkpt>
      <trkpt lat="48.61477" lon="-3.47035">
        <ele>118.38</ele>
        <time>2013-05-13T15:33:14Z</time>
      </trkpt>
      <trkpt lat="48.61557" lon="-3.46961">
        <ele>119.82</ele>
        <time>2013-05-13T15:33:26Z</time>
      </trkpt>
      <trkpt lat="48.61631" lon="-3.4689">
        <ele>122.22</ele>
        <time>2013-05-13T15:33:42Z</time>
      </trkpt>
      <trkpt lat="48.61696" lon="-3.46832">
        <ele>123.67</ele>
        <time>2013-05-13T15:33:55Z</time>
      </trkpt>
      <trkpt lat="48.61773" lon="-3.46793">
        <ele>126.07</ele>
        <time>2013-05-13T15:34:09Z</time>
      </trkpt>
      <trkpt lat="48.61778" lon="-3.46793">
        <ele>126.07</ele>
        <time>2013-05-13T15:34:10Z</time>
      </trkpt>
      <trkpt lat="48.61816" lon="-3.46799">
        <ele>126.55</ele>
        <time>2013-05-13T15:34:17Z</time>
      </trkpt>
      <trkpt lat="48.61821" lon="-3.46801">
        <ele>127.03</ele>
        <time>2013-05-13T15:34:18Z</time>
      </trkpt>
      <trkpt lat="48.61861" lon="-3.46816">
        <ele>128.47</ele>
        <time>2013-05-13T15:34:26Z</time>
      </trkpt>
      <trkpt lat="48.61865" lon="-3.46818">
        <ele>128.95</ele>
        <time>2013-05-13T15:34:27Z</time>
      </trkpt>
      <trkpt lat="48.6187" lon="-3.4682">
        <ele>128.95</ele>
        <time>2013-05-13T15:34:28Z</time>
      </trkpt>
      <trkpt lat="48.61883" lon="-3.46821">
        <ele>129.43</ele>
        <time>2013-05-13T15:34:31Z</time>
      </trkpt>
      <trkpt lat="48.61887" lon="-3.46821">
        <ele>129.92</ele>
        <time>2013-05-13T15:34:32Z</time>
      </trkpt>
      <trkpt lat="48.61892" lon="-3.46821">
        <ele>130.4</ele>
        <time>2013-05-13T15:34:33Z</time>
      </trkpt>
      <trkpt lat="48.61897" lon="-3.46819">
        <ele>130.4</ele>
        <time>2013-05-13T15:34:34Z</time>
      </trkpt>
      <trkpt lat="48.61902" lon="-3.46817">
        <ele>130.88</ele>
        <time>2013-05-13T15:34:35Z</time>
      </trkpt>
      <trkpt lat="48.61907" lon="-3.46816">
        <ele>130.88</ele>
        <time>2013-05-13T15:34:36Z</time>
      </trkpt>
      <trkpt lat="48.61911" lon="-3.46815">
        <ele>131.36</ele>
        <time>2013-05-13T15:34:37Z</time>
      </trkpt>
      <trkpt lat="48.61916" lon="-3.46814">
        <ele>131.36</ele>
        <time>2013-05-13T15:34:38Z</time>
      </trkpt>
      <trkpt lat="48.6192" lon="-3.46812">
        <ele>131.84</ele>
        <time>2013-05-13T15:34:39Z</time>
      </trkpt>
      <trkpt lat="48.61925" lon="-3.46811">
        <ele>132.32</ele>
        <time>2013-05-13T15:34:40Z</time>
      </trkpt>
      <trkpt lat="48.62013" lon="-3.46794">
        <ele>133.28</ele>
        <time>2013-05-13T15:34:57Z</time>
      </trkpt>
      <trkpt lat="48.62117" lon="-3.46773">
        <ele>134.24</ele>
        <time>2013-05-13T15:35:15Z</time>
      </trkpt>
      <trkpt lat="48.62155" lon="-3.46756">
        <ele>134.24</ele>
        <time>2013-05-13T15:35:22Z</time>
      </trkpt>
      <trkpt lat="48.6216" lon="-3.46753">
        <ele>134.72</ele>
        <time>2013-05-13T15:35:23Z</time>
      </trkpt>
      <trkpt lat="48.62246" lon="-3.46727">
        <ele>136.16</ele>
        <time>2013-05-13T15:35:39Z</time>
      </trkpt>
      <trkpt lat="48.62312" lon="-3.46711">
        <ele>139.53</ele>
        <time>2013-05-13T15:35:51Z</time>
      </trkpt>
      <trkpt lat="48.62409" lon="-3.46664">
        <ele>140.01</ele>
        <time>2013-05-13T15:36:09Z</time>
      </trkpt>
      <trkpt lat="48.62506" lon="-3.46637">
        <ele>140.49</ele>
        <time>2013-05-13T15:36:25Z</time>
      </trkpt>
      <trkpt lat="48.62631" lon="-3.46614">
        <ele>139.05</ele>
        <time>2013-05-13T15:36:44Z</time>
      </trkpt>
      <trkpt lat="48.6276" lon="-3.46596">
        <ele>138.57</ele>
        <time>2013-05-13T15:37:02Z</time>
      </trkpt>
      <trkpt lat="48.62897" lon="-3.46564">
        <ele>136.16</ele>
        <time>2013-05-13T15:37:21Z</time>
      </trkpt>
      <trkpt lat="48.63013" lon="-3.46479">
        <ele>134.72</ele>
        <time>2013-05-13T15:37:38Z</time>
      </trkpt>
      <trkpt lat="48.63148" lon="-3.46338">
        <ele>132.32</ele>
        <time>2013-05-13T15:37:59Z</time>
      </trkpt>
      <trkpt lat="48.63277" lon="-3.46202">
        <ele>130.88</ele>
        <time>2013-05-13T15:38:19Z</time>
      </trkpt>
      <trkpt lat="48.63365" lon="-3.46109">
        <ele>128.47</ele>
        <time>2013-05-13T15:38:33Z</time>
      </trkpt>
      <trkpt lat="48.63457" lon="-3.46012">
        <ele>126.55</ele>
        <time>2013-05-13T15:38:47Z</time>
      </trkpt>
      <trkpt lat="48.63583" lon="-3.45878">
        <ele>124.15</ele>
        <time>2013-05-13T15:39:06Z</time>
      </trkpt>
      <trkpt lat="48.63682" lon="-3.45769">
        <ele>122.71</ele>
        <time>2013-05-13T15:39:21Z</time>
      </trkpt>
      <trkpt lat="48.6379" lon="-3.4562">
        <ele>121.74</ele>
        <time>2013-05-13T15:39:40Z</time>
      </trkpt>
      <trkpt lat="48.63884" lon="-3.45478">
        <ele>119.82</ele>
        <time>2013-05-13T15:39:58Z</time>
      </trkpt>
      <trkpt lat="48.63977" lon="-3.45343">
        <ele>117.9</ele>
        <time>2013-05-13T15:40:15Z</time>
      </trkpt>
      <trkpt lat="48.6407" lon="-3.45207">
        <ele>115.98</ele>
        <time>2013-05-13T15:40:32Z</time>
      </trkpt>
      <trkpt lat="48.64152" lon="-3.45085">
        <ele>115.98</ele>
        <time>2013-05-13T15:40:48Z</time>
      </trkpt>
      <trkpt lat="48.64255" lon="-3.44934">
        <ele>117.9</ele>
        <time>2013-05-13T15:41:09Z</time>
      </trkpt>
      <trkpt lat="48.64323" lon="-3.44832">
        <ele>118.86</ele>
        <time>2013-05-13T15:41:23Z</time>
      </trkpt>
      <trkpt lat="48.64413" lon="-3.44706">
        <ele>118.38</ele>
        <time>2013-05-13T15:41:40Z</time>
      </trkpt>
      <trkpt lat="48.64515" lon="-3.44621">
        <ele>117.42</ele>
        <time>2013-05-13T15:41:56Z</time>
      </trkpt>
      <trkpt lat="48.64635" lon="-3.44581">
        <ele>115.01</ele>
        <time>2013-05-13T15:42:12Z</time>
      </trkpt>
      <trkpt lat="48.64754" lon="-3.44593">
        <ele>114.05</ele>
        <time>2013-05-13T15:42:27Z</time>
      </trkpt>
      <trkpt lat="48.6479" lon="-3.44601">
        <ele>112.61</ele>
        <time>2013-05-13T15:42:31Z</time>
      </trkpt>
      <trkpt lat="48.64918" lon="-3.44629">
        <ele>112.13</ele>
        <time>2013-05-13T15:42:45Z</time>
      </trkpt>
      <trkpt lat="48.65072" lon="-3.44625">
        <ele>113.09</ele>
        <time>2013-05-13T15:43:01Z</time>
      </trkpt>
      <trkpt lat="48.65256" lon="-3.44577">
        <ele>113.09</ele>
        <time>2013-05-13T15:43:20Z</time>
      </trkpt>
      <trkpt lat="48.65426" lon="-3.44504">
        <ele>111.65</ele>
        <time>2013-05-13T15:43:38Z</time>
      </trkpt>
      <trkpt lat="48.65549" lon="-3.44452">
        <ele>110.69</ele>
        <time>2013-05-13T15:43:53Z</time>
      </trkpt>
      <trkpt lat="48.65663" lon="-3.4441">
        <ele>108.77</ele>
        <time>2013-05-13T15:44:08Z</time>
      </trkpt>
      <trkpt lat="48.65794" lon="-3.44361">
        <ele>105.88</ele>
        <time>2013-05-13T15:44:24Z</time>
      </trkpt>
      <trkpt lat="48.6593" lon="-3.44341">
        <ele>102.52</ele>
        <time>2013-05-13T15:44:40Z</time>
      </trkpt>
      <trkpt lat="48.65982" lon="-3.44346">
        <ele>102.04</ele>
        <time>2013-05-13T15:44:46Z</time>
      </trkpt>
      <trkpt lat="48.66126" lon="-3.44381">
        <ele>100.6</ele>
        <time>2013-05-13T15:45:04Z</time>
      </trkpt>
      <trkpt lat="48.66213" lon="-3.44403">
        <ele>102.04</ele>
        <time>2013-05-13T15:45:18Z</time>
      </trkpt>
      <trkpt lat="48.66316" lon="-3.44428">
        <ele>103.96</ele>
        <time>2013-05-13T15:45:36Z</time>
      </trkpt>
      <trkpt lat="48.66389" lon="-3.4444">
        <ele>106.36</ele>
        <time>2013-05-13T15:45:49Z</time>
      </trkpt>
      <trkpt lat="48.66499" lon="-3.44437">
        <ele>105.4</ele>
        <time>2013-05-13T15:46:07Z</time>
      </trkpt>
      <trkpt lat="48.66605" lon="-3.44437">
        <ele>105.4</ele>
        <time>2013-05-13T15:46:24Z</time>
      </trkpt>
      <trkpt lat="48.6673" lon="-3.44448">
        <ele>104.92</ele>
        <time>2013-05-13T15:46:44Z</time>
      </trkpt>
      <trkpt lat="48.66851" lon="-3.44461">
        <ele>103.48</ele>
        <time>2013-05-13T15:47:03Z</time>
      </trkpt>
      <trkpt lat="48.66968" lon="-3.4447">
        <ele>102.52</ele>
        <time>2013-05-13T15:47:20Z</time>
      </trkpt>
      <trkpt lat="48.67032" lon="-3.44455">
        <ele>100.11</ele>
        <time>2013-05-13T15:47:29Z</time>
      </trkpt>
      <trkpt lat="48.67144" lon="-3.44432">
        <ele>100.6</ele>
        <time>2013-05-13T15:47:45Z</time>
      </trkpt>
      <trkpt lat="48.67241" lon="-3.4444">
        <ele>99.63</ele>
        <time>2013-05-13T15:47:59Z</time>
      </trkpt>
      <trkpt lat="48.67314" lon="-3.44458">
        <ele>101.08</ele>
        <time>2013-05-13T15:48:10Z</time>
      </trkpt>
      <trkpt lat="48.6732" lon="-3.44461">
        <ele>101.08</ele>
        <time>2013-05-13T15:48:11Z</time>
      </trkpt>
      <trkpt lat="48.67426" lon="-3.44492">
        <ele>102.04</ele>
        <time>2013-05-13T15:48:27Z</time>
      </trkpt>
      <trkpt lat="48.67515" lon="-3.44503">
        <ele>101.08</ele>
        <time>2013-05-13T15:48:41Z</time>
      </trkpt>
      <trkpt lat="48.67607" lon="-3.44492">
        <ele>101.56</ele>
        <time>2013-05-13T15:48:56Z</time>
      </trkpt>
      <trkpt lat="48.67629" lon="-3.44488">
        <ele>103.48</ele>
        <time>2013-05-13T15:49:00Z</time>
      </trkpt>
      <trkpt lat="48.67715" lon="-3.44454">
        <ele>101.56</ele>
        <time>2013-05-13T15:49:14Z</time>
      </trkpt>
      <trkpt lat="48.67834" lon="-3.44381">
        <ele>101.08</ele>
        <time>2013-05-13T15:49:33Z</time>
      </trkpt>
      <trkpt lat="48.67936" lon="-3.44367">
        <ele>100.6</ele>
        <time>2013-05-13T15:49:48Z</time>
      </trkpt>
      <trkpt lat="48.68042" lon="-3.44398">
        <ele>99.63</ele>
        <time>2013-05-13T15:50:03Z</time>
      </trkpt>
      <trkpt lat="48.68151" lon="-3.44426">
        <ele>97.71</ele>
        <time>2013-05-13T15:50:18Z</time>
      </trkpt>
      <trkpt lat="48.68165" lon="-3.4443">
        <ele>97.71</ele>
        <time>2013-05-13T15:50:20Z</time>
      </trkpt>
      <trkpt lat="48.68172" lon="-3.44432">
        <ele>97.71</ele>
        <time>2013-05-13T15:50:21Z</time>
      </trkpt>
      <trkpt lat="48.68289" lon="-3.44465">
        <ele>98.19</ele>
        <time>2013-05-13T15:50:38Z</time>
      </trkpt>
      <trkpt lat="48.68319" lon="-3.44473">
        <ele>99.15</ele>
        <time>2013-05-13T15:50:43Z</time>
      </trkpt>
      <trkpt lat="48.68325" lon="-3.44475">
        <ele>98.19</ele>
        <time>2013-05-13T15:50:44Z</time>
      </trkpt>
      <trkpt lat="48.68394" lon="-3.44495">
        <ele>98.19</ele>
        <time>2013-05-13T15:50:56Z</time>
      </trkpt>
      <trkpt lat="48.68494" lon="-3.44506">
        <ele>97.71</ele>
        <time>2013-05-13T15:51:13Z</time>
      </trkpt>
      <trkpt lat="48.68597" lon="-3.44536">
        <ele>96.27</ele>
        <time>2013-05-13T15:51:30Z</time>
      </trkpt>
      <trkpt lat="48.68602" lon="-3.44539">
        <ele>96.27</ele>
        <time>2013-05-13T15:51:31Z</time>
      </trkpt>
      <trkpt lat="48.68655" lon="-3.44556">
        <ele>95.31</ele>
        <time>2013-05-13T15:51:40Z</time>
      </trkpt>
      <trkpt lat="48.68686" lon="-3.44561">
        <ele>96.75</ele>
        <time>2013-05-13T15:51:45Z</time>
      </trkpt>
      <trkpt lat="48.68784" lon="-3.44578">
        <ele>96.27</ele>
        <time>2013-05-13T15:52:00Z</time>
      </trkpt>
      <trkpt lat="48.68887" lon="-3.44566">
        <ele>96.75</ele>
        <time>2013-05-13T15:52:16Z</time>
      </trkpt>
      <trkpt lat="48.6893" lon="-3.44556">
        <ele>95.79</ele>
        <time>2013-05-13T15:52:23Z</time>
      </trkpt>
      <trkpt lat="48.69005" lon="-3.44542">
        <ele>99.15</ele>
        <time>2013-05-13T15:52:36Z</time>
      </trkpt>
      <trkpt lat="48.69094" lon="-3.44522">
        <ele>100.11</ele>
        <time>2013-05-13T15:52:52Z</time>
      </trkpt>
      <trkpt lat="48.69138" lon="-3.44508">
        <ele>99.63</ele>
        <time>2013-05-13T15:53:00Z</time>
      </trkpt>
      <trkpt lat="48.69144" lon="-3.44507">
        <ele>100.11</ele>
        <time>2013-05-13T15:53:01Z</time>
      </trkpt>
      <trkpt lat="48.69167" lon="-3.445">
        <ele>101.08</ele>
        <time>2013-05-13T15:53:05Z</time>
      </trkpt>
      <trkpt lat="48.69281" lon="-3.44464">
        <ele>102.04</ele>
        <time>2013-05-13T15:53:24Z</time>
      </trkpt>
      <trkpt lat="48.69305" lon="-3.44464">
        <ele>102.04</ele>
        <time>2013-05-13T15:53:28Z</time>
      </trkpt>
      <trkpt lat="48.69314" lon="-3.44465">
        <ele>102.04</ele>
        <time>2013-05-13T15:53:30Z</time>
      </trkpt>
      <trkpt lat="48.69319" lon="-3.44466">
        <ele>101.08</ele>
        <time>2013-05-13T15:53:31Z</time>
      </trkpt>
      <trkpt lat="48.69325" lon="-3.44468">
        <ele>101.08</ele>
        <time>2013-05-13T15:53:32Z</time>
      </trkpt>
      <trkpt lat="48.6933" lon="-3.4447">
        <ele>102.04</ele>
        <time>2013-05-13T15:53:33Z</time>
      </trkpt>
      <trkpt lat="48.69336" lon="-3.44472">
        <ele>103</ele>
        <time>2013-05-13T15:53:34Z</time>
      </trkpt>
      <trkpt lat="48.69342" lon="-3.44474">
        <ele>103</ele>
        <time>2013-05-13T15:53:35Z</time>
      </trkpt>
      <trkpt lat="48.69436" lon="-3.44518">
        <ele>103.48</ele>
        <time>2013-05-13T15:53:53Z</time>
      </trkpt>
      <trkpt lat="48.69504" lon="-3.44563">
        <ele>100.11</ele>
        <time>2013-05-13T15:54:05Z</time>
      </trkpt>
      <trkpt lat="48.69566" lon="-3.44615">
        <ele>97.23</ele>
        <time>2013-05-13T15:54:15Z</time>
      </trkpt>
      <trkpt lat="48.69661" lon="-3.44675">
        <ele>94.35</ele>
        <time>2013-05-13T15:54:29Z</time>
      </trkpt>
      <trkpt lat="48.69764" lon="-3.44731">
        <ele>94.35</ele>
        <time>2013-05-13T15:54:44Z</time>
      </trkpt>
      <trkpt lat="48.69785" lon="-3.44737">
        <ele>91.94</ele>
        <time>2013-05-13T15:54:47Z</time>
      </trkpt>
      <trkpt lat="48.69893" lon="-3.44765">
        <ele>90.5</ele>
        <time>2013-05-13T15:55:02Z</time>
      </trkpt>
      <trkpt lat="48.699" lon="-3.44768">
        <ele>90.5</ele>
        <time>2013-05-13T15:55:03Z</time>
      </trkpt>
      <trkpt lat="48.69942" lon="-3.44778">
        <ele>89.06</ele>
        <time>2013-05-13T15:55:09Z</time>
      </trkpt>
      <trkpt lat="48.70008" lon="-3.44787">
        <ele>87.62</ele>
        <time>2013-05-13T15:55:18Z</time>
      </trkpt>
      <trkpt lat="48.70107" lon="-3.448">
        <ele>87.62</ele>
        <time>2013-05-13T15:55:32Z</time>
      </trkpt>
      <trkpt lat="48.70221" lon="-3.44811">
        <ele>87.14</ele>
        <time>2013-05-13T15:55:48Z</time>
      </trkpt>
      <trkpt lat="48.70241" lon="-3.44813">
        <ele>88.1</ele>
        <time>2013-05-13T15:55:51Z</time>
      </trkpt>
      <trkpt lat="48.70288" lon="-3.44819">
        <ele>86.66</ele>
        <time>2013-05-13T15:55:59Z</time>
      </trkpt>
      <trkpt lat="48.70373" lon="-3.44843">
        <ele>87.14</ele>
        <time>2013-05-13T15:56:13Z</time>
      </trkpt>
      <trkpt lat="48.70395" lon="-3.44848">
        <ele>87.62</ele>
        <time>2013-05-13T15:56:17Z</time>
      </trkpt>
      <trkpt lat="48.704" lon="-3.44847">
        <ele>87.62</ele>
        <time>2013-05-13T15:56:18Z</time>
      </trkpt>
      <trkpt lat="48.70411" lon="-3.44845">
        <ele>87.62</ele>
        <time>2013-05-13T15:56:20Z</time>
      </trkpt>
      <trkpt lat="48.70459" lon="-3.44825">
        <ele>88.1</ele>
        <time>2013-05-13T15:56:32Z</time>
      </trkpt>
      <trkpt lat="48.70463" lon="-3.44822">
        <ele>87.62</ele>
        <time>2013-05-13T15:56:33Z</time>
      </trkpt>
      <trkpt lat="48.70495" lon="-3.44813">
        <ele>88.1</ele>
        <time>2013-05-13T15:56:39Z</time>
      </trkpt>
      <trkpt lat="48.70555" lon="-3.44816">
        <ele>89.54</ele>
        <time>2013-05-13T15:56:49Z</time>
      </trkpt>
      <trkpt lat="48.70591" lon="-3.44807">
        <ele>90.02</ele>
        <time>2013-05-13T15:56:55Z</time>
      </trkpt>
      <trkpt lat="48.70604" lon="-3.44804">
        <ele>88.1</ele>
        <time>2013-05-13T15:56:57Z</time>
      </trkpt>
      <trkpt lat="48.70625" lon="-3.448">
        <ele>87.62</ele>
        <time>2013-05-13T15:57:00Z</time>
      </trkpt>
      <trkpt lat="48.70696" lon="-3.44801">
        <ele>83.29</ele>
        <time>2013-05-13T15:57:09Z</time>
      </trkpt>
      <trkpt lat="48.70704" lon="-3.44803">
        <ele>82.33</ele>
        <time>2013-05-13T15:57:10Z</time>
      </trkpt>
      <trkpt lat="48.7075" lon="-3.44818">
        <ele>78.97</ele>
        <time>2013-05-13T15:57:15Z</time>
      </trkpt>
      <trkpt lat="48.70776" lon="-3.44833">
        <ele>77.04</ele>
        <time>2013-05-13T15:57:18Z</time>
      </trkpt>
      <trkpt lat="48.70813" lon="-3.44853">
        <ele>75.6</ele>
        <time>2013-05-13T15:57:22Z</time>
      </trkpt>
      <trkpt lat="48.7091" lon="-3.44919">
        <ele>72.72</ele>
        <time>2013-05-13T15:57:34Z</time>
      </trkpt>
      <trkpt lat="48.71003" lon="-3.44981">
        <ele>71.76</ele>
        <time>2013-05-13T15:57:47Z</time>
      </trkpt>
      <trkpt lat="48.7101" lon="-3.44984">
        <ele>71.76</ele>
        <time>2013-05-13T15:57:48Z</time>
      </trkpt>
      <trkpt lat="48.71018" lon="-3.44985">
        <ele>71.27</ele>
        <time>2013-05-13T15:57:49Z</time>
      </trkpt>
      <trkpt lat="48.71025" lon="-3.44987">
        <ele>71.76</ele>
        <time>2013-05-13T15:57:50Z</time>
      </trkpt>
      <trkpt lat="48.71033" lon="-3.44987">
        <ele>71.76</ele>
        <time>2013-05-13T15:57:51Z</time>
      </trkpt>
      <trkpt lat="48.71134" lon="-3.44991">
        <ele>71.76</ele>
        <time>2013-05-13T15:58:05Z</time>
      </trkpt>
      <trkpt lat="48.71229" lon="-3.45026">
        <ele>70.31</ele>
        <time>2013-05-13T15:58:19Z</time>
      </trkpt>
      <trkpt lat="48.71346" lon="-3.45089">
        <ele>69.35</ele>
        <time>2013-05-13T15:58:37Z</time>
      </trkpt>
      <trkpt lat="48.71447" lon="-3.45154">
        <ele>70.31</ele>
        <time>2013-05-13T15:58:53Z</time>
      </trkpt>
      <trkpt lat="48.71544" lon="-3.45222">
        <ele>68.87</ele>
        <time>2013-05-13T15:59:10Z</time>
      </trkpt>
      <trkpt lat="48.71577" lon="-3.45256">
        <ele>68.87</ele>
        <time>2013-05-13T15:59:16Z</time>
      </trkpt>
      <trkpt lat="48.71581" lon="-3.45264">
        <ele>68.87</ele>
        <time>2013-05-13T15:59:17Z</time>
      </trkpt>
      <trkpt lat="48.71598" lon="-3.45308">
        <ele>67.91</ele>
        <time>2013-05-13T15:59:22Z</time>
      </trkpt>
      <trkpt lat="48.71653" lon="-3.45452">
        <ele>65.03</ele>
        <time>2013-05-13T15:59:38Z</time>
      </trkpt>
      <trkpt lat="48.71696" lon="-3.45562">
        <ele>63.1</ele>
        <time>2013-05-13T15:59:50Z</time>
      </trkpt>
      <trkpt lat="48.71719" lon="-3.45607">
        <ele>60.22</ele>
        <time>2013-05-13T15:59:55Z</time>
      </trkpt>
      <trkpt lat="48.71725" lon="-3.45615">
        <ele>60.22</ele>
        <time>2013-05-13T15:59:56Z</time>
      </trkpt>
      <trkpt lat="48.71757" lon="-3.45651">
        <ele>58.78</ele>
        <time>2013-05-13T16:00:01Z</time>
      </trkpt>
      <trkpt lat="48.71831" lon="-3.45723">
        <ele>55.89</ele>
        <time>2013-05-13T16:00:11Z</time>
      </trkpt>
      <trkpt lat="48.71883" lon="-3.45777">
        <ele>53.49</ele>
        <time>2013-05-13T16:00:18Z</time>
      </trkpt>
      <trkpt lat="48.71918" lon="-3.45814">
        <ele>52.53</ele>
        <time>2013-05-13T16:00:23Z</time>
      </trkpt>
      <trkpt lat="48.71923" lon="-3.45823">
        <ele>52.53</ele>
        <time>2013-05-13T16:00:24Z</time>
      </trkpt>
      <trkpt lat="48.71928" lon="-3.45832">
        <ele>52.05</ele>
        <time>2013-05-13T16:00:25Z</time>
      </trkpt>
      <trkpt lat="48.71932" lon="-3.45843">
        <ele>51.57</ele>
        <time>2013-05-13T16:00:26Z</time>
      </trkpt>
      <trkpt lat="48.71934" lon="-3.45853">
        <ele>51.09</ele>
        <time>2013-05-13T16:00:27Z</time>
      </trkpt>
      <trkpt lat="48.71937" lon="-3.45864">
        <ele>50.13</ele>
        <time>2013-05-13T16:00:28Z</time>
      </trkpt>
      <trkpt lat="48.7194" lon="-3.45876">
        <ele>50.61</ele>
        <time>2013-05-13T16:00:29Z</time>
      </trkpt>
      <trkpt lat="48.71963" lon="-3.45961">
        <ele>47.24</ele>
        <time>2013-05-13T16:00:37Z</time>
      </trkpt>
      <trkpt lat="48.71968" lon="-3.4597">
        <ele>46.76</ele>
        <time>2013-05-13T16:00:38Z</time>
      </trkpt>
      <trkpt lat="48.71973" lon="-3.45979">
        <ele>46.28</ele>
        <time>2013-05-13T16:00:39Z</time>
      </trkpt>
      <trkpt lat="48.71979" lon="-3.45986">
        <ele>45.32</ele>
        <time>2013-05-13T16:00:40Z</time>
      </trkpt>
      <trkpt lat="48.71985" lon="-3.45993">
        <ele>45.8</ele>
        <time>2013-05-13T16:00:41Z</time>
      </trkpt>
      <trkpt lat="48.71991" lon="-3.45999">
        <ele>44.36</ele>
        <time>2013-05-13T16:00:42Z</time>
      </trkpt>
      <trkpt lat="48.71998" lon="-3.46004">
        <ele>44.36</ele>
        <time>2013-05-13T16:00:43Z</time>
      </trkpt>
      <trkpt lat="48.72006" lon="-3.46009">
        <ele>44.36</ele>
        <time>2013-05-13T16:00:44Z</time>
      </trkpt>
      <trkpt lat="48.72013" lon="-3.46012">
        <ele>44.84</ele>
        <time>2013-05-13T16:00:45Z</time>
      </trkpt>
      <trkpt lat="48.72021" lon="-3.46015">
        <ele>43.88</ele>
        <time>2013-05-13T16:00:46Z</time>
      </trkpt>
      <trkpt lat="48.7203" lon="-3.46016">
        <ele>42.92</ele>
        <time>2013-05-13T16:00:47Z</time>
      </trkpt>
      <trkpt lat="48.72038" lon="-3.46016">
        <ele>42.44</ele>
        <time>2013-05-13T16:00:48Z</time>
      </trkpt>
      <trkpt lat="48.72047" lon="-3.46015">
        <ele>42.92</ele>
        <time>2013-05-13T16:00:49Z</time>
      </trkpt>
      <trkpt lat="48.72055" lon="-3.46012">
        <ele>41.95</ele>
        <time>2013-05-13T16:00:50Z</time>
      </trkpt>
      <trkpt lat="48.72063" lon="-3.46008">
        <ele>41.95</ele>
        <time>2013-05-13T16:00:51Z</time>
      </trkpt>
      <trkpt lat="48.72069" lon="-3.46005">
        <ele>41.47</ele>
        <time>2013-05-13T16:00:52Z</time>
      </trkpt>
      <trkpt lat="48.72117" lon="-3.45969">
        <ele>40.03</ele>
        <time>2013-05-13T16:00:58Z</time>
      </trkpt>
      <trkpt lat="48.72148" lon="-3.4595">
        <ele>39.07</ele>
        <time>2013-05-13T16:01:02Z</time>
      </trkpt>
      <trkpt lat="48.72156" lon="-3.45948">
        <ele>39.55</ele>
        <time>2013-05-13T16:01:03Z</time>
      </trkpt>
      <trkpt lat="48.72165" lon="-3.45949">
        <ele>38.59</ele>
        <time>2013-05-13T16:01:04Z</time>
      </trkpt>
      <trkpt lat="48.72174" lon="-3.45951">
        <ele>37.63</ele>
        <time>2013-05-13T16:01:05Z</time>
      </trkpt>
      <trkpt lat="48.72182" lon="-3.45955">
        <ele>37.63</ele>
        <time>2013-05-13T16:01:06Z</time>
      </trkpt>
      <trkpt lat="48.7219" lon="-3.45959">
        <ele>37.63</ele>
        <time>2013-05-13T16:01:07Z</time>
      </trkpt>
      <trkpt lat="48.72265" lon="-3.45994">
        <ele>34.26</ele>
        <time>2013-05-13T16:01:16Z</time>
      </trkpt>
      <trkpt lat="48.72306" lon="-3.46007">
        <ele>33.3</ele>
        <time>2013-05-13T16:01:21Z</time>
      </trkpt>
      <trkpt lat="48.72313" lon="-3.46007">
        <ele>31.86</ele>
        <time>2013-05-13T16:01:22Z</time>
      </trkpt>
      <trkpt lat="48.72321" lon="-3.46006">
        <ele>31.38</ele>
        <time>2013-05-13T16:01:23Z</time>
      </trkpt>
      <trkpt lat="48.72404" lon="-3.45989">
        <ele>28.98</ele>
        <time>2013-05-13T16:01:34Z</time>
      </trkpt>
      <trkpt lat="48.72411" lon="-3.4599">
        <ele>28.02</ele>
        <time>2013-05-13T16:01:35Z</time>
      </trkpt>
      <trkpt lat="48.72418" lon="-3.45992">
        <ele>27.53</ele>
        <time>2013-05-13T16:01:36Z</time>
      </trkpt>
      <trkpt lat="48.72425" lon="-3.45996">
        <ele>27.05</ele>
        <time>2013-05-13T16:01:37Z</time>
      </trkpt>
      <trkpt lat="48.72432" lon="-3.46">
        <ele>26.57</ele>
        <time>2013-05-13T16:01:38Z</time>
      </trkpt>
      <trkpt lat="48.72491" lon="-3.46024">
        <ele>23.69</ele>
        <time>2013-05-13T16:01:46Z</time>
      </trkpt>
      <trkpt lat="48.72548" lon="-3.46036">
        <ele>21.77</ele>
        <time>2013-05-13T16:01:53Z</time>
      </trkpt>
      <trkpt lat="48.72565" lon="-3.46032">
        <ele>23.21</ele>
        <time>2013-05-13T16:01:55Z</time>
      </trkpt>
      <trkpt lat="48.72589" lon="-3.46026">
        <ele>19.84</ele>
        <time>2013-05-13T16:01:58Z</time>
      </trkpt>
      <trkpt lat="48.72612" lon="-3.46022">
        <ele>17.92</ele>
        <time>2013-05-13T16:02:01Z</time>
      </trkpt>
      <trkpt lat="48.72707" lon="-3.45997">
        <ele>13.6</ele>
        <time>2013-05-13T16:02:12Z</time>
      </trkpt>
      <trkpt lat="48.72751" lon="-3.45986">
        <ele>12.63</ele>
        <time>2013-05-13T16:02:18Z</time>
      </trkpt>
      <trkpt lat="48.72755" lon="-3.45983">
        <ele>12.63</ele>
        <time>2013-05-13T16:02:19Z</time>
      </trkpt>
      <trkpt lat="48.7276" lon="-3.4598">
        <ele>12.63</ele>
        <time>2013-05-13T16:02:20Z</time>
      </trkpt>
      <trkpt lat="48.72763" lon="-3.45978">
        <ele>12.63</ele>
        <time>2013-05-13T16:02:21Z</time>
      </trkpt>
      <trkpt lat="48.72767" lon="-3.45977">
        <ele>12.63</ele>
        <time>2013-05-13T16:02:22Z</time>
      </trkpt>
      <trkpt lat="48.72772" lon="-3.45977">
        <ele>12.63</ele>
        <time>2013-05-13T16:02:23Z</time>
      </trkpt>
      <trkpt lat="48.72777" lon="-3.45977">
        <ele>12.63</ele>
        <time>2013-05-13T16:02:24Z</time>
      </trkpt>
      <trkpt lat="48.72783" lon="-3.45978">
        <ele>13.12</ele>
        <time>2013-05-13T16:02:25Z</time>
      </trkpt>
      <trkpt lat="48.72789" lon="-3.45977">
        <ele>13.6</ele>
        <time>2013-05-13T16:02:26Z</time>
      </trkpt>
      <trkpt lat="48.72863" lon="-3.45956">
        <ele>13.6</ele>
        <time>2013-05-13T16:02:38Z</time>
      </trkpt>
      <trkpt lat="48.72869" lon="-3.4596">
        <ele>14.08</ele>
        <time>2013-05-13T16:02:39Z</time>
      </trkpt>
      <trkpt lat="48.72874" lon="-3.45966">
        <ele>14.08</ele>
        <time>2013-05-13T16:02:40Z</time>
      </trkpt>
      <trkpt lat="48.72879" lon="-3.45972">
        <ele>14.08</ele>
        <time>2013-05-13T16:02:41Z</time>
      </trkpt>
      <trkpt lat="48.72883" lon="-3.45978">
        <ele>14.56</ele>
        <time>2013-05-13T16:02:42Z</time>
      </trkpt>
      <trkpt lat="48.72891" lon="-3.45989">
        <ele>15.04</ele>
        <time>2013-05-13T16:02:44Z</time>
      </trkpt>
      <trkpt lat="48.72895" lon="-3.45993">
        <ele>15.52</ele>
        <time>2013-05-13T16:02:45Z</time>
      </trkpt>
      <trkpt lat="48.72899" lon="-3.45996">
        <ele>14.56</ele>
        <time>2013-05-13T16:02:46Z</time>
      </trkpt>
      <trkpt lat="48.72904" lon="-3.45999">
        <ele>14.56</ele>
        <time>2013-05-13T16:02:47Z</time>
      </trkpt>
      <trkpt lat="48.7291" lon="-3.46003">
        <ele>14.56</ele>
        <time>2013-05-13T16:02:48Z</time>
      </trkpt>
      <trkpt lat="48.72915" lon="-3.46008">
        <ele>14.56</ele>
        <time>2013-05-13T16:02:49Z</time>
      </trkpt>
      <trkpt lat="48.72921" lon="-3.46012">
        <ele>14.08</ele>
        <time>2013-05-13T16:02:50Z</time>
      </trkpt>
      <trkpt lat="48.72927" lon="-3.46015">
        <ele>13.6</ele>
        <time>2013-05-13T16:02:51Z</time>
      </trkpt>
      <trkpt lat="48.72933" lon="-3.46018">
        <ele>14.08</ele>
        <time>2013-05-13T16:02:52Z</time>
      </trkpt>
      <trkpt lat="48.72992" lon="-3.46047">
        <ele>14.56</ele>
        <time>2013-05-13T16:03:02Z</time>
      </trkpt>
      <trkpt lat="48.72998" lon="-3.46046">
        <ele>14.56</ele>
        <time>2013-05-13T16:03:03Z</time>
      </trkpt>
      <trkpt lat="48.73034" lon="-3.46031">
        <ele>15.04</ele>
        <time>2013-05-13T16:03:10Z</time>
      </trkpt>
      <trkpt lat="48.73038" lon="-3.46027">
        <ele>15.04</ele>
        <time>2013-05-13T16:03:11Z</time>
      </trkpt>
      <trkpt lat="48.73042" lon="-3.46022">
        <ele>14.56</ele>
        <time>2013-05-13T16:03:12Z</time>
      </trkpt>
      <trkpt lat="48.73073" lon="-3.45989">
        <ele>15.04</ele>
        <time>2013-05-13T16:03:22Z</time>
      </trkpt>
      <trkpt lat="48.73077" lon="-3.45987">
        <ele>15.04</ele>
        <time>2013-05-13T16:03:23Z</time>
      </trkpt>
      <trkpt lat="48.73081" lon="-3.45987">
        <ele>14.08</ele>
        <time>2013-05-13T16:03:24Z</time>
      </trkpt>
      <trkpt lat="48.73086" lon="-3.45987">
        <ele>14.08</ele>
        <time>2013-05-13T16:03:25Z</time>
      </trkpt>
      <trkpt lat="48.7309" lon="-3.45989">
        <ele>13.6</ele>
        <time>2013-05-13T16:03:26Z</time>
      </trkpt>
      <trkpt lat="48.73094" lon="-3.45992">
        <ele>13.6</ele>
        <time>2013-05-13T16:03:27Z</time>
      </trkpt>
      <trkpt lat="48.73099" lon="-3.45997">
        <ele>13.6</ele>
        <time>2013-05-13T16:03:28Z</time>
      </trkpt>
      <trkpt lat="48.73103" lon="-3.46003">
        <ele>13.6</ele>
        <time>2013-05-13T16:03:29Z</time>
      </trkpt>
      <trkpt lat="48.73107" lon="-3.46009">
        <ele>13.6</ele>
        <time>2013-05-13T16:03:30Z</time>
      </trkpt>
      <trkpt lat="48.73143" lon="-3.46063">
        <ele>14.08</ele>
        <time>2013-05-13T16:03:40Z</time>
      </trkpt>
      <trkpt lat="48.73147" lon="-3.46069">
        <ele>13.12</ele>
        <time>2013-05-13T16:03:41Z</time>
      </trkpt>
      <trkpt lat="48.73193" lon="-3.46134">
        <ele>14.56</ele>
        <time>2013-05-13T16:03:54Z</time>
      </trkpt>
      <trkpt lat="48.73216" lon="-3.4617">
        <ele>14.56</ele>
        <time>2013-05-13T16:04:03Z</time>
      </trkpt>
      <trkpt lat="48.7322" lon="-3.46171">
        <ele>14.08</ele>
        <time>2013-05-13T16:04:04Z</time>
      </trkpt>
      <trkpt lat="48.73227" lon="-3.46171">
        <ele>14.56</ele>
        <time>2013-05-13T16:04:06Z</time>
      </trkpt>
      <trkpt lat="48.73231" lon="-3.46168">
        <ele>14.56</ele>
        <time>2013-05-13T16:04:07Z</time>
      </trkpt>
      <trkpt lat="48.73234" lon="-3.46164">
        <ele>15.04</ele>
        <time>2013-05-13T16:04:08Z</time>
      </trkpt>
      <trkpt lat="48.73237" lon="-3.46158">
        <ele>15.52</ele>
        <time>2013-05-13T16:04:09Z</time>
      </trkpt>
      <trkpt lat="48.73239" lon="-3.46153">
        <ele>16.48</ele>
        <time>2013-05-13T16:04:10Z</time>
      </trkpt>
      <trkpt lat="48.73245" lon="-3.46141">
        <ele>16.96</ele>
        <time>2013-05-13T16:04:12Z</time>
      </trkpt>
      <trkpt lat="48.7326" lon="-3.46106">
        <ele>18.88</ele>
        <time>2013-05-13T16:04:18Z</time>
      </trkpt>
      <trkpt lat="48.73262" lon="-3.461">
        <ele>18.88</ele>
        <time>2013-05-13T16:04:19Z</time>
      </trkpt>
      <trkpt lat="48.73265" lon="-3.46095">
        <ele>19.36</ele>
        <time>2013-05-13T16:04:20Z</time>
      </trkpt>
      <trkpt lat="48.73284" lon="-3.46078">
        <ele>19.84</ele>
        <time>2013-05-13T16:04:24Z</time>
      </trkpt>
      <trkpt lat="48.73287" lon="-3.46073">
        <ele>20.32</ele>
        <time>2013-05-13T16:04:25Z</time>
      </trkpt>
      <trkpt lat="48.73289" lon="-3.46068">
        <ele>20.81</ele>
        <time>2013-05-13T16:04:26Z</time>
      </trkpt>
      <trkpt lat="48.7329" lon="-3.46064">
        <ele>22.25</ele>
        <time>2013-05-13T16:04:27Z</time>
      </trkpt>
      <trkpt lat="48.7329" lon="-3.46059">
        <ele>21.29</ele>
        <time>2013-05-13T16:04:28Z</time>
      </trkpt>
      <trkpt lat="48.73285" lon="-3.4601">
        <ele>22.73</ele>
        <time>2013-05-13T16:04:40Z</time>
      </trkpt>
      <trkpt lat="48.73281" lon="-3.45999">
        <ele>22.73</ele>
        <time>2013-05-13T16:04:52Z</time>
      </trkpt>
      <trkpt lat="48.73282" lon="-3.45998">
        <ele>23.21</ele>
        <time>2013-05-13T16:04:53Z</time>
      </trkpt>
      <trkpt lat="48.73284" lon="-3.45994">
        <ele>23.21</ele>
        <time>2013-05-13T16:04:54Z</time>
      </trkpt>
      <trkpt lat="48.73286" lon="-3.45991">
        <ele>23.69</ele>
        <time>2013-05-13T16:04:55Z</time>
      </trkpt>
      <trkpt lat="48.73288" lon="-3.45987">
        <ele>23.69</ele>
        <time>2013-05-13T16:04:56Z</time>
      </trkpt>
      <trkpt lat="48.7329" lon="-3.45984">
        <ele>23.21</ele>
        <time>2013-05-13T16:04:57Z</time>
      </trkpt>
      <trkpt lat="48.73292" lon="-3.45979">
        <ele>22.73</ele>
        <time>2013-05-13T16:04:58Z</time>
      </trkpt>
      <trkpt lat="48.73294" lon="-3.45975">
        <ele>22.73</ele>
        <time>2013-05-13T16:04:59Z</time>
      </trkpt>
      <trkpt lat="48.73297" lon="-3.45971">
        <ele>21.77</ele>
        <time>2013-05-13T16:05:00Z</time>
      </trkpt>
      <trkpt lat="48.733" lon="-3.45967">
        <ele>21.29</ele>
        <time>2013-05-13T16:05:01Z</time>
      </trkpt>
      <trkpt lat="48.73302" lon="-3.45964">
        <ele>21.29</ele>
        <time>2013-05-13T16:05:02Z</time>
      </trkpt>
      <trkpt lat="48.73306" lon="-3.45961">
        <ele>21.29</ele>
        <time>2013-05-13T16:05:03Z</time>
      </trkpt>
      <trkpt lat="48.7331" lon="-3.45958">
        <ele>21.29</ele>
        <time>2013-05-13T16:05:04Z</time>
      </trkpt>
      <trkpt lat="48.73315" lon="-3.45956">
        <ele>20.81</ele>
        <time>2013-05-13T16:05:05Z</time>
      </trkpt>
      <trkpt lat="48.73321" lon="-3.45953">
        <ele>19.84</ele>
        <time>2013-05-13T16:05:06Z</time>
      </trkpt>
      <trkpt lat="48.73342" lon="-3.45944">
        <ele>17.44</ele>
        <time>2013-05-13T16:05:09Z</time>
      </trkpt>
      <trkpt lat="48.7335" lon="-3.45941">
        <ele>17.44</ele>
        <time>2013-05-13T16:05:10Z</time>
      </trkpt>
      <trkpt lat="48.73357" lon="-3.45938">
        <ele>17.44</ele>
        <time>2013-05-13T16:05:11Z</time>
      </trkpt>
      <trkpt lat="48.73405" lon="-3.45919">
        <ele>18.88</ele>
        <time>2013-05-13T16:05:18Z</time>
      </trkpt>
      <trkpt lat="48.7342" lon="-3.45906">
        <ele>17.92</ele>
        <time>2013-05-13T16:05:21Z</time>
      </trkpt>
      <trkpt lat="48.73428" lon="-3.45895">
        <ele>18.88</ele>
        <time>2013-05-13T16:05:23Z</time>
      </trkpt>
      <trkpt lat="48.73435" lon="-3.45883">
        <ele>19.36</ele>
        <time>2013-05-13T16:05:25Z</time>
      </trkpt>
      <trkpt lat="48.73444" lon="-3.45863">
        <ele>19.84</ele>
        <time>2013-05-13T16:05:28Z</time>
      </trkpt>
      <trkpt lat="48.73446" lon="-3.45855">
        <ele>19.84</ele>
        <time>2013-05-13T16:05:29Z</time>
      </trkpt>
      <trkpt lat="48.73447" lon="-3.45847">
        <ele>20.32</ele>
        <time>2013-05-13T16:05:30Z</time>
      </trkpt>
      <trkpt lat="48.73448" lon="-3.4584">
        <ele>20.32</ele>
        <time>2013-05-13T16:05:31Z</time>
      </trkpt>
      <trkpt lat="48.7345" lon="-3.45816">
        <ele>20.32</ele>
        <time>2013-05-13T16:05:34Z</time>
      </trkpt>
      <trkpt lat="48.7345" lon="-3.45808">
        <ele>19.84</ele>
        <time>2013-05-13T16:05:35Z</time>
      </trkpt>
      <trkpt lat="48.7345" lon="-3.45801">
        <ele>19.84</ele>
        <time>2013-05-13T16:05:36Z</time>
      </trkpt>
      <trkpt lat="48.73449" lon="-3.45793">
        <ele>20.32</ele>
        <time>2013-05-13T16:05:37Z</time>
      </trkpt>
      <trkpt lat="48.73448" lon="-3.45786">
        <ele>20.32</ele>
        <time>2013-05-13T16:05:38Z</time>
      </trkpt>
      <trkpt lat="48.73437" lon="-3.45737">
        <ele>21.77</ele>
        <time>2013-05-13T16:05:45Z</time>
      </trkpt>
      <trkpt lat="48.73437" lon="-3.45729">
        <ele>21.77</ele>
        <time>2013-05-13T16:05:46Z</time>
      </trkpt>
      <trkpt lat="48.73439" lon="-3.45714">
        <ele>21.77</ele>
        <time>2013-05-13T16:05:48Z</time>
      </trkpt>
      <trkpt lat="48.73441" lon="-3.45707">
        <ele>21.77</ele>
        <time>2013-05-13T16:05:49Z</time>
      </trkpt>
      <trkpt lat="48.73444" lon="-3.457">
        <ele>21.29</ele>
        <time>2013-05-13T16:05:50Z</time>
      </trkpt>
      <trkpt lat="48.73458" lon="-3.45674">
        <ele>20.81</ele>
        <time>2013-05-13T16:05:54Z</time>
      </trkpt>
      <trkpt lat="48.73471" lon="-3.45643">
        <ele>20.32</ele>
        <time>2013-05-13T16:05:58Z</time>
      </trkpt>
      <trkpt lat="48.73474" lon="-3.45634">
        <ele>20.32</ele>
        <time>2013-05-13T16:05:59Z</time>
      </trkpt>
      <trkpt lat="48.73475" lon="-3.45625">
        <ele>20.32</ele>
        <time>2013-05-13T16:06:00Z</time>
      </trkpt>
      <trkpt lat="48.73504" lon="-3.45532">
        <ele>22.25</ele>
        <time>2013-05-13T16:06:13Z</time>
      </trkpt>
      <trkpt lat="48.73508" lon="-3.45529">
        <ele>22.25</ele>
        <time>2013-05-13T16:06:14Z</time>
      </trkpt>
      <trkpt lat="48.73513" lon="-3.45528">
        <ele>22.25</ele>
        <time>2013-05-13T16:06:15Z</time>
      </trkpt>
      <trkpt lat="48.73527" lon="-3.45527">
        <ele>22.73</ele>
        <time>2013-05-13T16:06:18Z</time>
      </trkpt>
      <trkpt lat="48.73536" lon="-3.45527">
        <ele>23.21</ele>
        <time>2013-05-13T16:06:20Z</time>
      </trkpt>
      <trkpt lat="48.73541" lon="-3.45524">
        <ele>23.21</ele>
        <time>2013-05-13T16:06:21Z</time>
      </trkpt>
      <trkpt lat="48.73557" lon="-3.45517">
        <ele>24.17</ele>
        <time>2013-05-13T16:06:25Z</time>
      </trkpt>
      <trkpt lat="48.73568" lon="-3.45511">
        <ele>25.61</ele>
        <time>2013-05-13T16:06:28Z</time>
      </trkpt>
      <trkpt lat="48.73572" lon="-3.45509">
        <ele>26.09</ele>
        <time>2013-05-13T16:06:29Z</time>
      </trkpt>
      <trkpt lat="48.73581" lon="-3.45507">
        <ele>26.09</ele>
        <time>2013-05-13T16:06:31Z</time>
      </trkpt>
      <trkpt lat="48.73585" lon="-3.45505">
        <ele>26.57</ele>
        <time>2013-05-13T16:06:32Z</time>
      </trkpt>
      <trkpt lat="48.73644" lon="-3.45515">
        <ele>28.02</ele>
        <time>2013-05-13T16:06:47Z</time>
      </trkpt>
      <trkpt lat="48.73677" lon="-3.45522">
        <ele>30.9</ele>
        <time>2013-05-13T16:06:56Z</time>
      </trkpt>
      <trkpt lat="48.73721" lon="-3.45514">
        <ele>33.78</ele>
        <time>2013-05-13T16:07:09Z</time>
      </trkpt>
      <trkpt lat="48.73773" lon="-3.45501">
        <ele>37.15</ele>
        <time>2013-05-13T16:07:23Z</time>
      </trkpt>
      <trkpt lat="48.73808" lon="-3.45479">
        <ele>40.03</ele>
        <time>2013-05-13T16:07:36Z</time>
      </trkpt>
      <trkpt lat="48.73843" lon="-3.45454">
        <ele>43.4</ele>
        <time>2013-05-13T16:07:47Z</time>
      </trkpt>
      <trkpt lat="48.73879" lon="-3.45417">
        <ele>46.76</ele>
        <time>2013-05-13T16:08:00Z</time>
      </trkpt>
      <trkpt lat="48.73903" lon="-3.45393">
        <ele>50.13</ele>
        <time>2013-05-13T16:08:10Z</time>
      </trkpt>
      <trkpt lat="48.73923" lon="-3.45377">
        <ele>53.49</ele>
        <time>2013-05-13T16:08:21Z</time>
      </trkpt>
      <trkpt lat="48.73926" lon="-3.45373">
        <ele>53.49</ele>
        <time>2013-05-13T16:08:22Z</time>
      </trkpt>
      <trkpt lat="48.73953" lon="-3.45343">
        <ele>56.37</ele>
        <time>2013-05-13T16:08:32Z</time>
      </trkpt>
      <trkpt lat="48.73977" lon="-3.4531">
        <ele>59.74</ele>
        <time>2013-05-13T16:08:41Z</time>
      </trkpt>
      <trkpt lat="48.73979" lon="-3.45308">
        <ele>60.22</ele>
        <time>2013-05-13T16:08:42Z</time>
      </trkpt>
      <trkpt lat="48.74015" lon="-3.45291">
        <ele>63.1</ele>
        <time>2013-05-13T16:08:52Z</time>
      </trkpt>
      <trkpt lat="48.74071" lon="-3.45305">
        <ele>64.55</ele>
        <time>2013-05-13T16:09:08Z</time>
      </trkpt>
      <trkpt lat="48.74131" lon="-3.45305">
        <ele>67.43</ele>
        <time>2013-05-13T16:09:24Z</time>
      </trkpt>
      <trkpt lat="48.74168" lon="-3.45304">
        <ele>70.31</ele>
        <time>2013-05-13T16:09:35Z</time>
      </trkpt>
      <trkpt lat="48.74208" lon="-3.45301">
        <ele>73.68</ele>
        <time>2013-05-13T16:09:47Z</time>
      </trkpt>
      <trkpt lat="48.74255" lon="-3.45285">
        <ele>76.56</ele>
        <time>2013-05-13T16:10:01Z</time>
      </trkpt>
      <trkpt lat="48.74331" lon="-3.45256">
        <ele>77.04</ele>
        <time>2013-05-13T16:10:19Z</time>
      </trkpt>
      <trkpt lat="48.74334" lon="-3.45253">
        <ele>78.48</ele>
        <time>2013-05-13T16:10:20Z</time>
      </trkpt>
      <trkpt lat="48.74337" lon="-3.45248">
        <ele>78</ele>
        <time>2013-05-13T16:10:21Z</time>
      </trkpt>
      <trkpt lat="48.74339" lon="-3.45243">
        <ele>77.04</ele>
        <time>2013-05-13T16:10:22Z</time>
      </trkpt>
      <trkpt lat="48.74341" lon="-3.45237">
        <ele>78.97</ele>
        <time>2013-05-13T16:10:23Z</time>
      </trkpt>
      <trkpt lat="48.74343" lon="-3.45233">
        <ele>77.04</ele>
        <time>2013-05-13T16:10:24Z</time>
      </trkpt>
      <trkpt lat="48.74344" lon="-3.45229">
        <ele>75.6</ele>
        <time>2013-05-13T16:10:25Z</time>
      </trkpt>
      <trkpt lat="48.74345" lon="-3.45225">
        <ele>75.6</ele>
        <time>2013-05-13T16:10:26Z</time>
      </trkpt>
      <trkpt lat="48.74349" lon="-3.45216">
        <ele>76.56</ele>
        <time>2013-05-13T16:10:29Z</time>
      </trkpt>
      <trkpt lat="48.74352" lon="-3.45214">
        <ele>76.56</ele>
        <time>2013-05-13T16:10:30Z</time>
      </trkpt>
      <trkpt lat="48.74356" lon="-3.45214">
        <ele>76.56</ele>
        <time>2013-05-13T16:10:31Z</time>
      </trkpt>
      <trkpt lat="48.7436" lon="-3.45215">
        <ele>77.04</ele>
        <time>2013-05-13T16:10:32Z</time>
      </trkpt>
      <trkpt lat="48.74364" lon="-3.45217">
        <ele>77.04</ele>
        <time>2013-05-13T16:10:33Z</time>
      </trkpt>
      <trkpt lat="48.744" lon="-3.45231">
        <ele>78.48</ele>
        <time>2013-05-13T16:10:48Z</time>
      </trkpt>
      <trkpt lat="48.74401" lon="-3.45232">
        <ele>78</ele>
        <time>2013-05-13T16:10:55Z</time>
      </trkpt>
      <trkpt lat="48.74406" lon="-3.45236">
        <ele>79.45</ele>
        <time>2013-05-13T16:10:57Z</time>
      </trkpt>
      <trkpt lat="48.74409" lon="-3.45239">
        <ele>79.93</ele>
        <time>2013-05-13T16:10:58Z</time>
      </trkpt>
      <trkpt lat="48.74411" lon="-3.45243">
        <ele>78.97</ele>
        <time>2013-05-13T16:10:59Z</time>
      </trkpt>
      <trkpt lat="48.74438" lon="-3.45278">
        <ele>75.6</ele>
        <time>2013-05-13T16:11:06Z</time>
      </trkpt>
      <trkpt lat="48.74478" lon="-3.45328">
        <ele>72.72</ele>
        <time>2013-05-13T16:11:13Z</time>
      </trkpt>
      <trkpt lat="48.74507" lon="-3.45366">
        <ele>69.35</ele>
        <time>2013-05-13T16:11:17Z</time>
      </trkpt>
      <trkpt lat="48.74562" lon="-3.45466">
        <ele>67.91</ele>
        <time>2013-05-13T16:11:26Z</time>
      </trkpt>
      <trkpt lat="48.74581" lon="-3.45496">
        <ele>70.31</ele>
        <time>2013-05-13T16:11:31Z</time>
      </trkpt>
      <trkpt lat="48.74587" lon="-3.45504">
        <ele>71.27</ele>
        <time>2013-05-13T16:11:33Z</time>
      </trkpt>
      <trkpt lat="48.74594" lon="-3.4551">
        <ele>72.24</ele>
        <time>2013-05-13T16:11:35Z</time>
      </trkpt>
      <trkpt lat="48.74598" lon="-3.4551">
        <ele>72.24</ele>
        <time>2013-05-13T16:11:36Z</time>
      </trkpt>
      <trkpt lat="48.74601" lon="-3.45507">
        <ele>72.24</ele>
        <time>2013-05-13T16:11:37Z</time>
      </trkpt>
      <trkpt lat="48.74603" lon="-3.45503">
        <ele>72.24</ele>
        <time>2013-05-13T16:11:38Z</time>
      </trkpt>
      <trkpt lat="48.74606" lon="-3.45498">
        <ele>72.24</ele>
        <time>2013-05-13T16:11:39Z</time>
      </trkpt>
      <trkpt lat="48.74613" lon="-3.45482">
        <ele>74.16</ele>
        <time>2013-05-13T16:11:42Z</time>
      </trkpt>
      <trkpt lat="48.74619" lon="-3.4547">
        <ele>75.12</ele>
        <time>2013-05-13T16:11:45Z</time>
      </trkpt>
      <trkpt lat="48.74623" lon="-3.45468">
        <ele>75.6</ele>
        <time>2013-05-13T16:11:46Z</time>
      </trkpt>
      <trkpt lat="48.74626" lon="-3.45469">
        <ele>75.6</ele>
        <time>2013-05-13T16:11:47Z</time>
      </trkpt>
      <trkpt lat="48.7463" lon="-3.45472">
        <ele>75.6</ele>
        <time>2013-05-13T16:11:48Z</time>
      </trkpt>
      <trkpt lat="48.74632" lon="-3.45475">
        <ele>76.08</ele>
        <time>2013-05-13T16:11:49Z</time>
      </trkpt>
      <trkpt lat="48.74635" lon="-3.45478">
        <ele>76.08</ele>
        <time>2013-05-13T16:11:50Z</time>
      </trkpt>
      <trkpt lat="48.74662" lon="-3.45505">
        <ele>78.97</ele>
        <time>2013-05-13T16:12:02Z</time>
      </trkpt>
      <trkpt lat="48.74686" lon="-3.4552">
        <ele>80.41</ele>
        <time>2013-05-13T16:12:14Z</time>
      </trkpt>
      <trkpt lat="48.74688" lon="-3.45518">
        <ele>79.93</ele>
        <time>2013-05-13T16:12:15Z</time>
      </trkpt>
      <trkpt lat="48.7469" lon="-3.45515">
        <ele>79.45</ele>
        <time>2013-05-13T16:12:16Z</time>
      </trkpt>
      <trkpt lat="48.74691" lon="-3.45511">
        <ele>79.45</ele>
        <time>2013-05-13T16:12:17Z</time>
      </trkpt>
      <trkpt lat="48.74691" lon="-3.45507">
        <ele>79.45</ele>
        <time>2013-05-13T16:12:18Z</time>
      </trkpt>
      <trkpt lat="48.74692" lon="-3.45504">
        <ele>78.97</ele>
        <time>2013-05-13T16:12:19Z</time>
      </trkpt>
      <trkpt lat="48.74692" lon="-3.45502">
        <ele>78.97</ele>
        <time>2013-05-13T16:12:20Z</time>
      </trkpt>
      <trkpt lat="48.74692" lon="-3.455">
        <ele>79.45</ele>
        <time>2013-05-13T16:12:21Z</time>
      </trkpt>
      <trkpt lat="48.74695" lon="-3.455">
        <ele>78.48</ele>
        <time>2013-05-13T16:12:32Z</time>
      </trkpt>
      <trkpt lat="48.74696" lon="-3.45497">
        <ele>80.41</ele>
        <time>2013-05-13T16:12:51Z</time>
      </trkpt>
      <trkpt lat="48.74697" lon="-3.45497">
        <ele>79.93</ele>
        <time>2013-05-13T16:13:13Z</time>
      </trkpt>
    </trkseg>
  </trk>
</gpx>